<?xml version="1.0" encoding="UTF-8" standalone="no" ?>
<gpx xmlns="http://www.topografix.com/GPX/1/1" xmlns:xsi="http://www.w3.org/2001/XMLSchema-instance" xsi:schemaLocation="http://www.topografix.com/GPX/1/1 http://www.topografix.com/GPX/1/1/gpx.xsd" version="1.1" creator="VisuGPX - https://www.visugpx.com">
  <metadata>
    <name>Lot en moto</name>
    <desc><![CDATA[sortie pas trop longue ...tellement a voir]]></desc>
  </metadata>
  <trk>
    <name><![CDATA[Itinéraire de Conduche, Bouziès à Conduche, Bouziès]]></name>
    <extensions>
      <line xmlns="http://www.topografix.com/GPX/gpx_style/0/2">
        <color>0000FF</color>
        <width>4</width>
      </line>
    </extensions>
    <trkseg>
      <trkpt lat="44.47852" lon="1.65002">
        <ele>135.3</ele>
        <time>2021-03-10T16:04:02.043343Z</time>
      </trkpt>
      <trkpt lat="44.47861" lon="1.64988">
        <ele>135.4</ele>
        <time>2021-03-10T16:04:06.538171Z</time>
      </trkpt>
      <trkpt lat="44.47896" lon="1.64951">
        <ele>136.5</ele>
        <time>2021-03-10T16:04:21.193596Z</time>
      </trkpt>
      <trkpt lat="44.4794" lon="1.64914">
        <ele>135.3</ele>
        <time>2021-03-10T16:04:38.346925Z</time>
      </trkpt>
      <trkpt lat="44.47963" lon="1.64901">
        <ele>136.5</ele>
        <time>2021-03-10T16:04:46.637347Z</time>
      </trkpt>
      <trkpt lat="44.48335" lon="1.64738">
        <ele>147.6</ele>
        <time>2021-03-10T16:06:56.929608Z</time>
      </trkpt>
      <trkpt lat="44.48472" lon="1.64627">
        <ele>142.2</ele>
        <time>2021-03-10T16:07:49.828675Z</time>
      </trkpt>
      <trkpt lat="44.48495" lon="1.64602">
        <ele>141.9</ele>
        <time>2021-03-10T16:07:59.558364Z</time>
      </trkpt>
      <trkpt lat="44.48518" lon="1.6457">
        <ele>140.4</ele>
        <time>2021-03-10T16:08:10.391707Z</time>
      </trkpt>
      <trkpt lat="44.48554" lon="1.6451">
        <ele>153.8</ele>
        <time>2021-03-10T16:08:29.089201Z</time>
      </trkpt>
      <trkpt lat="44.48618" lon="1.64343">
        <ele>141.3</ele>
        <time>2021-03-10T16:09:14.300057Z</time>
      </trkpt>
      <trkpt lat="44.4861" lon="1.64331">
        <ele>130.5</ele>
        <time>2021-03-10T16:09:18.217151Z</time>
      </trkpt>
      <trkpt lat="44.48488" lon="1.64207">
        <ele>136.3</ele>
        <time>2021-03-10T16:10:08.594593Z</time>
      </trkpt>
      <trkpt lat="44.48482" lon="1.64227">
        <ele>135.7</ele>
        <time>2021-03-10T16:10:13.76895Z</time>
      </trkpt>
      <trkpt lat="44.48448" lon="1.64296">
        <ele>135</ele>
        <time>2021-03-10T16:10:33.768824Z</time>
      </trkpt>
      <trkpt lat="44.48425" lon="1.6433">
        <ele>134.2</ele>
        <time>2021-03-10T16:10:44.943469Z</time>
      </trkpt>
      <trkpt lat="44.48395" lon="1.64366">
        <ele>133.2</ele>
        <time>2021-03-10T16:10:58.145572Z</time>
      </trkpt>
      <trkpt lat="44.48383" lon="1.64373">
        <ele>133.7</ele>
        <time>2021-03-10T16:11:02.490658Z</time>
      </trkpt>
      <trkpt lat="44.48332" lon="1.6437">
        <ele>136</ele>
        <time>2021-03-10T16:11:19.554641Z</time>
      </trkpt>
      <trkpt lat="44.48326" lon="1.64367">
        <ele>137.3</ele>
        <time>2021-03-10T16:11:21.684345Z</time>
      </trkpt>
      <trkpt lat="44.48305" lon="1.64334">
        <ele>139.2</ele>
        <time>2021-03-10T16:11:32.230866Z</time>
      </trkpt>
      <trkpt lat="44.48229" lon="1.64193">
        <ele>143</ele>
        <time>2021-03-10T16:12:14.378274Z</time>
      </trkpt>
      <trkpt lat="44.48193" lon="1.64098">
        <ele>144.7</ele>
        <time>2021-03-10T16:12:40.034173Z</time>
      </trkpt>
      <trkpt lat="44.48138" lon="1.64039">
        <ele>149</ele>
        <time>2021-03-10T16:13:03.187374Z</time>
      </trkpt>
      <trkpt lat="44.48118" lon="1.64028">
        <ele>151</ele>
        <time>2021-03-10T16:13:10.369514Z</time>
      </trkpt>
      <trkpt lat="44.48101" lon="1.64041">
        <ele>149.1</ele>
        <time>2021-03-10T16:13:16.843235Z</time>
      </trkpt>
      <trkpt lat="44.48098" lon="1.6405">
        <ele>148.4</ele>
        <time>2021-03-10T16:13:19.212485Z</time>
      </trkpt>
      <trkpt lat="44.481" lon="1.6407">
        <ele>151</ele>
        <time>2021-03-10T16:13:24.029414Z</time>
      </trkpt>
      <trkpt lat="44.4811" lon="1.64084">
        <ele>152.4</ele>
        <time>2021-03-10T16:13:28.754485Z</time>
      </trkpt>
      <trkpt lat="44.48132" lon="1.641">
        <ele>153.5</ele>
        <time>2021-03-10T16:13:37.040091Z</time>
      </trkpt>
      <trkpt lat="44.48148" lon="1.64117">
        <ele>154.7</ele>
        <time>2021-03-10T16:13:43.751908Z</time>
      </trkpt>
      <trkpt lat="44.48158" lon="1.64132">
        <ele>155.5</ele>
        <time>2021-03-10T16:13:48.648339Z</time>
      </trkpt>
      <trkpt lat="44.48166" lon="1.64152">
        <ele>156.5</ele>
        <time>2021-03-10T16:13:54.117058Z</time>
      </trkpt>
      <trkpt lat="44.48177" lon="1.64187">
        <ele>158</ele>
        <time>2021-03-10T16:14:03.238944Z</time>
      </trkpt>
      <trkpt lat="44.4819" lon="1.64291">
        <ele>163.7</ele>
        <time>2021-03-10T16:14:28.421649Z</time>
      </trkpt>
      <trkpt lat="44.48188" lon="1.6431">
        <ele>164.9</ele>
        <time>2021-03-10T16:14:33.002374Z</time>
      </trkpt>
      <trkpt lat="44.48182" lon="1.64327">
        <ele>165.4</ele>
        <time>2021-03-10T16:14:37.526106Z</time>
      </trkpt>
      <trkpt lat="44.48171" lon="1.64334">
        <ele>166.4</ele>
        <time>2021-03-10T16:14:41.564637Z</time>
      </trkpt>
      <trkpt lat="44.4811" lon="1.6433">
        <ele>170.5</ele>
        <time>2021-03-10T16:15:01.978801Z</time>
      </trkpt>
      <trkpt lat="44.48088" lon="1.64343">
        <ele>172</ele>
        <time>2021-03-10T16:15:09.960193Z</time>
      </trkpt>
      <trkpt lat="44.48082" lon="1.64351">
        <ele>172.7</ele>
        <time>2021-03-10T16:15:12.728526Z</time>
      </trkpt>
      <trkpt lat="44.48074" lon="1.6438">
        <ele>172.7</ele>
        <time>2021-03-10T16:15:20.144364Z</time>
      </trkpt>
      <trkpt lat="44.48067" lon="1.64395">
        <ele>173.1</ele>
        <time>2021-03-10T16:15:24.419331Z</time>
      </trkpt>
      <trkpt lat="44.48034" lon="1.64431">
        <ele>177.2</ele>
        <time>2021-03-10T16:15:38.398787Z</time>
      </trkpt>
      <trkpt lat="44.47984" lon="1.64503">
        <ele>181.2</ele>
        <time>2021-03-10T16:16:02.363265Z</time>
      </trkpt>
      <trkpt lat="44.47961" lon="1.64528">
        <ele>182.7</ele>
        <time>2021-03-10T16:16:12.093331Z</time>
      </trkpt>
      <trkpt lat="44.47944" lon="1.64526">
        <ele>184.2</ele>
        <time>2021-03-10T16:16:17.796327Z</time>
      </trkpt>
      <trkpt lat="44.47919" lon="1.64504">
        <ele>185.8</ele>
        <time>2021-03-10T16:16:27.664511Z</time>
      </trkpt>
      <trkpt lat="44.47905" lon="1.64501">
        <ele>189.2</ele>
        <time>2021-03-10T16:16:32.399141Z</time>
      </trkpt>
      <trkpt lat="44.47897" lon="1.64506">
        <ele>189.1</ele>
        <time>2021-03-10T16:16:35.327345Z</time>
      </trkpt>
      <trkpt lat="44.47885" lon="1.64525">
        <ele>185.3</ele>
        <time>2021-03-10T16:16:41.37966Z</time>
      </trkpt>
      <trkpt lat="44.47873" lon="1.64532">
        <ele>183.6</ele>
        <time>2021-03-10T16:16:45.724746Z</time>
      </trkpt>
      <trkpt lat="44.4784" lon="1.64533">
        <ele>178.2</ele>
        <time>2021-03-10T16:16:56.759022Z</time>
      </trkpt>
      <trkpt lat="44.47787" lon="1.64508">
        <ele>190.9</ele>
        <time>2021-03-10T16:17:15.453117Z</time>
      </trkpt>
      <trkpt lat="44.4777" lon="1.64514">
        <ele>190</ele>
        <time>2021-03-10T16:17:21.313558Z</time>
      </trkpt>
      <trkpt lat="44.47762" lon="1.64524">
        <ele>187.1</ele>
        <time>2021-03-10T16:17:24.897021Z</time>
      </trkpt>
      <trkpt lat="44.47753" lon="1.64529">
        <ele>186.9</ele>
        <time>2021-03-10T16:17:28.133378Z</time>
      </trkpt>
      <trkpt lat="44.47664" lon="1.64532">
        <ele>187.7</ele>
        <time>2021-03-10T16:17:57.894029Z</time>
      </trkpt>
      <trkpt lat="44.47642" lon="1.64537">
        <ele>189.1</ele>
        <time>2021-03-10T16:18:05.344551Z</time>
      </trkpt>
      <trkpt lat="44.47613" lon="1.6456">
        <ele>184.3</ele>
        <time>2021-03-10T16:18:16.483748Z</time>
      </trkpt>
      <trkpt lat="44.47595" lon="1.64566">
        <ele>175.7</ele>
        <time>2021-03-10T16:18:22.668927Z</time>
      </trkpt>
      <trkpt lat="44.47551" lon="1.64594">
        <ele>181.6</ele>
        <time>2021-03-10T16:18:38.823203Z</time>
      </trkpt>
      <trkpt lat="44.47502" lon="1.64613">
        <ele>185.9</ele>
        <time>2021-03-10T16:18:55.819Z</time>
      </trkpt>
      <trkpt lat="44.4745" lon="1.64663">
        <ele>174.5</ele>
        <time>2021-03-10T16:19:16.900453Z</time>
      </trkpt>
      <trkpt lat="44.47419" lon="1.64678">
        <ele>185</ele>
        <time>2021-03-10T16:19:27.863852Z</time>
      </trkpt>
      <trkpt lat="44.47413" lon="1.64685">
        <ele>187.8</ele>
        <time>2021-03-10T16:19:30.473758Z</time>
      </trkpt>
      <trkpt lat="44.47401" lon="1.64717">
        <ele>173.8</ele>
        <time>2021-03-10T16:19:39.09693Z</time>
      </trkpt>
      <trkpt lat="44.47326" lon="1.64793">
        <ele>170.8</ele>
        <time>2021-03-10T16:20:10.036741Z</time>
      </trkpt>
      <trkpt lat="44.47292" lon="1.64821">
        <ele>182.7</ele>
        <time>2021-03-10T16:20:23.219981Z</time>
      </trkpt>
      <trkpt lat="44.47259" lon="1.64839">
        <ele>195.3</ele>
        <time>2021-03-10T16:20:35.057872Z</time>
      </trkpt>
      <trkpt lat="44.47254" lon="1.64845">
        <ele>196.4</ele>
        <time>2021-03-10T16:20:37.25831Z</time>
      </trkpt>
      <trkpt lat="44.47248" lon="1.64866">
        <ele>192.3</ele>
        <time>2021-03-10T16:20:42.654453Z</time>
      </trkpt>
      <trkpt lat="44.47238" lon="1.64876">
        <ele>190.8</ele>
        <time>2021-03-10T16:20:46.76119Z</time>
      </trkpt>
      <trkpt lat="44.4721" lon="1.64889">
        <ele>197.9</ele>
        <time>2021-03-10T16:20:56.621777Z</time>
      </trkpt>
      <trkpt lat="44.47186" lon="1.64906">
        <ele>200.1</ele>
        <time>2021-03-10T16:21:05.611478Z</time>
      </trkpt>
      <trkpt lat="44.47114" lon="1.64909">
        <ele>205.2</ele>
        <time>2021-03-10T16:21:29.6912Z</time>
      </trkpt>
      <trkpt lat="44.47099" lon="1.64914">
        <ele>207.2</ele>
        <time>2021-03-10T16:21:34.845524Z</time>
      </trkpt>
      <trkpt lat="44.47074" lon="1.64955">
        <ele>209.4</ele>
        <time>2021-03-10T16:21:47.710473Z</time>
      </trkpt>
      <trkpt lat="44.4705" lon="1.64985">
        <ele>211.8</ele>
        <time>2021-03-10T16:21:58.461582Z</time>
      </trkpt>
      <trkpt lat="44.4703" lon="1.65005">
        <ele>213.5</ele>
        <time>2021-03-10T16:22:06.675254Z</time>
      </trkpt>
      <trkpt lat="44.47005" lon="1.65021">
        <ele>216.5</ele>
        <time>2021-03-10T16:22:15.862985Z</time>
      </trkpt>
      <trkpt lat="44.46992" lon="1.65021">
        <ele>217.6</ele>
        <time>2021-03-10T16:22:20.208727Z</time>
      </trkpt>
      <trkpt lat="44.4695" lon="1.64999">
        <ele>223.6</ele>
        <time>2021-03-10T16:22:35.197879Z</time>
      </trkpt>
      <trkpt lat="44.46908" lon="1.64957">
        <ele>227.1</ele>
        <time>2021-03-10T16:22:52.44668Z</time>
      </trkpt>
      <trkpt lat="44.46887" lon="1.6494">
        <ele>227.2</ele>
        <time>2021-03-10T16:23:00.554092Z</time>
      </trkpt>
      <trkpt lat="44.46855" lon="1.64904">
        <ele>233.5</ele>
        <time>2021-03-10T16:23:14.272388Z</time>
      </trkpt>
      <trkpt lat="44.46814" lon="1.64879">
        <ele>234.1</ele>
        <time>2021-03-10T16:23:29.2198Z</time>
      </trkpt>
      <trkpt lat="44.46781" lon="1.6484">
        <ele>238.3</ele>
        <time>2021-03-10T16:23:43.651125Z</time>
      </trkpt>
      <trkpt lat="44.46766" lon="1.64826">
        <ele>240.6</ele>
        <time>2021-03-10T16:23:49.676055Z</time>
      </trkpt>
      <trkpt lat="44.46756" lon="1.64821">
        <ele>240.5</ele>
        <time>2021-03-10T16:23:53.225486Z</time>
      </trkpt>
      <trkpt lat="44.46744" lon="1.64822">
        <ele>239.9</ele>
        <time>2021-03-10T16:23:57.243999Z</time>
      </trkpt>
      <trkpt lat="44.46712" lon="1.6484">
        <ele>242.1</ele>
        <time>2021-03-10T16:24:08.771115Z</time>
      </trkpt>
      <trkpt lat="44.46661" lon="1.64882">
        <ele>244</ele>
        <time>2021-03-10T16:24:28.54649Z</time>
      </trkpt>
      <trkpt lat="44.4665" lon="1.64893">
        <ele>244.2</ele>
        <time>2021-03-10T16:24:33.064095Z</time>
      </trkpt>
      <trkpt lat="44.46647" lon="1.64903">
        <ele>244.2</ele>
        <time>2021-03-10T16:24:35.65206Z</time>
      </trkpt>
      <trkpt lat="44.46647" lon="1.64913">
        <ele>243.7</ele>
        <time>2021-03-10T16:24:38.037585Z</time>
      </trkpt>
      <trkpt lat="44.46655" lon="1.64931">
        <ele>244.4</ele>
        <time>2021-03-10T16:24:43.096519Z</time>
      </trkpt>
      <trkpt lat="44.46699" lon="1.64945">
        <ele>242.8</ele>
        <time>2021-03-10T16:24:58.179855Z</time>
      </trkpt>
      <trkpt lat="44.46721" lon="1.64971">
        <ele>241.1</ele>
        <time>2021-03-10T16:25:07.800852Z</time>
      </trkpt>
      <trkpt lat="44.46733" lon="1.65">
        <ele>239.7</ele>
        <time>2021-03-10T16:25:15.798252Z</time>
      </trkpt>
      <trkpt lat="44.46734" lon="1.65011">
        <ele>238.8</ele>
        <time>2021-03-10T16:25:18.443653Z</time>
      </trkpt>
      <trkpt lat="44.46729" lon="1.65064">
        <ele>239.3</ele>
        <time>2021-03-10T16:25:31.19776Z</time>
      </trkpt>
      <trkpt lat="44.46737" lon="1.65084">
        <ele>239.6</ele>
        <time>2021-03-10T16:25:36.667521Z</time>
      </trkpt>
      <trkpt lat="44.46768" lon="1.65089">
        <ele>239.7</ele>
        <time>2021-03-10T16:25:47.099026Z</time>
      </trkpt>
      <trkpt lat="44.46784" lon="1.65096">
        <ele>239.4</ele>
        <time>2021-03-10T16:25:52.702235Z</time>
      </trkpt>
      <trkpt lat="44.46799" lon="1.6511">
        <ele>239.2</ele>
        <time>2021-03-10T16:25:58.72703Z</time>
      </trkpt>
      <trkpt lat="44.46807" lon="1.65123">
        <ele>239.5</ele>
        <time>2021-03-10T16:26:02.822346Z</time>
      </trkpt>
      <trkpt lat="44.46836" lon="1.65211">
        <ele>240</ele>
        <time>2021-03-10T16:26:25.946309Z</time>
      </trkpt>
      <trkpt lat="44.46847" lon="1.65236">
        <ele>239.1</ele>
        <time>2021-03-10T16:26:32.952887Z</time>
      </trkpt>
      <trkpt lat="44.46851" lon="1.65277">
        <ele>241.3</ele>
        <time>2021-03-10T16:26:42.82495Z</time>
      </trkpt>
      <trkpt lat="44.46825" lon="1.6543">
        <ele>243.5</ele>
        <time>2021-03-10T16:27:20.345785Z</time>
      </trkpt>
      <trkpt lat="44.46822" lon="1.65496">
        <ele>242.8</ele>
        <time>2021-03-10T16:27:36.122964Z</time>
      </trkpt>
      <trkpt lat="44.46816" lon="1.65553">
        <ele>242.5</ele>
        <time>2021-03-10T16:27:49.86831Z</time>
      </trkpt>
      <trkpt lat="44.46808" lon="1.65591">
        <ele>242.9</ele>
        <time>2021-03-10T16:27:59.320005Z</time>
      </trkpt>
      <trkpt lat="44.46786" lon="1.65659">
        <ele>243.5</ele>
        <time>2021-03-10T16:28:17.131646Z</time>
      </trkpt>
      <trkpt lat="44.46775" lon="1.65684">
        <ele>244.1</ele>
        <time>2021-03-10T16:28:24.138223Z</time>
      </trkpt>
      <trkpt lat="44.46757" lon="1.6571">
        <ele>244.7</ele>
        <time>2021-03-10T16:28:32.780079Z</time>
      </trkpt>
      <trkpt lat="44.46733" lon="1.65737">
        <ele>245.5</ele>
        <time>2021-03-10T16:28:43.068954Z</time>
      </trkpt>
      <trkpt lat="44.46666" lon="1.65787">
        <ele>243.1</ele>
        <time>2021-03-10T16:29:08.444968Z</time>
      </trkpt>
      <trkpt lat="44.46635" lon="1.65798">
        <ele>242.8</ele>
        <time>2021-03-10T16:29:19.135215Z</time>
      </trkpt>
      <trkpt lat="44.46624" lon="1.65809">
        <ele>242</ele>
        <time>2021-03-10T16:29:23.65291Z</time>
      </trkpt>
      <trkpt lat="44.46622" lon="1.65819">
        <ele>241.8</ele>
        <time>2021-03-10T16:29:26.130397Z</time>
      </trkpt>
      <trkpt lat="44.46625" lon="1.65837">
        <ele>241</ele>
        <time>2021-03-10T16:29:30.540333Z</time>
      </trkpt>
      <trkpt lat="44.46658" lon="1.65884">
        <ele>242.3</ele>
        <time>2021-03-10T16:29:46.270095Z</time>
      </trkpt>
      <trkpt lat="44.46696" lon="1.65949">
        <ele>241.9</ele>
        <time>2021-03-10T16:30:06.315982Z</time>
      </trkpt>
      <trkpt lat="44.46707" lon="1.65982">
        <ele>241</ele>
        <time>2021-03-10T16:30:15.005169Z</time>
      </trkpt>
      <trkpt lat="44.46711" lon="1.66012">
        <ele>241.1</ele>
        <time>2021-03-10T16:30:22.286098Z</time>
      </trkpt>
      <trkpt lat="44.46712" lon="1.6612">
        <ele>242.4</ele>
        <time>2021-03-10T16:30:48.053706Z</time>
      </trkpt>
      <trkpt lat="44.46706" lon="1.66257">
        <ele>243.8</ele>
        <time>2021-03-10T16:31:20.799156Z</time>
      </trkpt>
      <trkpt lat="44.46696" lon="1.6633">
        <ele>245.5</ele>
        <time>2021-03-10T16:31:38.532627Z</time>
      </trkpt>
      <trkpt lat="44.46689" lon="1.66354">
        <ele>245</ele>
        <time>2021-03-10T16:31:44.718069Z</time>
      </trkpt>
      <trkpt lat="44.46676" lon="1.66365">
        <ele>245.8</ele>
        <time>2021-03-10T16:31:49.794765Z</time>
      </trkpt>
      <trkpt lat="44.46602" lon="1.66355">
        <ele>253.2</ele>
        <time>2021-03-10T16:32:14.647206Z</time>
      </trkpt>
      <trkpt lat="44.46594" lon="1.66358">
        <ele>253</ele>
        <time>2021-03-10T16:32:17.415686Z</time>
      </trkpt>
      <trkpt lat="44.46589" lon="1.66368">
        <ele>253</ele>
        <time>2021-03-10T16:32:20.32855Z</time>
      </trkpt>
      <trkpt lat="44.46591" lon="1.66382">
        <ele>253.8</ele>
        <time>2021-03-10T16:32:23.734872Z</time>
      </trkpt>
      <trkpt lat="44.46601" lon="1.66398">
        <ele>254.1</ele>
        <time>2021-03-10T16:32:28.808919Z</time>
      </trkpt>
      <trkpt lat="44.46618" lon="1.66438">
        <ele>255.3</ele>
        <time>2021-03-10T16:32:39.915857Z</time>
      </trkpt>
      <trkpt lat="44.46624" lon="1.6646">
        <ele>256</ele>
        <time>2021-03-10T16:32:45.5346Z</time>
      </trkpt>
      <trkpt lat="44.46629" lon="1.66509">
        <ele>257.8</ele>
        <time>2021-03-10T16:32:57.34352Z</time>
      </trkpt>
      <trkpt lat="44.46638" lon="1.66542">
        <ele>257.6</ele>
        <time>2021-03-10T16:33:05.771684Z</time>
      </trkpt>
      <trkpt lat="44.46638" lon="1.66553">
        <ele>257.9</ele>
        <time>2021-03-10T16:33:08.396218Z</time>
      </trkpt>
      <trkpt lat="44.46631" lon="1.66562">
        <ele>257.3</ele>
        <time>2021-03-10T16:33:11.572105Z</time>
      </trkpt>
      <trkpt lat="44.46608" lon="1.66558">
        <ele>257.7</ele>
        <time>2021-03-10T16:33:19.31988Z</time>
      </trkpt>
      <trkpt lat="44.46596" lon="1.66564">
        <ele>257.1</ele>
        <time>2021-03-10T16:33:23.579193Z</time>
      </trkpt>
      <trkpt lat="44.46566" lon="1.66588">
        <ele>253.5</ele>
        <time>2021-03-10T16:33:35.127419Z</time>
      </trkpt>
      <trkpt lat="44.46531" lon="1.66607">
        <ele>251.7</ele>
        <time>2021-03-10T16:33:47.675027Z</time>
      </trkpt>
      <trkpt lat="44.46521" lon="1.66616">
        <ele>251.3</ele>
        <time>2021-03-10T16:33:51.648283Z</time>
      </trkpt>
      <trkpt lat="44.46513" lon="1.66643">
        <ele>247.3</ele>
        <time>2021-03-10T16:33:58.622932Z</time>
      </trkpt>
      <trkpt lat="44.4651" lon="1.66681">
        <ele>241</ele>
        <time>2021-03-10T16:34:07.744194Z</time>
      </trkpt>
      <trkpt lat="44.46505" lon="1.66698">
        <ele>241.6</ele>
        <time>2021-03-10T16:34:12.130979Z</time>
      </trkpt>
      <trkpt lat="44.46493" lon="1.66721">
        <ele>245.6</ele>
        <time>2021-03-10T16:34:18.928241Z</time>
      </trkpt>
      <trkpt lat="44.46479" lon="1.66757">
        <ele>236.8</ele>
        <time>2021-03-10T16:34:28.709409Z</time>
      </trkpt>
      <trkpt lat="44.46472" lon="1.66766">
        <ele>240.4</ele>
        <time>2021-03-10T16:34:31.885296Z</time>
      </trkpt>
      <trkpt lat="44.46465" lon="1.6677">
        <ele>239</ele>
        <time>2021-03-10T16:34:34.412427Z</time>
      </trkpt>
      <trkpt lat="44.46414" lon="1.66762">
        <ele>237.3</ele>
        <time>2021-03-10T16:34:51.567845Z</time>
      </trkpt>
      <trkpt lat="44.46409" lon="1.66813">
        <ele>231</ele>
        <time>2021-03-10T16:35:03.849779Z</time>
      </trkpt>
      <trkpt lat="44.46424" lon="1.66825">
        <ele>228.7</ele>
        <time>2021-03-10T16:35:09.623892Z</time>
      </trkpt>
      <trkpt lat="44.46457" lon="1.66874">
        <ele>221.2</ele>
        <time>2021-03-10T16:35:25.697564Z</time>
      </trkpt>
      <trkpt lat="44.46461" lon="1.66947">
        <ele>215.6</ele>
        <time>2021-03-10T16:35:43.165097Z</time>
      </trkpt>
      <trkpt lat="44.46473" lon="1.67008">
        <ele>204.9</ele>
        <time>2021-03-10T16:35:58.261174Z</time>
      </trkpt>
      <trkpt lat="44.46467" lon="1.67025">
        <ele>199.2</ele>
        <time>2021-03-10T16:36:02.785805Z</time>
      </trkpt>
      <trkpt lat="44.46455" lon="1.67031">
        <ele>196.6</ele>
        <time>2021-03-10T16:36:07.045023Z</time>
      </trkpt>
      <trkpt lat="44.46449" lon="1.67048">
        <ele>193.5</ele>
        <time>2021-03-10T16:36:11.569655Z</time>
      </trkpt>
      <trkpt lat="44.46431" lon="1.67133">
        <ele>181.1</ele>
        <time>2021-03-10T16:36:32.722837Z</time>
      </trkpt>
      <trkpt lat="44.46433" lon="1.67177">
        <ele>179</ele>
        <time>2021-03-10T16:36:43.24167Z</time>
      </trkpt>
      <trkpt lat="44.46442" lon="1.67207">
        <ele>174.6</ele>
        <time>2021-03-10T16:36:51.005776Z</time>
      </trkpt>
      <trkpt lat="44.46479" lon="1.67266">
        <ele>174.4</ele>
        <time>2021-03-10T16:37:09.744134Z</time>
      </trkpt>
      <trkpt lat="44.46505" lon="1.67319">
        <ele>181.2</ele>
        <time>2021-03-10T16:37:25.087881Z</time>
      </trkpt>
      <trkpt lat="44.46504" lon="1.67358">
        <ele>183.9</ele>
        <time>2021-03-10T16:37:34.398385Z</time>
      </trkpt>
      <trkpt lat="44.465" lon="1.6738">
        <ele>185.3</ele>
        <time>2021-03-10T16:37:39.814794Z</time>
      </trkpt>
      <trkpt lat="44.46518" lon="1.67512">
        <ele>178.8</ele>
        <time>2021-03-10T16:38:11.876693Z</time>
      </trkpt>
      <trkpt lat="44.46525" lon="1.67543">
        <ele>178.1</ele>
        <time>2021-03-10T16:38:19.633976Z</time>
      </trkpt>
      <trkpt lat="44.46541" lon="1.67592">
        <ele>175.9</ele>
        <time>2021-03-10T16:38:32.489677Z</time>
      </trkpt>
      <trkpt lat="44.46548" lon="1.67626">
        <ele>174.3</ele>
        <time>2021-03-10T16:38:40.932036Z</time>
      </trkpt>
      <trkpt lat="44.46554" lon="1.67646">
        <ele>173</ele>
        <time>2021-03-10T16:38:46.107888Z</time>
      </trkpt>
      <trkpt lat="44.46572" lon="1.67686">
        <ele>170.6</ele>
        <time>2021-03-10T16:38:57.389543Z</time>
      </trkpt>
      <trkpt lat="44.46579" lon="1.67718">
        <ele>169.1</ele>
        <time>2021-03-10T16:39:05.374455Z</time>
      </trkpt>
      <trkpt lat="44.46578" lon="1.67759">
        <ele>166.6</ele>
        <time>2021-03-10T16:39:15.161742Z</time>
      </trkpt>
      <trkpt lat="44.4658" lon="1.67795">
        <ele>163.8</ele>
        <time>2021-03-10T16:39:23.776408Z</time>
      </trkpt>
      <trkpt lat="44.46584" lon="1.67815">
        <ele>163.3</ele>
        <time>2021-03-10T16:39:28.73171Z</time>
      </trkpt>
      <trkpt lat="44.466" lon="1.67837">
        <ele>162.4</ele>
        <time>2021-03-10T16:39:36.225458Z</time>
      </trkpt>
      <trkpt lat="44.46672" lon="1.67904">
        <ele>156.3</ele>
        <time>2021-03-10T16:40:05.118714Z</time>
      </trkpt>
      <trkpt lat="44.46692" lon="1.67918">
        <ele>154.4</ele>
        <time>2021-03-10T16:40:12.592488Z</time>
      </trkpt>
      <trkpt lat="44.46705" lon="1.67921">
        <ele>153.7</ele>
        <time>2021-03-10T16:40:16.996879Z</time>
      </trkpt>
      <trkpt lat="44.46725" lon="1.67919">
        <ele>152.5</ele>
        <time>2021-03-10T16:40:23.699831Z</time>
      </trkpt>
      <trkpt lat="44.4675" lon="1.67909">
        <ele>151.6</ele>
        <time>2021-03-10T16:40:32.391033Z</time>
      </trkpt>
      <trkpt lat="44.4677" lon="1.6792">
        <ele>148.6</ele>
        <time>2021-03-10T16:40:39.5734Z</time>
      </trkpt>
      <trkpt lat="44.46787" lon="1.67941">
        <ele>147.4</ele>
        <time>2021-03-10T16:40:47.149365Z</time>
      </trkpt>
      <trkpt lat="44.46894" lon="1.68104">
        <ele>139.5</ele>
        <time>2021-03-10T16:41:39.984534Z</time>
      </trkpt>
      <trkpt lat="44.46905" lon="1.68129">
        <ele>139.3</ele>
        <time>2021-03-10T16:41:46.990995Z</time>
      </trkpt>
      <trkpt lat="44.46915" lon="1.68161">
        <ele>138.4</ele>
        <time>2021-03-10T16:41:55.324782Z</time>
      </trkpt>
      <trkpt lat="44.4706" lon="1.68659">
        <ele>137.6</ele>
        <time>2021-03-10T16:44:03.63465Z</time>
      </trkpt>
      <trkpt lat="44.47059" lon="1.68665">
        <ele>137.8</ele>
        <time>2021-03-10T16:44:05.104444Z</time>
      </trkpt>
      <trkpt lat="44.47063" lon="1.6867">
        <ele>137.8</ele>
        <time>2021-03-10T16:44:06.896857Z</time>
      </trkpt>
      <trkpt lat="44.47059" lon="1.68688">
        <ele>138</ele>
        <time>2021-03-10T16:44:11.394403Z</time>
      </trkpt>
      <trkpt lat="44.46882" lon="1.68969">
        <ele>138</ele>
        <time>2021-03-10T16:45:40.807731Z</time>
      </trkpt>
      <trkpt lat="44.46843" lon="1.6901">
        <ele>137.9</ele>
        <time>2021-03-10T16:45:57.106337Z</time>
      </trkpt>
      <trkpt lat="44.4673" lon="1.69084">
        <ele>138</ele>
        <time>2021-03-10T16:46:38.803061Z</time>
      </trkpt>
      <trkpt lat="44.4669" lon="1.69116">
        <ele>139</ele>
        <time>2021-03-10T16:46:54.200625Z</time>
      </trkpt>
      <trkpt lat="44.4666" lon="1.69113">
        <ele>139</ele>
        <time>2021-03-10T16:47:04.254932Z</time>
      </trkpt>
      <trkpt lat="44.46643" lon="1.69118">
        <ele>138.8</ele>
        <time>2021-03-10T16:47:10.061822Z</time>
      </trkpt>
      <trkpt lat="44.46632" lon="1.69127">
        <ele>138.5</ele>
        <time>2021-03-10T16:47:14.319892Z</time>
      </trkpt>
      <trkpt lat="44.46608" lon="1.69157">
        <ele>139</ele>
        <time>2021-03-10T16:47:25.07138Z</time>
      </trkpt>
      <trkpt lat="44.46588" lon="1.69174">
        <ele>139.1</ele>
        <time>2021-03-10T16:47:32.891207Z</time>
      </trkpt>
      <trkpt lat="44.46501" lon="1.69233">
        <ele>139.8</ele>
        <time>2021-03-10T16:48:05.201903Z</time>
      </trkpt>
      <trkpt lat="44.46467" lon="1.69262">
        <ele>139.2</ele>
        <time>2021-03-10T16:48:18.508088Z</time>
      </trkpt>
      <trkpt lat="44.4645" lon="1.69282">
        <ele>139.2</ele>
        <time>2021-03-10T16:48:25.928592Z</time>
      </trkpt>
      <trkpt lat="44.46416" lon="1.69328">
        <ele>138.8</ele>
        <time>2021-03-10T16:48:41.72824Z</time>
      </trkpt>
      <trkpt lat="44.46387" lon="1.69385">
        <ele>138.8</ele>
        <time>2021-03-10T16:48:58.429112Z</time>
      </trkpt>
      <trkpt lat="44.46367" lon="1.69443">
        <ele>139</ele>
        <time>2021-03-10T16:49:13.797446Z</time>
      </trkpt>
      <trkpt lat="44.46351" lon="1.6951">
        <ele>139</ele>
        <time>2021-03-10T16:49:30.653676Z</time>
      </trkpt>
      <trkpt lat="44.46215" lon="1.70195">
        <ele>139.5</ele>
        <time>2021-03-10T16:52:20.291165Z</time>
      </trkpt>
      <trkpt lat="44.46209" lon="1.70239">
        <ele>139.3</ele>
        <time>2021-03-10T16:52:30.979011Z</time>
      </trkpt>
      <trkpt lat="44.46207" lon="1.70296">
        <ele>138</ele>
        <time>2021-03-10T16:52:44.59497Z</time>
      </trkpt>
      <trkpt lat="44.46209" lon="1.7036">
        <ele>138.5</ele>
        <time>2021-03-10T16:52:59.879274Z</time>
      </trkpt>
      <trkpt lat="44.46215" lon="1.70434">
        <ele>138.2</ele>
        <time>2021-03-10T16:53:17.648446Z</time>
      </trkpt>
      <trkpt lat="44.46223" lon="1.70465">
        <ele>138.4</ele>
        <time>2021-03-10T16:53:25.513353Z</time>
      </trkpt>
      <trkpt lat="44.46307" lon="1.70705">
        <ele>138.9</ele>
        <time>2021-03-10T16:54:29.288985Z</time>
      </trkpt>
      <trkpt lat="44.46427" lon="1.70975">
        <ele>138.7</ele>
        <time>2021-03-10T16:55:45.17591Z</time>
      </trkpt>
      <trkpt lat="44.46585" lon="1.71343">
        <ele>139</ele>
        <time>2021-03-10T16:57:27.635584Z</time>
      </trkpt>
      <trkpt lat="44.46599" lon="1.71381">
        <ele>138.8</ele>
        <time>2021-03-10T16:57:37.838195Z</time>
      </trkpt>
      <trkpt lat="44.46665" lon="1.71527">
        <ele>139.8</ele>
        <time>2021-03-10T16:58:19.069571Z</time>
      </trkpt>
      <trkpt lat="44.46688" lon="1.7156">
        <ele>139.3</ele>
        <time>2021-03-10T16:58:30.074019Z</time>
      </trkpt>
      <trkpt lat="44.46787" lon="1.71675">
        <ele>140.8</ele>
        <time>2021-03-10T16:59:13.062077Z</time>
      </trkpt>
      <trkpt lat="44.46827" lon="1.71739">
        <ele>140.4</ele>
        <time>2021-03-10T16:59:33.357863Z</time>
      </trkpt>
      <trkpt lat="44.46851" lon="1.71802">
        <ele>140.4</ele>
        <time>2021-03-10T16:59:50.394758Z</time>
      </trkpt>
      <trkpt lat="44.46861" lon="1.71847">
        <ele>140</ele>
        <time>2021-03-10T17:00:01.638549Z</time>
      </trkpt>
      <trkpt lat="44.46872" lon="1.71942">
        <ele>140</ele>
        <time>2021-03-10T17:00:24.598389Z</time>
      </trkpt>
      <trkpt lat="44.46883" lon="1.71992">
        <ele>141.6</ele>
        <time>2021-03-10T17:00:37.080451Z</time>
      </trkpt>
      <trkpt lat="44.46891" lon="1.72015">
        <ele>141.2</ele>
        <time>2021-03-10T17:00:43.184363Z</time>
      </trkpt>
      <trkpt lat="44.46925" lon="1.7208">
        <ele>140.5</ele>
        <time>2021-03-10T17:01:02.410241Z</time>
      </trkpt>
      <trkpt lat="44.46932" lon="1.72102">
        <ele>140.2</ele>
        <time>2021-03-10T17:01:08.156708Z</time>
      </trkpt>
      <trkpt lat="44.46941" lon="1.72143">
        <ele>140</ele>
        <time>2021-03-10T17:01:18.389933Z</time>
      </trkpt>
      <trkpt lat="44.46945" lon="1.72178">
        <ele>140.1</ele>
        <time>2021-03-10T17:01:26.845934Z</time>
      </trkpt>
      <trkpt lat="44.46946" lon="1.72225">
        <ele>140.2</ele>
        <time>2021-03-10T17:01:38.063178Z</time>
      </trkpt>
      <trkpt lat="44.46939" lon="1.72295">
        <ele>141.4</ele>
        <time>2021-03-10T17:01:54.925496Z</time>
      </trkpt>
      <trkpt lat="44.46916" lon="1.72398">
        <ele>140.5</ele>
        <time>2021-03-10T17:02:20.672057Z</time>
      </trkpt>
      <trkpt lat="44.46745" lon="1.72969">
        <ele>139.6</ele>
        <time>2021-03-10T17:04:48.400312Z</time>
      </trkpt>
      <trkpt lat="44.46676" lon="1.73159">
        <ele>140.6</ele>
        <time>2021-03-10T17:05:39.259797Z</time>
      </trkpt>
      <trkpt lat="44.46653" lon="1.73206">
        <ele>141.9</ele>
        <time>2021-03-10T17:05:52.855549Z</time>
      </trkpt>
      <trkpt lat="44.46322" lon="1.73663">
        <ele>141.6</ele>
        <time>2021-03-10T17:08:28.197757Z</time>
      </trkpt>
      <trkpt lat="44.46289" lon="1.73725">
        <ele>141.5</ele>
        <time>2021-03-10T17:08:46.650679Z</time>
      </trkpt>
      <trkpt lat="44.46271" lon="1.73786">
        <ele>140.8</ele>
        <time>2021-03-10T17:09:02.399332Z</time>
      </trkpt>
      <trkpt lat="44.46254" lon="1.7386">
        <ele>141.1</ele>
        <time>2021-03-10T17:09:20.946877Z</time>
      </trkpt>
      <trkpt lat="44.4625" lon="1.7391">
        <ele>141.8</ele>
        <time>2021-03-10T17:09:32.95102Z</time>
      </trkpt>
      <trkpt lat="44.46254" lon="1.73958">
        <ele>141.9</ele>
        <time>2021-03-10T17:09:44.481033Z</time>
      </trkpt>
      <trkpt lat="44.46269" lon="1.74004">
        <ele>141.6</ele>
        <time>2021-03-10T17:09:56.547345Z</time>
      </trkpt>
      <trkpt lat="44.46202" lon="1.74185">
        <ele>137.5</ele>
        <time>2021-03-10T17:10:45.194583Z</time>
      </trkpt>
      <trkpt lat="44.46197" lon="1.74219">
        <ele>140.4</ele>
        <time>2021-03-10T17:10:53.477042Z</time>
      </trkpt>
      <trkpt lat="44.46212" lon="1.74305">
        <ele>137</ele>
        <time>2021-03-10T17:11:14.599548Z</time>
      </trkpt>
      <trkpt lat="44.46225" lon="1.74443">
        <ele>141.3</ele>
        <time>2021-03-10T17:11:47.8104Z</time>
      </trkpt>
      <trkpt lat="44.46232" lon="1.74478">
        <ele>142.7</ele>
        <time>2021-03-10T17:11:56.482743Z</time>
      </trkpt>
      <trkpt lat="44.46284" lon="1.74662">
        <ele>144.3</ele>
        <time>2021-03-10T17:12:43.6992Z</time>
      </trkpt>
      <trkpt lat="44.46288" lon="1.7469">
        <ele>144.9</ele>
        <time>2021-03-10T17:12:50.512083Z</time>
      </trkpt>
      <trkpt lat="44.46285" lon="1.74718">
        <ele>145</ele>
        <time>2021-03-10T17:12:57.267331Z</time>
      </trkpt>
      <trkpt lat="44.4628" lon="1.74729">
        <ele>145</ele>
        <time>2021-03-10T17:13:00.378958Z</time>
      </trkpt>
      <trkpt lat="44.46242" lon="1.7479">
        <ele>146</ele>
        <time>2021-03-10T17:13:19.696917Z</time>
      </trkpt>
      <trkpt lat="44.46214" lon="1.74828">
        <ele>146</ele>
        <time>2021-03-10T17:13:32.728174Z</time>
      </trkpt>
      <trkpt lat="44.46243" lon="1.74887">
        <ele>145.9</ele>
        <time>2021-03-10T17:13:49.82018Z</time>
      </trkpt>
      <trkpt lat="44.46253" lon="1.74913">
        <ele>146.9</ele>
        <time>2021-03-10T17:13:56.866868Z</time>
      </trkpt>
      <trkpt lat="44.46265" lon="1.74963">
        <ele>149.3</ele>
        <time>2021-03-10T17:14:09.452624Z</time>
      </trkpt>
      <trkpt lat="44.46281" lon="1.74983">
        <ele>150.3</ele>
        <time>2021-03-10T17:14:16.620402Z</time>
      </trkpt>
      <trkpt lat="44.46297" lon="1.74989">
        <ele>151.9</ele>
        <time>2021-03-10T17:14:22.157363Z</time>
      </trkpt>
      <trkpt lat="44.46309" lon="1.74988">
        <ele>152.7</ele>
        <time>2021-03-10T17:14:26.175977Z</time>
      </trkpt>
      <trkpt lat="44.46327" lon="1.74981">
        <ele>153.8</ele>
        <time>2021-03-10T17:14:32.420727Z</time>
      </trkpt>
      <trkpt lat="44.4638" lon="1.74948">
        <ele>156.1</ele>
        <time>2021-03-10T17:14:51.80881Z</time>
      </trkpt>
      <trkpt lat="44.46404" lon="1.74947">
        <ele>158</ele>
        <time>2021-03-10T17:14:59.83539Z</time>
      </trkpt>
      <trkpt lat="44.46413" lon="1.74952">
        <ele>159</ele>
        <time>2021-03-10T17:15:03.071873Z</time>
      </trkpt>
      <trkpt lat="44.46425" lon="1.74966">
        <ele>160</ele>
        <time>2021-03-10T17:15:08.29184Z</time>
      </trkpt>
      <trkpt lat="44.46468" lon="1.75041">
        <ele>163</ele>
        <time>2021-03-10T17:15:31.244086Z</time>
      </trkpt>
      <trkpt lat="44.46475" lon="1.75071">
        <ele>165.2</ele>
        <time>2021-03-10T17:15:38.774269Z</time>
      </trkpt>
      <trkpt lat="44.46467" lon="1.75101">
        <ele>167.1</ele>
        <time>2021-03-10T17:15:46.414955Z</time>
      </trkpt>
      <trkpt lat="44.46451" lon="1.7512">
        <ele>167.8</ele>
        <time>2021-03-10T17:15:53.426065Z</time>
      </trkpt>
      <trkpt lat="44.46284" lon="1.75261">
        <ele>175.5</ele>
        <time>2021-03-10T17:16:58.605079Z</time>
      </trkpt>
      <trkpt lat="44.46269" lon="1.75277">
        <ele>180.1</ele>
        <time>2021-03-10T17:17:04.907157Z</time>
      </trkpt>
      <trkpt lat="44.46209" lon="1.75099">
        <ele>170.8</ele>
        <time>2021-03-10T17:17:51.874125Z</time>
      </trkpt>
      <trkpt lat="44.46269" lon="1.75277">
        <ele>180.1</ele>
        <time>2021-03-10T17:18:38.841094Z</time>
      </trkpt>
      <trkpt lat="44.46284" lon="1.75261">
        <ele>175.5</ele>
        <time>2021-03-10T17:18:45.143172Z</time>
      </trkpt>
      <trkpt lat="44.46451" lon="1.7512">
        <ele>167.8</ele>
        <time>2021-03-10T17:19:50.322186Z</time>
      </trkpt>
      <trkpt lat="44.46467" lon="1.75101">
        <ele>167.1</ele>
        <time>2021-03-10T17:19:57.333296Z</time>
      </trkpt>
      <trkpt lat="44.46475" lon="1.75071">
        <ele>165.2</ele>
        <time>2021-03-10T17:20:04.973982Z</time>
      </trkpt>
      <trkpt lat="44.46468" lon="1.75041">
        <ele>163</ele>
        <time>2021-03-10T17:20:12.504165Z</time>
      </trkpt>
      <trkpt lat="44.46425" lon="1.74966">
        <ele>160</ele>
        <time>2021-03-10T17:20:35.456411Z</time>
      </trkpt>
      <trkpt lat="44.46413" lon="1.74952">
        <ele>159</ele>
        <time>2021-03-10T17:20:40.676378Z</time>
      </trkpt>
      <trkpt lat="44.46404" lon="1.74947">
        <ele>158</ele>
        <time>2021-03-10T17:20:43.912861Z</time>
      </trkpt>
      <trkpt lat="44.4638" lon="1.74948">
        <ele>156.1</ele>
        <time>2021-03-10T17:20:51.939441Z</time>
      </trkpt>
      <trkpt lat="44.46327" lon="1.74981">
        <ele>153.8</ele>
        <time>2021-03-10T17:21:11.327524Z</time>
      </trkpt>
      <trkpt lat="44.46309" lon="1.74988">
        <ele>152.7</ele>
        <time>2021-03-10T17:21:17.572274Z</time>
      </trkpt>
      <trkpt lat="44.46297" lon="1.74989">
        <ele>151.9</ele>
        <time>2021-03-10T17:21:21.590888Z</time>
      </trkpt>
      <trkpt lat="44.46281" lon="1.74983">
        <ele>150.3</ele>
        <time>2021-03-10T17:21:27.127849Z</time>
      </trkpt>
      <trkpt lat="44.46265" lon="1.74963">
        <ele>149.3</ele>
        <time>2021-03-10T17:21:34.295627Z</time>
      </trkpt>
      <trkpt lat="44.46253" lon="1.74913">
        <ele>146.9</ele>
        <time>2021-03-10T17:21:46.881383Z</time>
      </trkpt>
      <trkpt lat="44.46243" lon="1.74887">
        <ele>145.9</ele>
        <time>2021-03-10T17:21:53.928071Z</time>
      </trkpt>
      <trkpt lat="44.46214" lon="1.74828">
        <ele>146</ele>
        <time>2021-03-10T17:22:11.020077Z</time>
      </trkpt>
      <trkpt lat="44.46242" lon="1.7479">
        <ele>146</ele>
        <time>2021-03-10T17:22:24.051334Z</time>
      </trkpt>
      <trkpt lat="44.4628" lon="1.74729">
        <ele>145</ele>
        <time>2021-03-10T17:22:43.369293Z</time>
      </trkpt>
      <trkpt lat="44.46285" lon="1.74718">
        <ele>145</ele>
        <time>2021-03-10T17:22:46.48092Z</time>
      </trkpt>
      <trkpt lat="44.46288" lon="1.7469">
        <ele>144.9</ele>
        <time>2021-03-10T17:22:53.236168Z</time>
      </trkpt>
      <trkpt lat="44.46284" lon="1.74662">
        <ele>144.3</ele>
        <time>2021-03-10T17:23:00.049051Z</time>
      </trkpt>
      <trkpt lat="44.46232" lon="1.74478">
        <ele>142.7</ele>
        <time>2021-03-10T17:23:47.265508Z</time>
      </trkpt>
      <trkpt lat="44.46225" lon="1.74443">
        <ele>141.3</ele>
        <time>2021-03-10T17:23:55.937851Z</time>
      </trkpt>
      <trkpt lat="44.46212" lon="1.74305">
        <ele>137</ele>
        <time>2021-03-10T17:24:29.148703Z</time>
      </trkpt>
      <trkpt lat="44.46197" lon="1.74219">
        <ele>140.4</ele>
        <time>2021-03-10T17:24:50.271209Z</time>
      </trkpt>
      <trkpt lat="44.46202" lon="1.74185">
        <ele>137.5</ele>
        <time>2021-03-10T17:24:58.553668Z</time>
      </trkpt>
      <trkpt lat="44.46267" lon="1.74012">
        <ele>141.1</ele>
        <time>2021-03-10T17:25:45.199588Z</time>
      </trkpt>
      <trkpt lat="44.4627" lon="1.74016">
        <ele>141.2</ele>
        <time>2021-03-10T17:25:46.583754Z</time>
      </trkpt>
      <trkpt lat="44.46274" lon="1.74014">
        <ele>141.7</ele>
        <time>2021-03-10T17:25:48.003366Z</time>
      </trkpt>
      <trkpt lat="44.46278" lon="1.74017">
        <ele>141.9</ele>
        <time>2021-03-10T17:25:49.520074Z</time>
      </trkpt>
      <trkpt lat="44.4631" lon="1.74051">
        <ele>146.4</ele>
        <time>2021-03-10T17:26:02.945348Z</time>
      </trkpt>
      <trkpt lat="44.46387" lon="1.74123">
        <ele>142.2</ele>
        <time>2021-03-10T17:26:33.891438Z</time>
      </trkpt>
      <trkpt lat="44.46671" lon="1.74325">
        <ele>157</ele>
        <time>2021-03-10T17:28:20.361861Z</time>
      </trkpt>
      <trkpt lat="44.46697" lon="1.74348">
        <ele>160.4</ele>
        <time>2021-03-10T17:28:30.640597Z</time>
      </trkpt>
      <trkpt lat="44.46803" lon="1.74476">
        <ele>140.9</ele>
        <time>2021-03-10T17:29:17.418004Z</time>
      </trkpt>
      <trkpt lat="44.46832" lon="1.74521">
        <ele>144.2</ele>
        <time>2021-03-10T17:29:31.882819Z</time>
      </trkpt>
      <trkpt lat="44.46904" lon="1.7469">
        <ele>144.3</ele>
        <time>2021-03-10T17:30:18.837966Z</time>
      </trkpt>
      <trkpt lat="44.46922" lon="1.7477">
        <ele>141</ele>
        <time>2021-03-10T17:30:38.848937Z</time>
      </trkpt>
      <trkpt lat="44.46923" lon="1.74881">
        <ele>140.4</ele>
        <time>2021-03-10T17:31:05.331234Z</time>
      </trkpt>
      <trkpt lat="44.4691" lon="1.75077">
        <ele>142.4</ele>
        <time>2021-03-10T17:31:52.290631Z</time>
      </trkpt>
      <trkpt lat="44.46868" lon="1.75425">
        <ele>143.1</ele>
        <time>2021-03-10T17:33:16.488969Z</time>
      </trkpt>
      <trkpt lat="44.4679" lon="1.75852">
        <ele>142.6</ele>
        <time>2021-03-10T17:35:01.640085Z</time>
      </trkpt>
      <trkpt lat="44.4676" lon="1.75997">
        <ele>143.4</ele>
        <time>2021-03-10T17:35:37.656621Z</time>
      </trkpt>
      <trkpt lat="44.46717" lon="1.76159">
        <ele>143.6</ele>
        <time>2021-03-10T17:36:18.891257Z</time>
      </trkpt>
      <trkpt lat="44.46669" lon="1.76316">
        <ele>143.5</ele>
        <time>2021-03-10T17:36:59.63908Z</time>
      </trkpt>
      <trkpt lat="44.46661" lon="1.76388">
        <ele>143.2</ele>
        <time>2021-03-10T17:37:17.023124Z</time>
      </trkpt>
      <trkpt lat="44.46668" lon="1.76459">
        <ele>142.8</ele>
        <time>2021-03-10T17:37:34.122516Z</time>
      </trkpt>
      <trkpt lat="44.46675" lon="1.76491">
        <ele>142.7</ele>
        <time>2021-03-10T17:37:42.107275Z</time>
      </trkpt>
      <trkpt lat="44.46687" lon="1.76517">
        <ele>142.7</ele>
        <time>2021-03-10T17:37:49.494277Z</time>
      </trkpt>
      <trkpt lat="44.46709" lon="1.76547">
        <ele>143.7</ele>
        <time>2021-03-10T17:37:59.756437Z</time>
      </trkpt>
      <trkpt lat="44.46798" lon="1.7665">
        <ele>141.4</ele>
        <time>2021-03-10T17:38:38.343864Z</time>
      </trkpt>
      <trkpt lat="44.46839" lon="1.76682">
        <ele>141.8</ele>
        <time>2021-03-10T17:38:54.032557Z</time>
      </trkpt>
      <trkpt lat="44.46956" lon="1.76747">
        <ele>144</ele>
        <time>2021-03-10T17:39:36.106535Z</time>
      </trkpt>
      <trkpt lat="44.46983" lon="1.76769">
        <ele>144.8</ele>
        <time>2021-03-10T17:39:46.547406Z</time>
      </trkpt>
      <trkpt lat="44.47104" lon="1.76896">
        <ele>144.3</ele>
        <time>2021-03-10T17:40:37.084884Z</time>
      </trkpt>
      <trkpt lat="44.47161" lon="1.7696">
        <ele>144.2</ele>
        <time>2021-03-10T17:41:01.501536Z</time>
      </trkpt>
      <trkpt lat="44.4719" lon="1.77001">
        <ele>146.1</ele>
        <time>2021-03-10T17:41:15.272578Z</time>
      </trkpt>
      <trkpt lat="44.47205" lon="1.77029">
        <ele>145.5</ele>
        <time>2021-03-10T17:41:23.624672Z</time>
      </trkpt>
      <trkpt lat="44.47246" lon="1.77123">
        <ele>143.5</ele>
        <time>2021-03-10T17:41:49.905247Z</time>
      </trkpt>
      <trkpt lat="44.47259" lon="1.77158">
        <ele>145.7</ele>
        <time>2021-03-10T17:41:59.317733Z</time>
      </trkpt>
      <trkpt lat="44.47398" lon="1.77478">
        <ele>153.4</ele>
        <time>2021-03-10T17:43:28.682326Z</time>
      </trkpt>
      <trkpt lat="44.47473" lon="1.77581">
        <ele>148.5</ele>
        <time>2021-03-10T17:44:03.785978Z</time>
      </trkpt>
      <trkpt lat="44.47478" lon="1.77596">
        <ele>149.8</ele>
        <time>2021-03-10T17:44:07.735174Z</time>
      </trkpt>
      <trkpt lat="44.47515" lon="1.77773">
        <ele>139.4</ele>
        <time>2021-03-10T17:44:51.73066Z</time>
      </trkpt>
      <trkpt lat="44.47517" lon="1.77812">
        <ele>140.5</ele>
        <time>2021-03-10T17:45:01.057554Z</time>
      </trkpt>
      <trkpt lat="44.47511" lon="1.7785">
        <ele>145.5</ele>
        <time>2021-03-10T17:45:10.341203Z</time>
      </trkpt>
      <trkpt lat="44.47493" lon="1.77921">
        <ele>149.4</ele>
        <time>2021-03-10T17:45:28.314465Z</time>
      </trkpt>
      <trkpt lat="44.47468" lon="1.77995">
        <ele>152.5</ele>
        <time>2021-03-10T17:45:47.844668Z</time>
      </trkpt>
      <trkpt lat="44.47455" lon="1.78023">
        <ele>151.6</ele>
        <time>2021-03-10T17:45:55.813139Z</time>
      </trkpt>
      <trkpt lat="44.47434" lon="1.78058">
        <ele>153.6</ele>
        <time>2021-03-10T17:46:06.721193Z</time>
      </trkpt>
      <trkpt lat="44.47352" lon="1.78182">
        <ele>150.6</ele>
        <time>2021-03-10T17:46:47.0491Z</time>
      </trkpt>
      <trkpt lat="44.47312" lon="1.78237">
        <ele>146.1</ele>
        <time>2021-03-10T17:47:05.78235Z</time>
      </trkpt>
      <trkpt lat="44.47302" lon="1.78255">
        <ele>145.8</ele>
        <time>2021-03-10T17:47:11.224041Z</time>
      </trkpt>
      <trkpt lat="44.47296" lon="1.78295">
        <ele>145.9</ele>
        <time>2021-03-10T17:47:20.974387Z</time>
      </trkpt>
      <trkpt lat="44.47284" lon="1.78325">
        <ele>142.6</ele>
        <time>2021-03-10T17:47:29.178383Z</time>
      </trkpt>
      <trkpt lat="44.47247" lon="1.78345">
        <ele>147.5</ele>
        <time>2021-03-10T17:47:42.435441Z</time>
      </trkpt>
      <trkpt lat="44.47089" lon="1.78418">
        <ele>147.1</ele>
        <time>2021-03-10T17:48:38.050385Z</time>
      </trkpt>
      <trkpt lat="44.47045" lon="1.78432">
        <ele>146</ele>
        <time>2021-03-10T17:48:53.133667Z</time>
      </trkpt>
      <trkpt lat="44.46932" lon="1.78448">
        <ele>147.1</ele>
        <time>2021-03-10T17:49:31.101098Z</time>
      </trkpt>
      <trkpt lat="44.46694" lon="1.78458">
        <ele>149.4</ele>
        <time>2021-03-10T17:50:50.698535Z</time>
      </trkpt>
      <trkpt lat="44.4666" lon="1.78475">
        <ele>150.3</ele>
        <time>2021-03-10T17:51:02.766433Z</time>
      </trkpt>
      <trkpt lat="44.46431" lon="1.78626">
        <ele>153.9</ele>
        <time>2021-03-10T17:52:27.372364Z</time>
      </trkpt>
      <trkpt lat="44.46387" lon="1.78652">
        <ele>154.2</ele>
        <time>2021-03-10T17:52:43.335761Z</time>
      </trkpt>
      <trkpt lat="44.46366" lon="1.78674">
        <ele>154.9</ele>
        <time>2021-03-10T17:52:52.101158Z</time>
      </trkpt>
      <trkpt lat="44.46347" lon="1.78715">
        <ele>154.8</ele>
        <time>2021-03-10T17:53:03.764284Z</time>
      </trkpt>
      <trkpt lat="44.46334" lon="1.78777">
        <ele>156.1</ele>
        <time>2021-03-10T17:53:19.181674Z</time>
      </trkpt>
      <trkpt lat="44.46333" lon="1.78824">
        <ele>155.9</ele>
        <time>2021-03-10T17:53:30.40008Z</time>
      </trkpt>
      <trkpt lat="44.46344" lon="1.78866">
        <ele>157</ele>
        <time>2021-03-10T17:53:41.074008Z</time>
      </trkpt>
      <trkpt lat="44.46366" lon="1.78906">
        <ele>157.6</ele>
        <time>2021-03-10T17:53:53.122382Z</time>
      </trkpt>
      <trkpt lat="44.46383" lon="1.78921">
        <ele>158</ele>
        <time>2021-03-10T17:53:59.838325Z</time>
      </trkpt>
      <trkpt lat="44.46408" lon="1.78932">
        <ele>157.1</ele>
        <time>2021-03-10T17:54:08.598052Z</time>
      </trkpt>
      <trkpt lat="44.46586" lon="1.78975">
        <ele>160.2</ele>
        <time>2021-03-10T17:55:08.980037Z</time>
      </trkpt>
      <trkpt lat="44.46676" lon="1.78992">
        <ele>161.9</ele>
        <time>2021-03-10T17:55:39.338523Z</time>
      </trkpt>
      <trkpt lat="44.46718" lon="1.79008">
        <ele>161.1</ele>
        <time>2021-03-10T17:55:53.888462Z</time>
      </trkpt>
      <trkpt lat="44.46821" lon="1.7906">
        <ele>161.8</ele>
        <time>2021-03-10T17:56:30.487207Z</time>
      </trkpt>
      <trkpt lat="44.4688" lon="1.79095">
        <ele>163.2</ele>
        <time>2021-03-10T17:56:51.905081Z</time>
      </trkpt>
      <trkpt lat="44.47003" lon="1.79191">
        <ele>164.6</ele>
        <time>2021-03-10T17:57:38.97078Z</time>
      </trkpt>
      <trkpt lat="44.47055" lon="1.79216">
        <ele>165.4</ele>
        <time>2021-03-10T17:57:57.348637Z</time>
      </trkpt>
      <trkpt lat="44.47112" lon="1.79236">
        <ele>164.2</ele>
        <time>2021-03-10T17:58:16.991567Z</time>
      </trkpt>
      <trkpt lat="44.47146" lon="1.79244">
        <ele>166.4</ele>
        <time>2021-03-10T17:58:28.516634Z</time>
      </trkpt>
      <trkpt lat="44.47218" lon="1.79249">
        <ele>167.9</ele>
        <time>2021-03-10T17:58:52.615258Z</time>
      </trkpt>
      <trkpt lat="44.47282" lon="1.79272">
        <ele>169.8</ele>
        <time>2021-03-10T17:59:14.702295Z</time>
      </trkpt>
      <trkpt lat="44.47306" lon="1.79277">
        <ele>168.6</ele>
        <time>2021-03-10T17:59:22.813575Z</time>
      </trkpt>
      <trkpt lat="44.47393" lon="1.79278">
        <ele>169.2</ele>
        <time>2021-03-10T17:59:51.898024Z</time>
      </trkpt>
      <trkpt lat="44.47422" lon="1.79283">
        <ele>169.6</ele>
        <time>2021-03-10T18:00:01.665607Z</time>
      </trkpt>
      <trkpt lat="44.47623" lon="1.79352">
        <ele>173.2</ele>
        <time>2021-03-10T18:01:10.844908Z</time>
      </trkpt>
      <trkpt lat="44.47639" lon="1.79361">
        <ele>172.1</ele>
        <time>2021-03-10T18:01:16.608361Z</time>
      </trkpt>
      <trkpt lat="44.47676" lon="1.79386">
        <ele>176.8</ele>
        <time>2021-03-10T18:01:30.339654Z</time>
      </trkpt>
      <trkpt lat="44.47756" lon="1.79465">
        <ele>177.7</ele>
        <time>2021-03-10T18:02:03.055027Z</time>
      </trkpt>
      <trkpt lat="44.4778" lon="1.79475">
        <ele>172.2</ele>
        <time>2021-03-10T18:02:11.425096Z</time>
      </trkpt>
      <trkpt lat="44.4782" lon="1.79484">
        <ele>175.7</ele>
        <time>2021-03-10T18:02:24.96805Z</time>
      </trkpt>
      <trkpt lat="44.47854" lon="1.795">
        <ele>175.2</ele>
        <time>2021-03-10T18:02:36.957663Z</time>
      </trkpt>
      <trkpt lat="44.47877" lon="1.79524">
        <ele>180.5</ele>
        <time>2021-03-10T18:02:46.543458Z</time>
      </trkpt>
      <trkpt lat="44.47933" lon="1.79624">
        <ele>181.4</ele>
        <time>2021-03-10T18:03:16.864597Z</time>
      </trkpt>
      <trkpt lat="44.47973" lon="1.79683">
        <ele>179.9</ele>
        <time>2021-03-10T18:03:36.276992Z</time>
      </trkpt>
      <trkpt lat="44.47997" lon="1.79738">
        <ele>179.8</ele>
        <time>2021-03-10T18:03:51.654281Z</time>
      </trkpt>
      <trkpt lat="44.48003" lon="1.79759">
        <ele>176.9</ele>
        <time>2021-03-10T18:03:57.04982Z</time>
      </trkpt>
      <trkpt lat="44.48037" lon="1.79937">
        <ele>172</ele>
        <time>2021-03-10T18:04:41.000642Z</time>
      </trkpt>
      <trkpt lat="44.4804" lon="1.79961">
        <ele>170.9</ele>
        <time>2021-03-10T18:04:46.81216Z</time>
      </trkpt>
      <trkpt lat="44.48037" lon="1.80011">
        <ele>183</ele>
        <time>2021-03-10T18:04:58.779978Z</time>
      </trkpt>
      <trkpt lat="44.48024" lon="1.80081">
        <ele>178.8</ele>
        <time>2021-03-10T18:05:16.03232Z</time>
      </trkpt>
      <trkpt lat="44.4801" lon="1.80135">
        <ele>180.2</ele>
        <time>2021-03-10T18:05:29.736119Z</time>
      </trkpt>
      <trkpt lat="44.47902" lon="1.80399">
        <ele>178.1</ele>
        <time>2021-03-10T18:06:42.320803Z</time>
      </trkpt>
      <trkpt lat="44.47873" lon="1.80456">
        <ele>179.3</ele>
        <time>2021-03-10T18:06:59.018895Z</time>
      </trkpt>
      <trkpt lat="44.47747" lon="1.80629">
        <ele>178.7</ele>
        <time>2021-03-10T18:07:57.98448Z</time>
      </trkpt>
      <trkpt lat="44.47694" lon="1.80711">
        <ele>178.6</ele>
        <time>2021-03-10T18:08:24.375294Z</time>
      </trkpt>
      <trkpt lat="44.47679" lon="1.80753">
        <ele>178.3</ele>
        <time>2021-03-10T18:08:35.578368Z</time>
      </trkpt>
      <trkpt lat="44.47661" lon="1.80823">
        <ele>178.1</ele>
        <time>2021-03-10T18:08:53.326601Z</time>
      </trkpt>
      <trkpt lat="44.47655" lon="1.80869">
        <ele>178.8</ele>
        <time>2021-03-10T18:09:04.48078Z</time>
      </trkpt>
      <trkpt lat="44.47646" lon="1.81048">
        <ele>178.8</ele>
        <time>2021-03-10T18:09:47.283617Z</time>
      </trkpt>
      <trkpt lat="44.47651" lon="1.81088">
        <ele>177.5</ele>
        <time>2021-03-10T18:09:56.970177Z</time>
      </trkpt>
      <trkpt lat="44.47669" lon="1.81135">
        <ele>179.3</ele>
        <time>2021-03-10T18:10:09.693878Z</time>
      </trkpt>
      <trkpt lat="44.47684" lon="1.81197">
        <ele>176.8</ele>
        <time>2021-03-10T18:10:25.309711Z</time>
      </trkpt>
      <trkpt lat="44.47693" lon="1.81256">
        <ele>178.5</ele>
        <time>2021-03-10T18:10:39.700932Z</time>
      </trkpt>
      <trkpt lat="44.47692" lon="1.81279">
        <ele>177.9</ele>
        <time>2021-03-10T18:10:45.197361Z</time>
      </trkpt>
      <trkpt lat="44.47689" lon="1.81288">
        <ele>176.6</ele>
        <time>2021-03-10T18:10:47.566782Z</time>
      </trkpt>
      <trkpt lat="44.47677" lon="1.81306">
        <ele>176.6</ele>
        <time>2021-03-10T18:10:53.442701Z</time>
      </trkpt>
      <trkpt lat="44.47608" lon="1.81355">
        <ele>178.6</ele>
        <time>2021-03-10T18:11:19.301147Z</time>
      </trkpt>
      <trkpt lat="44.47552" lon="1.81357">
        <ele>179</ele>
        <time>2021-03-10T18:11:38.027634Z</time>
      </trkpt>
      <trkpt lat="44.47537" lon="1.81364">
        <ele>179.2</ele>
        <time>2021-03-10T18:11:43.312737Z</time>
      </trkpt>
      <trkpt lat="44.47513" lon="1.81391">
        <ele>180.5</ele>
        <time>2021-03-10T18:11:53.601018Z</time>
      </trkpt>
      <trkpt lat="44.47486" lon="1.81454">
        <ele>180.7</ele>
        <time>2021-03-10T18:12:11.131046Z</time>
      </trkpt>
      <trkpt lat="44.47479" lon="1.8148">
        <ele>180.5</ele>
        <time>2021-03-10T18:12:17.759821Z</time>
      </trkpt>
      <trkpt lat="44.47477" lon="1.81544">
        <ele>179</ele>
        <time>2021-03-10T18:12:33.040874Z</time>
      </trkpt>
      <trkpt lat="44.47486" lon="1.81608">
        <ele>179</ele>
        <time>2021-03-10T18:12:48.600921Z</time>
      </trkpt>
      <trkpt lat="44.47505" lon="1.81659">
        <ele>180.2</ele>
        <time>2021-03-10T18:13:02.32459Z</time>
      </trkpt>
      <trkpt lat="44.47512" lon="1.8167">
        <ele>180.3</ele>
        <time>2021-03-10T18:13:05.840354Z</time>
      </trkpt>
      <trkpt lat="44.47526" lon="1.81682">
        <ele>181.3</ele>
        <time>2021-03-10T18:13:11.326324Z</time>
      </trkpt>
      <trkpt lat="44.47554" lon="1.81699">
        <ele>179</ele>
        <time>2021-03-10T18:13:21.527179Z</time>
      </trkpt>
      <trkpt lat="44.47578" lon="1.81744">
        <ele>184.3</ele>
        <time>2021-03-10T18:13:34.928221Z</time>
      </trkpt>
      <trkpt lat="44.47619" lon="1.81798">
        <ele>181.6</ele>
        <time>2021-03-10T18:13:53.736958Z</time>
      </trkpt>
      <trkpt lat="44.47638" lon="1.81855">
        <ele>183.9</ele>
        <time>2021-03-10T18:14:08.743682Z</time>
      </trkpt>
      <trkpt lat="44.47723" lon="1.82036">
        <ele>184.4</ele>
        <time>2021-03-10T18:15:00.429109Z</time>
      </trkpt>
      <trkpt lat="44.47728" lon="1.82053">
        <ele>187.5</ele>
        <time>2021-03-10T18:15:04.814966Z</time>
      </trkpt>
      <trkpt lat="44.47738" lon="1.82103">
        <ele>177.4</ele>
        <time>2021-03-10T18:15:17.200987Z</time>
      </trkpt>
      <trkpt lat="44.47779" lon="1.82375">
        <ele>179.4</ele>
        <time>2021-03-10T18:16:23.512015Z</time>
      </trkpt>
      <trkpt lat="44.4779" lon="1.82483">
        <ele>180.9</ele>
        <time>2021-03-10T18:16:49.533833Z</time>
      </trkpt>
      <trkpt lat="44.47791" lon="1.82522">
        <ele>180.7</ele>
        <time>2021-03-10T18:16:58.842281Z</time>
      </trkpt>
      <trkpt lat="44.47798" lon="1.82572">
        <ele>177.1</ele>
        <time>2021-03-10T18:17:10.995937Z</time>
      </trkpt>
      <trkpt lat="44.478" lon="1.82626">
        <ele>175.4</ele>
        <time>2021-03-10T18:17:23.893611Z</time>
      </trkpt>
      <trkpt lat="44.47807" lon="1.82665">
        <ele>180.7</ele>
        <time>2021-03-10T18:17:33.485862Z</time>
      </trkpt>
      <trkpt lat="44.47811" lon="1.82727">
        <ele>182.3</ele>
        <time>2021-03-10T18:17:48.334663Z</time>
      </trkpt>
      <trkpt lat="44.4781" lon="1.82799">
        <ele>178.5</ele>
        <time>2021-03-10T18:18:05.511672Z</time>
      </trkpt>
      <trkpt lat="44.47813" lon="1.82855">
        <ele>181.7</ele>
        <time>2021-03-10T18:18:18.906604Z</time>
      </trkpt>
      <trkpt lat="44.47783" lon="1.83205">
        <ele>178</ele>
        <time>2021-03-10T18:19:42.990393Z</time>
      </trkpt>
      <trkpt lat="44.47773" lon="1.83248">
        <ele>180.2</ele>
        <time>2021-03-10T18:19:53.777998Z</time>
      </trkpt>
      <trkpt lat="44.47767" lon="1.83259">
        <ele>179.9</ele>
        <time>2021-03-10T18:19:57.080629Z</time>
      </trkpt>
      <trkpt lat="44.47752" lon="1.83276">
        <ele>179.1</ele>
        <time>2021-03-10T18:20:03.529513Z</time>
      </trkpt>
      <trkpt lat="44.47728" lon="1.83288">
        <ele>177.6</ele>
        <time>2021-03-10T18:20:12.047948Z</time>
      </trkpt>
      <trkpt lat="44.47642" lon="1.83287">
        <ele>179.3</ele>
        <time>2021-03-10T18:20:40.798123Z</time>
      </trkpt>
      <trkpt lat="44.47615" lon="1.83297">
        <ele>178.8</ele>
        <time>2021-03-10T18:20:50.133877Z</time>
      </trkpt>
      <trkpt lat="44.47596" lon="1.83312">
        <ele>174.6</ele>
        <time>2021-03-10T18:20:57.423863Z</time>
      </trkpt>
      <trkpt lat="44.47544" lon="1.83369">
        <ele>178.5</ele>
        <time>2021-03-10T18:21:19.492821Z</time>
      </trkpt>
      <trkpt lat="44.47533" lon="1.83388">
        <ele>179.8</ele>
        <time>2021-03-10T18:21:25.329166Z</time>
      </trkpt>
      <trkpt lat="44.47528" lon="1.83415">
        <ele>180</ele>
        <time>2021-03-10T18:21:31.982962Z</time>
      </trkpt>
      <trkpt lat="44.4753" lon="1.83431">
        <ele>181</ele>
        <time>2021-03-10T18:21:35.857611Z</time>
      </trkpt>
      <trkpt lat="44.47538" lon="1.83452">
        <ele>182.1</ele>
        <time>2021-03-10T18:21:41.536058Z</time>
      </trkpt>
      <trkpt lat="44.47582" lon="1.83528">
        <ele>179</ele>
        <time>2021-03-10T18:22:04.881229Z</time>
      </trkpt>
      <trkpt lat="44.47578" lon="1.83561">
        <ele>178.4</ele>
        <time>2021-03-10T18:22:12.865581Z</time>
      </trkpt>
      <trkpt lat="44.47676" lon="1.83636">
        <ele>177.9</ele>
        <time>2021-03-10T18:22:50.19264Z</time>
      </trkpt>
      <trkpt lat="44.47696" lon="1.83644">
        <ele>175.3</ele>
        <time>2021-03-10T18:22:57.145414Z</time>
      </trkpt>
      <trkpt lat="44.4771" lon="1.83644">
        <ele>174.5</ele>
        <time>2021-03-10T18:23:01.825448Z</time>
      </trkpt>
      <trkpt lat="44.47746" lon="1.83639">
        <ele>175.3</ele>
        <time>2021-03-10T18:23:13.918901Z</time>
      </trkpt>
      <trkpt lat="44.47789" lon="1.83621">
        <ele>176.2</ele>
        <time>2021-03-10T18:23:28.920955Z</time>
      </trkpt>
      <trkpt lat="44.47819" lon="1.83616">
        <ele>174.5</ele>
        <time>2021-03-10T18:23:39.020369Z</time>
      </trkpt>
      <trkpt lat="44.47879" lon="1.83619">
        <ele>172</ele>
        <time>2021-03-10T18:23:59.090704Z</time>
      </trkpt>
      <trkpt lat="44.47927" lon="1.83627">
        <ele>174.1</ele>
        <time>2021-03-10T18:24:15.249821Z</time>
      </trkpt>
      <trkpt lat="44.48096" lon="1.83687">
        <ele>163.7</ele>
        <time>2021-03-10T18:25:13.529685Z</time>
      </trkpt>
      <trkpt lat="44.48228" lon="1.83715">
        <ele>163.4</ele>
        <time>2021-03-10T18:25:58.158831Z</time>
      </trkpt>
      <trkpt lat="44.48268" lon="1.8373">
        <ele>158.9</ele>
        <time>2021-03-10T18:26:12.00085Z</time>
      </trkpt>
      <trkpt lat="44.48443" lon="1.83816">
        <ele>158.1</ele>
        <time>2021-03-10T18:27:13.993595Z</time>
      </trkpt>
      <trkpt lat="44.48529" lon="1.83845">
        <ele>158.9</ele>
        <time>2021-03-10T18:27:43.563044Z</time>
      </trkpt>
      <trkpt lat="44.48558" lon="1.83865">
        <ele>157.7</ele>
        <time>2021-03-10T18:27:54.3674Z</time>
      </trkpt>
      <trkpt lat="44.48569" lon="1.83876">
        <ele>156.9</ele>
        <time>2021-03-10T18:27:58.884554Z</time>
      </trkpt>
      <trkpt lat="44.48582" lon="1.83896">
        <ele>155.7</ele>
        <time>2021-03-10T18:28:05.337354Z</time>
      </trkpt>
      <trkpt lat="44.48585" lon="1.83907">
        <ele>155.3</ele>
        <time>2021-03-10T18:28:08.146Z</time>
      </trkpt>
      <trkpt lat="44.48578" lon="1.84166">
        <ele>151</ele>
        <time>2021-03-10T18:29:09.959861Z</time>
      </trkpt>
      <trkpt lat="44.48555" lon="1.84163">
        <ele>151</ele>
        <time>2021-03-10T18:29:17.681833Z</time>
      </trkpt>
      <trkpt lat="44.48519" lon="1.84169">
        <ele>150.1</ele>
        <time>2021-03-10T18:29:29.801124Z</time>
      </trkpt>
      <trkpt lat="44.48508" lon="1.84176">
        <ele>150.1</ele>
        <time>2021-03-10T18:29:33.839453Z</time>
      </trkpt>
      <trkpt lat="44.48488" lon="1.84196">
        <ele>150</ele>
        <time>2021-03-10T18:29:42.052431Z</time>
      </trkpt>
      <trkpt lat="44.48474" lon="1.84214">
        <ele>150</ele>
        <time>2021-03-10T18:29:48.40318Z</time>
      </trkpt>
      <trkpt lat="44.48464" lon="1.84239">
        <ele>149.9</ele>
        <time>2021-03-10T18:29:55.238743Z</time>
      </trkpt>
      <trkpt lat="44.48463" lon="1.84274">
        <ele>150</ele>
        <time>2021-03-10T18:30:03.592836Z</time>
      </trkpt>
      <trkpt lat="44.48465" lon="1.84301">
        <ele>150</ele>
        <time>2021-03-10T18:30:10.066935Z</time>
      </trkpt>
      <trkpt lat="44.48475" lon="1.84344">
        <ele>151.1</ele>
        <time>2021-03-10T18:30:20.853407Z</time>
      </trkpt>
      <trkpt lat="44.48475" lon="1.84353">
        <ele>151.1</ele>
        <time>2021-03-10T18:30:23.999875Z</time>
      </trkpt>
      <trkpt lat="44.48469" lon="1.84358">
        <ele>150.9</ele>
        <time>2021-03-10T18:30:25.333269Z</time>
      </trkpt>
      <trkpt lat="44.48469" lon="1.84366">
        <ele>150.9</ele>
        <time>2021-03-10T18:30:27.24104Z</time>
      </trkpt>
      <trkpt lat="44.48474" lon="1.84371">
        <ele>151</ele>
        <time>2021-03-10T18:30:29.294408Z</time>
      </trkpt>
      <trkpt lat="44.48458" lon="1.84429">
        <ele>149.8</ele>
        <time>2021-03-10T18:30:44.125314Z</time>
      </trkpt>
      <trkpt lat="44.48474" lon="1.84371">
        <ele>151</ele>
        <time>2021-03-10T18:30:58.956221Z</time>
      </trkpt>
      <trkpt lat="44.48481" lon="1.84367">
        <ele>151.2</ele>
        <time>2021-03-10T18:31:01.48319Z</time>
      </trkpt>
      <trkpt lat="44.4848" lon="1.84356">
        <ele>151.3</ele>
        <time>2021-03-10T18:31:04.127976Z</time>
      </trkpt>
      <trkpt lat="44.48473" lon="1.84353">
        <ele>151</ele>
        <time>2021-03-10T18:31:06.575193Z</time>
      </trkpt>
      <trkpt lat="44.48469" lon="1.84358">
        <ele>150.9</ele>
        <time>2021-03-10T18:31:08.366697Z</time>
      </trkpt>
      <trkpt lat="44.48469" lon="1.84363">
        <ele>150.9</ele>
        <time>2021-03-10T18:31:09.559289Z</time>
      </trkpt>
      <trkpt lat="44.48384" lon="1.8441">
        <ele>150.7</ele>
        <time>2021-03-10T18:31:40.105278Z</time>
      </trkpt>
      <trkpt lat="44.48225" lon="1.84488">
        <ele>151.1</ele>
        <time>2021-03-10T18:32:36.419366Z</time>
      </trkpt>
      <trkpt lat="44.48248" lon="1.84496">
        <ele>150.7</ele>
        <time>2021-03-10T18:32:44.341239Z</time>
      </trkpt>
      <trkpt lat="44.48256" lon="1.84505">
        <ele>150.9</ele>
        <time>2021-03-10T18:32:47.770442Z</time>
      </trkpt>
      <trkpt lat="44.48264" lon="1.84523">
        <ele>151.5</ele>
        <time>2021-03-10T18:32:52.828409Z</time>
      </trkpt>
      <trkpt lat="44.48273" lon="1.84558">
        <ele>151.4</ele>
        <time>2021-03-10T18:33:01.70178Z</time>
      </trkpt>
      <trkpt lat="44.4828" lon="1.84621">
        <ele>150</ele>
        <time>2021-03-10T18:33:16.908715Z</time>
      </trkpt>
      <trkpt lat="44.48269" lon="1.84959">
        <ele>154.5</ele>
        <time>2021-03-10T18:34:37.60724Z</time>
      </trkpt>
      <trkpt lat="44.48249" lon="1.85179">
        <ele>151.9</ele>
        <time>2021-03-10T18:35:30.502719Z</time>
      </trkpt>
      <trkpt lat="44.48251" lon="1.85245">
        <ele>152.7</ele>
        <time>2021-03-10T18:35:46.258301Z</time>
      </trkpt>
      <trkpt lat="44.4827" lon="1.854">
        <ele>156.5</ele>
        <time>2021-03-10T18:36:23.768323Z</time>
      </trkpt>
      <trkpt lat="44.48274" lon="1.85451">
        <ele>156</ele>
        <time>2021-03-10T18:36:36.00534Z</time>
      </trkpt>
      <trkpt lat="44.48275" lon="1.8551">
        <ele>156.9</ele>
        <time>2021-03-10T18:36:50.081106Z</time>
      </trkpt>
      <trkpt lat="44.48282" lon="1.85559">
        <ele>157.6</ele>
        <time>2021-03-10T18:37:02.999782Z</time>
      </trkpt>
      <trkpt lat="44.48311" lon="1.85688">
        <ele>158.4</ele>
        <time>2021-03-10T18:37:34.258009Z</time>
      </trkpt>
      <trkpt lat="44.48313" lon="1.85721">
        <ele>158.7</ele>
        <time>2021-03-10T18:37:42.157021Z</time>
      </trkpt>
      <trkpt lat="44.48306" lon="1.85804">
        <ele>159</ele>
        <time>2021-03-10T18:38:02.090661Z</time>
      </trkpt>
      <trkpt lat="44.48306" lon="1.85851">
        <ele>161.2</ele>
        <time>2021-03-10T18:38:13.30035Z</time>
      </trkpt>
      <trkpt lat="44.48312" lon="1.85949">
        <ele>162.2</ele>
        <time>2021-03-10T18:38:36.759605Z</time>
      </trkpt>
      <trkpt lat="44.4832" lon="1.85994">
        <ele>161.4</ele>
        <time>2021-03-10T18:38:47.820426Z</time>
      </trkpt>
      <trkpt lat="44.48338" lon="1.86052">
        <ele>160.4</ele>
        <time>2021-03-10T18:39:02.905652Z</time>
      </trkpt>
      <trkpt lat="44.48387" lon="1.86137">
        <ele>157.1</ele>
        <time>2021-03-10T18:39:28.968931Z</time>
      </trkpt>
      <trkpt lat="44.48395" lon="1.86158">
        <ele>156.7</ele>
        <time>2021-03-10T18:39:34.646661Z</time>
      </trkpt>
      <trkpt lat="44.48405" lon="1.86212">
        <ele>157.1</ele>
        <time>2021-03-10T18:39:47.952447Z</time>
      </trkpt>
      <trkpt lat="44.48411" lon="1.86302">
        <ele>155.9</ele>
        <time>2021-03-10T18:40:09.510925Z</time>
      </trkpt>
      <trkpt lat="44.48411" lon="1.8634">
        <ele>156.2</ele>
        <time>2021-03-10T18:40:18.573906Z</time>
      </trkpt>
      <trkpt lat="44.48404" lon="1.86478">
        <ele>158.2</ele>
        <time>2021-03-10T18:40:51.569935Z</time>
      </trkpt>
      <trkpt lat="44.48404" lon="1.86536">
        <ele>157.3</ele>
        <time>2021-03-10T18:41:05.402919Z</time>
      </trkpt>
      <trkpt lat="44.4842" lon="1.86677">
        <ele>154.5</ele>
        <time>2021-03-10T18:41:39.454037Z</time>
      </trkpt>
      <trkpt lat="44.48435" lon="1.86934">
        <ele>154.4</ele>
        <time>2021-03-10T18:42:40.952988Z</time>
      </trkpt>
      <trkpt lat="44.48434" lon="1.86948">
        <ele>154.6</ele>
        <time>2021-03-10T18:42:44.308472Z</time>
      </trkpt>
      <trkpt lat="44.48425" lon="1.86985">
        <ele>154.4</ele>
        <time>2021-03-10T18:42:53.631697Z</time>
      </trkpt>
      <trkpt lat="44.48416" lon="1.87078">
        <ele>152.8</ele>
        <time>2021-03-10T18:43:16.015257Z</time>
      </trkpt>
      <trkpt lat="44.48407" lon="1.8712">
        <ele>153.1</ele>
        <time>2021-03-10T18:43:26.474291Z</time>
      </trkpt>
      <trkpt lat="44.48379" lon="1.87213">
        <ele>152.8</ele>
        <time>2021-03-10T18:43:50.548921Z</time>
      </trkpt>
      <trkpt lat="44.48365" lon="1.87284">
        <ele>155.9</ele>
        <time>2021-03-10T18:44:08.117337Z</time>
      </trkpt>
      <trkpt lat="44.48363" lon="1.87342">
        <ele>157.6</ele>
        <time>2021-03-10T18:44:21.966563Z</time>
      </trkpt>
      <trkpt lat="44.48353" lon="1.87436">
        <ele>161.7</ele>
        <time>2021-03-10T18:44:44.633572Z</time>
      </trkpt>
      <trkpt lat="44.48354" lon="1.87514">
        <ele>159.2</ele>
        <time>2021-03-10T18:45:03.239701Z</time>
      </trkpt>
      <trkpt lat="44.48343" lon="1.87663">
        <ele>166.4</ele>
        <time>2021-03-10T18:45:38.966237Z</time>
      </trkpt>
      <trkpt lat="44.4835" lon="1.87732">
        <ele>163.2</ele>
        <time>2021-03-10T18:45:55.588395Z</time>
      </trkpt>
      <trkpt lat="44.4835" lon="1.87772">
        <ele>165.2</ele>
        <time>2021-03-10T18:46:05.128447Z</time>
      </trkpt>
      <trkpt lat="44.48342" lon="1.87813">
        <ele>168.7</ele>
        <time>2021-03-10T18:46:15.266101Z</time>
      </trkpt>
      <trkpt lat="44.4834" lon="1.87947">
        <ele>168</ele>
        <time>2021-03-10T18:46:47.232404Z</time>
      </trkpt>
      <trkpt lat="44.48331" lon="1.88018">
        <ele>170.8</ele>
        <time>2021-03-10T18:47:04.431285Z</time>
      </trkpt>
      <trkpt lat="44.48332" lon="1.88077">
        <ele>170.4</ele>
        <time>2021-03-10T18:47:18.506907Z</time>
      </trkpt>
      <trkpt lat="44.48329" lon="1.88114">
        <ele>170.7</ele>
        <time>2021-03-10T18:47:27.388352Z</time>
      </trkpt>
      <trkpt lat="44.48331" lon="1.88133">
        <ele>170.7</ele>
        <time>2021-03-10T18:47:31.968899Z</time>
      </trkpt>
      <trkpt lat="44.48347" lon="1.88198">
        <ele>173.1</ele>
        <time>2021-03-10T18:47:48.368301Z</time>
      </trkpt>
      <trkpt lat="44.48348" lon="1.8825">
        <ele>177</ele>
        <time>2021-03-10T18:48:00.774889Z</time>
      </trkpt>
      <trkpt lat="44.48368" lon="1.88303">
        <ele>164.8</ele>
        <time>2021-03-10T18:48:15.074717Z</time>
      </trkpt>
      <trkpt lat="44.4839" lon="1.88376">
        <ele>170.6</ele>
        <time>2021-03-10T18:48:33.974874Z</time>
      </trkpt>
      <trkpt lat="44.484" lon="1.88428">
        <ele>173.9</ele>
        <time>2021-03-10T18:48:46.819545Z</time>
      </trkpt>
      <trkpt lat="44.48407" lon="1.8845">
        <ele>173.7</ele>
        <time>2021-03-10T18:48:52.564665Z</time>
      </trkpt>
      <trkpt lat="44.48436" lon="1.88518">
        <ele>171.7</ele>
        <time>2021-03-10T18:49:11.459218Z</time>
      </trkpt>
      <trkpt lat="44.48496" lon="1.88597">
        <ele>169.6</ele>
        <time>2021-03-10T18:49:38.978282Z</time>
      </trkpt>
      <trkpt lat="44.48549" lon="1.88653">
        <ele>168.4</ele>
        <time>2021-03-10T18:50:01.165776Z</time>
      </trkpt>
      <trkpt lat="44.48588" lon="1.88688">
        <ele>165.3</ele>
        <time>2021-03-10T18:50:16.646439Z</time>
      </trkpt>
      <trkpt lat="44.48669" lon="1.88748">
        <ele>164.6</ele>
        <time>2021-03-10T18:50:47.272593Z</time>
      </trkpt>
      <trkpt lat="44.48704" lon="1.88768">
        <ele>167</ele>
        <time>2021-03-10T18:50:59.907732Z</time>
      </trkpt>
      <trkpt lat="44.48765" lon="1.88793">
        <ele>164.7</ele>
        <time>2021-03-10T18:51:21.153308Z</time>
      </trkpt>
      <trkpt lat="44.4882" lon="1.88825">
        <ele>164.8</ele>
        <time>2021-03-10T18:51:41.060265Z</time>
      </trkpt>
      <trkpt lat="44.48858" lon="1.88838">
        <ele>163.8</ele>
        <time>2021-03-10T18:51:54.136234Z</time>
      </trkpt>
      <trkpt lat="44.48983" lon="1.88863">
        <ele>158.4</ele>
        <time>2021-03-10T18:52:36.345994Z</time>
      </trkpt>
      <trkpt lat="44.49187" lon="1.88883">
        <ele>156.6</ele>
        <time>2021-03-10T18:53:44.708286Z</time>
      </trkpt>
      <trkpt lat="44.49278" lon="1.88886">
        <ele>155.5</ele>
        <time>2021-03-10T18:54:15.13734Z</time>
      </trkpt>
      <trkpt lat="44.4935" lon="1.88875">
        <ele>157.8</ele>
        <time>2021-03-10T18:54:39.348954Z</time>
      </trkpt>
      <trkpt lat="44.49454" lon="1.88841">
        <ele>158</ele>
        <time>2021-03-10T18:55:15.048245Z</time>
      </trkpt>
      <trkpt lat="44.49492" lon="1.88841">
        <ele>159.5</ele>
        <time>2021-03-10T18:55:27.751378Z</time>
      </trkpt>
      <trkpt lat="44.49502" lon="1.88846">
        <ele>159.8</ele>
        <time>2021-03-10T18:55:31.30058Z</time>
      </trkpt>
      <trkpt lat="44.49535" lon="1.88938">
        <ele>166.1</ele>
        <time>2021-03-10T18:55:55.855907Z</time>
      </trkpt>
      <trkpt lat="44.49541" lon="1.8897">
        <ele>169.7</ele>
        <time>2021-03-10T18:56:03.745632Z</time>
      </trkpt>
      <trkpt lat="44.49542" lon="1.89033">
        <ele>171.3</ele>
        <time>2021-03-10T18:56:18.771884Z</time>
      </trkpt>
      <trkpt lat="44.49546" lon="1.8908">
        <ele>173.6</ele>
        <time>2021-03-10T18:56:30.058664Z</time>
      </trkpt>
      <trkpt lat="44.49552" lon="1.89108">
        <ele>173.9</ele>
        <time>2021-03-10T18:56:37.030159Z</time>
      </trkpt>
      <trkpt lat="44.4959" lon="1.89155">
        <ele>180</ele>
        <time>2021-03-10T18:56:53.970411Z</time>
      </trkpt>
      <trkpt lat="44.49624" lon="1.89184">
        <ele>181.8</ele>
        <time>2021-03-10T18:57:07.274698Z</time>
      </trkpt>
      <trkpt lat="44.49629" lon="1.892">
        <ele>182.1</ele>
        <time>2021-03-10T18:57:11.440125Z</time>
      </trkpt>
      <trkpt lat="44.49631" lon="1.89226">
        <ele>182.4</ele>
        <time>2021-03-10T18:57:17.675802Z</time>
      </trkpt>
      <trkpt lat="44.49628" lon="1.89245">
        <ele>183.2</ele>
        <time>2021-03-10T18:57:22.315981Z</time>
      </trkpt>
      <trkpt lat="44.49595" lon="1.89279">
        <ele>185.1</ele>
        <time>2021-03-10T18:57:36.00634Z</time>
      </trkpt>
      <trkpt lat="44.49532" lon="1.89429">
        <ele>195.4</ele>
        <time>2021-03-10T18:58:17.513935Z</time>
      </trkpt>
      <trkpt lat="44.4956" lon="1.89661">
        <ele>200.3</ele>
        <time>2021-03-10T18:59:13.621314Z</time>
      </trkpt>
      <trkpt lat="44.4956" lon="1.89672">
        <ele>200.5</ele>
        <time>2021-03-10T18:59:16.24414Z</time>
      </trkpt>
      <trkpt lat="44.49555" lon="1.89692">
        <ele>202</ele>
        <time>2021-03-10T18:59:21.297596Z</time>
      </trkpt>
      <trkpt lat="44.49544" lon="1.89692">
        <ele>204.4</ele>
        <time>2021-03-10T18:59:24.974851Z</time>
      </trkpt>
      <trkpt lat="44.4954" lon="1.89662">
        <ele>204.8</ele>
        <time>2021-03-10T18:59:32.252424Z</time>
      </trkpt>
      <trkpt lat="44.49515" lon="1.89566">
        <ele>209</ele>
        <time>2021-03-10T18:59:56.621855Z</time>
      </trkpt>
      <trkpt lat="44.4949" lon="1.89506">
        <ele>214.6</ele>
        <time>2021-03-10T19:00:13.191198Z</time>
      </trkpt>
      <trkpt lat="44.49467" lon="1.89466">
        <ele>217.1</ele>
        <time>2021-03-10T19:00:25.442452Z</time>
      </trkpt>
      <trkpt lat="44.49451" lon="1.89445">
        <ele>218.5</ele>
        <time>2021-03-10T19:00:32.769443Z</time>
      </trkpt>
      <trkpt lat="44.49431" lon="1.89427">
        <ele>219.9</ele>
        <time>2021-03-10T19:00:40.71452Z</time>
      </trkpt>
      <trkpt lat="44.49406" lon="1.89416">
        <ele>223</ele>
        <time>2021-03-10T19:00:49.473875Z</time>
      </trkpt>
      <trkpt lat="44.4938" lon="1.89412">
        <ele>224.8</ele>
        <time>2021-03-10T19:00:58.217686Z</time>
      </trkpt>
      <trkpt lat="44.49342" lon="1.89415">
        <ele>228.2</ele>
        <time>2021-03-10T19:01:10.940971Z</time>
      </trkpt>
      <trkpt lat="44.49255" lon="1.89439">
        <ele>235.4</ele>
        <time>2021-03-10T19:01:40.582207Z</time>
      </trkpt>
      <trkpt lat="44.49181" lon="1.89466">
        <ele>241.9</ele>
        <time>2021-03-10T19:02:06.14403Z</time>
      </trkpt>
      <trkpt lat="44.49154" lon="1.89484">
        <ele>243.9</ele>
        <time>2021-03-10T19:02:16.138651Z</time>
      </trkpt>
      <trkpt lat="44.49109" lon="1.89527">
        <ele>248.3</ele>
        <time>2021-03-10T19:02:34.344319Z</time>
      </trkpt>
      <trkpt lat="44.49021" lon="1.8965">
        <ele>257.3</ele>
        <time>2021-03-10T19:03:15.886813Z</time>
      </trkpt>
      <trkpt lat="44.48991" lon="1.89673">
        <ele>257.5</ele>
        <time>2021-03-10T19:03:27.317525Z</time>
      </trkpt>
      <trkpt lat="44.48989" lon="1.89687">
        <ele>260.3</ele>
        <time>2021-03-10T19:03:30.722531Z</time>
      </trkpt>
      <trkpt lat="44.49" lon="1.89686">
        <ele>262.2</ele>
        <time>2021-03-10T19:03:34.40731Z</time>
      </trkpt>
      <trkpt lat="44.49106" lon="1.89593">
        <ele>264.3</ele>
        <time>2021-03-10T19:04:16.210487Z</time>
      </trkpt>
      <trkpt lat="44.49162" lon="1.89552">
        <ele>265.3</ele>
        <time>2021-03-10T19:04:37.330313Z</time>
      </trkpt>
      <trkpt lat="44.49174" lon="1.8955">
        <ele>265.9</ele>
        <time>2021-03-10T19:04:41.370055Z</time>
      </trkpt>
      <trkpt lat="44.49178" lon="1.89559">
        <ele>269</ele>
        <time>2021-03-10T19:04:43.898797Z</time>
      </trkpt>
      <trkpt lat="44.49175" lon="1.89566">
        <ele>270.9</ele>
        <time>2021-03-10T19:04:45.846291Z</time>
      </trkpt>
      <trkpt lat="44.49153" lon="1.89576">
        <ele>269.8</ele>
        <time>2021-03-10T19:04:53.577699Z</time>
      </trkpt>
      <trkpt lat="44.49141" lon="1.89586">
        <ele>269.4</ele>
        <time>2021-03-10T19:04:58.244485Z</time>
      </trkpt>
      <trkpt lat="44.4911" lon="1.89624">
        <ele>273</ele>
        <time>2021-03-10T19:05:12.010795Z</time>
      </trkpt>
      <trkpt lat="44.49053" lon="1.89711">
        <ele>279.6</ele>
        <time>2021-03-10T19:05:40.180305Z</time>
      </trkpt>
      <trkpt lat="44.49035" lon="1.89733">
        <ele>281</ele>
        <time>2021-03-10T19:05:48.163534Z</time>
      </trkpt>
      <trkpt lat="44.48986" lon="1.8977">
        <ele>283.6</ele>
        <time>2021-03-10T19:06:06.769181Z</time>
      </trkpt>
      <trkpt lat="44.48961" lon="1.89799">
        <ele>285.8</ele>
        <time>2021-03-10T19:06:17.616877Z</time>
      </trkpt>
      <trkpt lat="44.48945" lon="1.89826">
        <ele>287.7</ele>
        <time>2021-03-10T19:06:25.98753Z</time>
      </trkpt>
      <trkpt lat="44.48931" lon="1.89863">
        <ele>290.5</ele>
        <time>2021-03-10T19:06:35.975547Z</time>
      </trkpt>
      <trkpt lat="44.48866" lon="1.90055">
        <ele>297.3</ele>
        <time>2021-03-10T19:07:26.657868Z</time>
      </trkpt>
      <trkpt lat="44.48809" lon="1.90154">
        <ele>300.3</ele>
        <time>2021-03-10T19:07:56.997606Z</time>
      </trkpt>
      <trkpt lat="44.48781" lon="1.90187">
        <ele>301.3</ele>
        <time>2021-03-10T19:08:09.226699Z</time>
      </trkpt>
      <trkpt lat="44.48759" lon="1.90205">
        <ele>301.9</ele>
        <time>2021-03-10T19:08:17.742313Z</time>
      </trkpt>
      <trkpt lat="44.48733" lon="1.90221">
        <ele>302.9</ele>
        <time>2021-03-10T19:08:27.234599Z</time>
      </trkpt>
      <trkpt lat="44.48636" lon="1.90269">
        <ele>304.9</ele>
        <time>2021-03-10T19:09:01.622319Z</time>
      </trkpt>
      <trkpt lat="44.48619" lon="1.90287">
        <ele>305</ele>
        <time>2021-03-10T19:09:08.744437Z</time>
      </trkpt>
      <trkpt lat="44.48605" lon="1.90312">
        <ele>305</ele>
        <time>2021-03-10T19:09:16.32411Z</time>
      </trkpt>
      <trkpt lat="44.4853" lon="1.90465">
        <ele>308</ele>
        <time>2021-03-10T19:10:00.596914Z</time>
      </trkpt>
      <trkpt lat="44.4854" lon="1.9047">
        <ele>308</ele>
        <time>2021-03-10T19:10:04.146345Z</time>
      </trkpt>
      <trkpt lat="44.48547" lon="1.90479">
        <ele>308.2</ele>
        <time>2021-03-10T19:10:07.32172Z</time>
      </trkpt>
      <trkpt lat="44.4848" lon="1.90889">
        <ele>313.1</ele>
        <time>2021-03-10T19:11:47.637117Z</time>
      </trkpt>
      <trkpt lat="44.48472" lon="1.90928">
        <ele>315</ele>
        <time>2021-03-10T19:11:57.315348Z</time>
      </trkpt>
      <trkpt lat="44.48394" lon="1.91233">
        <ele>306.7</ele>
        <time>2021-03-10T19:13:14.589557Z</time>
      </trkpt>
      <trkpt lat="44.48382" lon="1.91293">
        <ele>300.6</ele>
        <time>2021-03-10T19:13:29.451244Z</time>
      </trkpt>
      <trkpt lat="44.4837" lon="1.91462">
        <ele>305</ele>
        <time>2021-03-10T19:14:09.957027Z</time>
      </trkpt>
      <trkpt lat="44.48373" lon="1.9152">
        <ele>308.8</ele>
        <time>2021-03-10T19:14:23.826414Z</time>
      </trkpt>
      <trkpt lat="44.48401" lon="1.91643">
        <ele>312.8</ele>
        <time>2021-03-10T19:14:54.619083Z</time>
      </trkpt>
      <trkpt lat="44.48446" lon="1.91793">
        <ele>321.8</ele>
        <time>2021-03-10T19:15:33.42807Z</time>
      </trkpt>
      <trkpt lat="44.48546" lon="1.91979">
        <ele>319.9</ele>
        <time>2021-03-10T19:16:28.973984Z</time>
      </trkpt>
      <trkpt lat="44.48565" lon="1.92021">
        <ele>317</ele>
        <time>2021-03-10T19:16:40.834699Z</time>
      </trkpt>
      <trkpt lat="44.48584" lon="1.9208">
        <ele>313.6</ele>
        <time>2021-03-10T19:16:56.272893Z</time>
      </trkpt>
      <trkpt lat="44.48587" lon="1.92104">
        <ele>311.9</ele>
        <time>2021-03-10T19:17:02.08392Z</time>
      </trkpt>
      <trkpt lat="44.48595" lon="1.92128">
        <ele>310.6</ele>
        <time>2021-03-10T19:17:08.401619Z</time>
      </trkpt>
      <trkpt lat="44.48609" lon="1.92188">
        <ele>308.3</ele>
        <time>2021-03-10T19:17:23.457062Z</time>
      </trkpt>
      <trkpt lat="44.48608" lon="1.92215">
        <ele>307.3</ele>
        <time>2021-03-10T19:17:29.905063Z</time>
      </trkpt>
      <trkpt lat="44.48594" lon="1.92249">
        <ele>304.7</ele>
        <time>2021-03-10T19:17:39.26748Z</time>
      </trkpt>
      <trkpt lat="44.48594" lon="1.92274">
        <ele>303.6</ele>
        <time>2021-03-10T19:17:45.229756Z</time>
      </trkpt>
      <trkpt lat="44.48599" lon="1.92295">
        <ele>304.1</ele>
        <time>2021-03-10T19:17:50.509616Z</time>
      </trkpt>
      <trkpt lat="44.48632" lon="1.92346">
        <ele>303.5</ele>
        <time>2021-03-10T19:18:06.930214Z</time>
      </trkpt>
      <trkpt lat="44.48647" lon="1.92362">
        <ele>302.9</ele>
        <time>2021-03-10T19:18:13.231387Z</time>
      </trkpt>
      <trkpt lat="44.48678" lon="1.92408">
        <ele>303.4</ele>
        <time>2021-03-10T19:18:28.322606Z</time>
      </trkpt>
      <trkpt lat="44.48697" lon="1.92444">
        <ele>303.4</ele>
        <time>2021-03-10T19:18:39.002217Z</time>
      </trkpt>
      <trkpt lat="44.48727" lon="1.92526">
        <ele>302.4</ele>
        <time>2021-03-10T19:19:00.979741Z</time>
      </trkpt>
      <trkpt lat="44.48756" lon="1.92544">
        <ele>303.4</ele>
        <time>2021-03-10T19:19:11.582112Z</time>
      </trkpt>
      <trkpt lat="44.48774" lon="1.92544">
        <ele>304.6</ele>
        <time>2021-03-10T19:19:17.599331Z</time>
      </trkpt>
      <trkpt lat="44.48806" lon="1.92557">
        <ele>307.1</ele>
        <time>2021-03-10T19:19:28.736919Z</time>
      </trkpt>
      <trkpt lat="44.48824" lon="1.92579">
        <ele>307.9</ele>
        <time>2021-03-10T19:19:36.720352Z</time>
      </trkpt>
      <trkpt lat="44.48844" lon="1.92614">
        <ele>309.5</ele>
        <time>2021-03-10T19:19:47.414789Z</time>
      </trkpt>
      <trkpt lat="44.48867" lon="1.92645">
        <ele>310.6</ele>
        <time>2021-03-10T19:19:58.081197Z</time>
      </trkpt>
      <trkpt lat="44.48922" lon="1.92737">
        <ele>312.9</ele>
        <time>2021-03-10T19:20:26.706674Z</time>
      </trkpt>
      <trkpt lat="44.48963" lon="1.92861">
        <ele>316.7</ele>
        <time>2021-03-10T19:20:59.299812Z</time>
      </trkpt>
      <trkpt lat="44.48983" lon="1.92903">
        <ele>317.1</ele>
        <time>2021-03-10T19:21:11.342302Z</time>
      </trkpt>
      <trkpt lat="44.49033" lon="1.92943">
        <ele>320.3</ele>
        <time>2021-03-10T19:21:30.587343Z</time>
      </trkpt>
      <trkpt lat="44.49127" lon="1.93044">
        <ele>331.4</ele>
        <time>2021-03-10T19:22:10.179746Z</time>
      </trkpt>
      <trkpt lat="44.49174" lon="1.93127">
        <ele>333.4</ele>
        <time>2021-03-10T19:22:35.450686Z</time>
      </trkpt>
      <trkpt lat="44.49199" lon="1.93158">
        <ele>330.7</ele>
        <time>2021-03-10T19:22:46.608369Z</time>
      </trkpt>
      <trkpt lat="44.4933" lon="1.93206">
        <ele>327.7</ele>
        <time>2021-03-10T19:23:31.871895Z</time>
      </trkpt>
      <trkpt lat="44.49362" lon="1.93225">
        <ele>327.9</ele>
        <time>2021-03-10T19:23:43.489184Z</time>
      </trkpt>
      <trkpt lat="44.49383" lon="1.93243">
        <ele>328.1</ele>
        <time>2021-03-10T19:23:51.71752Z</time>
      </trkpt>
      <trkpt lat="44.49433" lon="1.93299">
        <ele>326.4</ele>
        <time>2021-03-10T19:24:13.111439Z</time>
      </trkpt>
      <trkpt lat="44.4947" lon="1.93329">
        <ele>325.2</ele>
        <time>2021-03-10T19:24:27.40004Z</time>
      </trkpt>
      <trkpt lat="44.49515" lon="1.93351">
        <ele>322.2</ele>
        <time>2021-03-10T19:24:43.331691Z</time>
      </trkpt>
      <trkpt lat="44.49681" lon="1.93501">
        <ele>307.4</ele>
        <time>2021-03-10T19:25:49.352541Z</time>
      </trkpt>
      <trkpt lat="44.4971" lon="1.93517">
        <ele>307.3</ele>
        <time>2021-03-10T19:25:59.770684Z</time>
      </trkpt>
      <trkpt lat="44.49775" lon="1.93535">
        <ele>306.5</ele>
        <time>2021-03-10T19:26:21.91952Z</time>
      </trkpt>
      <trkpt lat="44.49786" lon="1.93534">
        <ele>306.2</ele>
        <time>2021-03-10T19:26:25.60452Z</time>
      </trkpt>
      <trkpt lat="44.49865" lon="1.935">
        <ele>304.9</ele>
        <time>2021-03-10T19:26:53.229972Z</time>
      </trkpt>
      <trkpt lat="44.4989" lon="1.93481">
        <ele>303.2</ele>
        <time>2021-03-10T19:27:02.736237Z</time>
      </trkpt>
      <trkpt lat="44.49906" lon="1.93463">
        <ele>301.2</ele>
        <time>2021-03-10T19:27:09.594048Z</time>
      </trkpt>
      <trkpt lat="44.49915" lon="1.93433">
        <ele>297.9</ele>
        <time>2021-03-10T19:27:17.354166Z</time>
      </trkpt>
      <trkpt lat="44.49922" lon="1.93371">
        <ele>294.7</ele>
        <time>2021-03-10T19:27:32.321375Z</time>
      </trkpt>
      <trkpt lat="44.49934" lon="1.9332">
        <ele>291.9</ele>
        <time>2021-03-10T19:27:45.126284Z</time>
      </trkpt>
      <trkpt lat="44.49946" lon="1.93291">
        <ele>289</ele>
        <time>2021-03-10T19:27:53.120373Z</time>
      </trkpt>
      <trkpt lat="44.49995" lon="1.93147">
        <ele>279</ele>
        <time>2021-03-10T19:28:31.162329Z</time>
      </trkpt>
      <trkpt lat="44.50002" lon="1.93113">
        <ele>277.3</ele>
        <time>2021-03-10T19:28:39.600055Z</time>
      </trkpt>
      <trkpt lat="44.50005" lon="1.93066">
        <ele>273</ele>
        <time>2021-03-10T19:28:50.851234Z</time>
      </trkpt>
      <trkpt lat="44.49999" lon="1.93045">
        <ele>271.6</ele>
        <time>2021-03-10T19:28:56.245112Z</time>
      </trkpt>
      <trkpt lat="44.49989" lon="1.9303">
        <ele>270.9</ele>
        <time>2021-03-10T19:29:01.140628Z</time>
      </trkpt>
      <trkpt lat="44.49961" lon="1.93001">
        <ele>268</ele>
        <time>2021-03-10T19:29:12.777848Z</time>
      </trkpt>
      <trkpt lat="44.49924" lon="1.92978">
        <ele>264.9</ele>
        <time>2021-03-10T19:29:26.307894Z</time>
      </trkpt>
      <trkpt lat="44.49897" lon="1.92966">
        <ele>262.4</ele>
        <time>2021-03-10T19:29:35.776466Z</time>
      </trkpt>
      <trkpt lat="44.4986" lon="1.92957">
        <ele>258.5</ele>
        <time>2021-03-10T19:29:48.330045Z</time>
      </trkpt>
      <trkpt lat="44.49846" lon="1.92958">
        <ele>257.3</ele>
        <time>2021-03-10T19:29:53.016166Z</time>
      </trkpt>
      <trkpt lat="44.49793" lon="1.92973">
        <ele>253.8</ele>
        <time>2021-03-10T19:30:11.091049Z</time>
      </trkpt>
      <trkpt lat="44.4979" lon="1.92973">
        <ele>253.6</ele>
        <time>2021-03-10T19:30:12.093648Z</time>
      </trkpt>
      <trkpt lat="44.49782" lon="1.92962">
        <ele>252.2</ele>
        <time>2021-03-10T19:30:15.839598Z</time>
      </trkpt>
      <trkpt lat="44.49782" lon="1.92951">
        <ele>251.2</ele>
        <time>2021-03-10T19:30:18.462579Z</time>
      </trkpt>
      <trkpt lat="44.49786" lon="1.92937">
        <ele>250.9</ele>
        <time>2021-03-10T19:30:22.05875Z</time>
      </trkpt>
      <trkpt lat="44.49795" lon="1.92918">
        <ele>249.8</ele>
        <time>2021-03-10T19:30:27.497146Z</time>
      </trkpt>
      <trkpt lat="44.49825" lon="1.9287">
        <ele>244.2</ele>
        <time>2021-03-10T19:30:42.714578Z</time>
      </trkpt>
      <trkpt lat="44.49861" lon="1.92824">
        <ele>237.7</ele>
        <time>2021-03-10T19:30:58.997532Z</time>
      </trkpt>
      <trkpt lat="44.49884" lon="1.92779">
        <ele>234.3</ele>
        <time>2021-03-10T19:31:12.197753Z</time>
      </trkpt>
      <trkpt lat="44.49889" lon="1.92756">
        <ele>233.8</ele>
        <time>2021-03-10T19:31:17.931022Z</time>
      </trkpt>
      <trkpt lat="44.4989" lon="1.92727">
        <ele>232</ele>
        <time>2021-03-10T19:31:24.853855Z</time>
      </trkpt>
      <trkpt lat="44.49887" lon="1.92717">
        <ele>231.7</ele>
        <time>2021-03-10T19:31:27.440562Z</time>
      </trkpt>
      <trkpt lat="44.49861" lon="1.92683">
        <ele>229.4</ele>
        <time>2021-03-10T19:31:39.326147Z</time>
      </trkpt>
      <trkpt lat="44.49858" lon="1.92675">
        <ele>229.4</ele>
        <time>2021-03-10T19:31:41.481326Z</time>
      </trkpt>
      <trkpt lat="44.49858" lon="1.92662">
        <ele>227.9</ele>
        <time>2021-03-10T19:31:44.58115Z</time>
      </trkpt>
      <trkpt lat="44.49861" lon="1.92657">
        <ele>226.7</ele>
        <time>2021-03-10T19:31:46.139187Z</time>
      </trkpt>
      <trkpt lat="44.49878" lon="1.9266">
        <ele>224.4</ele>
        <time>2021-03-10T19:31:51.867054Z</time>
      </trkpt>
      <trkpt lat="44.49941" lon="1.92747">
        <ele>218.8</ele>
        <time>2021-03-10T19:32:21.428182Z</time>
      </trkpt>
      <trkpt lat="44.49953" lon="1.9276">
        <ele>217.2</ele>
        <time>2021-03-10T19:32:26.497732Z</time>
      </trkpt>
      <trkpt lat="44.49964" lon="1.92769">
        <ele>216.6</ele>
        <time>2021-03-10T19:32:30.755324Z</time>
      </trkpt>
      <trkpt lat="44.49984" lon="1.92771">
        <ele>215.6</ele>
        <time>2021-03-10T19:32:37.458154Z</time>
      </trkpt>
      <trkpt lat="44.50003" lon="1.9276">
        <ele>213.3</ele>
        <time>2021-03-10T19:32:44.329968Z</time>
      </trkpt>
      <trkpt lat="44.50034" lon="1.92726">
        <ele>208.1</ele>
        <time>2021-03-10T19:32:57.487199Z</time>
      </trkpt>
      <trkpt lat="44.5005" lon="1.92714">
        <ele>206.5</ele>
        <time>2021-03-10T19:33:03.553026Z</time>
      </trkpt>
      <trkpt lat="44.50062" lon="1.92702">
        <ele>205</ele>
        <time>2021-03-10T19:33:08.480386Z</time>
      </trkpt>
      <trkpt lat="44.50087" lon="1.92668">
        <ele>201.8</ele>
        <time>2021-03-10T19:33:20.123519Z</time>
      </trkpt>
      <trkpt lat="44.50172" lon="1.92602">
        <ele>196.2</ele>
        <time>2021-03-10T19:33:52.60486Z</time>
      </trkpt>
      <trkpt lat="44.5025" lon="1.92565">
        <ele>194</ele>
        <time>2021-03-10T19:34:20.13156Z</time>
      </trkpt>
      <trkpt lat="44.50294" lon="1.92554">
        <ele>193.5</ele>
        <time>2021-03-10T19:34:35.072458Z</time>
      </trkpt>
      <trkpt lat="44.50323" lon="1.92552">
        <ele>193.2</ele>
        <time>2021-03-10T19:34:44.778718Z</time>
      </trkpt>
      <trkpt lat="44.50325" lon="1.92577">
        <ele>194.1</ele>
        <time>2021-03-10T19:34:50.776616Z</time>
      </trkpt>
      <trkpt lat="44.50347" lon="1.92608">
        <ele>191.3</ele>
        <time>2021-03-10T19:35:01.203238Z</time>
      </trkpt>
      <trkpt lat="44.50357" lon="1.9263">
        <ele>191.6</ele>
        <time>2021-03-10T19:35:07.42322Z</time>
      </trkpt>
      <trkpt lat="44.50362" lon="1.92649">
        <ele>190.9</ele>
        <time>2021-03-10T19:35:12.251803Z</time>
      </trkpt>
      <trkpt lat="44.50366" lon="1.92704">
        <ele>189.5</ele>
        <time>2021-03-10T19:35:25.43288Z</time>
      </trkpt>
      <trkpt lat="44.50397" lon="1.92829">
        <ele>187.6</ele>
        <time>2021-03-10T19:35:56.985598Z</time>
      </trkpt>
      <trkpt lat="44.50433" lon="1.92938">
        <ele>189.1</ele>
        <time>2021-03-10T19:36:25.624404Z</time>
      </trkpt>
      <trkpt lat="44.50553" lon="1.93183">
        <ele>185.7</ele>
        <time>2021-03-10T19:37:36.484317Z</time>
      </trkpt>
      <trkpt lat="44.50582" lon="1.93233">
        <ele>184.2</ele>
        <time>2021-03-10T19:37:51.849285Z</time>
      </trkpt>
      <trkpt lat="44.50834" lon="1.93579">
        <ele>160.9</ele>
        <time>2021-03-10T19:39:49.75178Z</time>
      </trkpt>
      <trkpt lat="44.50853" lon="1.93615">
        <ele>158.9</ele>
        <time>2021-03-10T19:40:00.428874Z</time>
      </trkpt>
      <trkpt lat="44.50854" lon="1.93656">
        <ele>161.8</ele>
        <time>2021-03-10T19:40:10.209Z</time>
      </trkpt>
      <trkpt lat="44.50871" lon="1.93693">
        <ele>161.6</ele>
        <time>2021-03-10T19:40:20.701975Z</time>
      </trkpt>
      <trkpt lat="44.50888" lon="1.93721">
        <ele>158.3</ele>
        <time>2021-03-10T19:40:29.468581Z</time>
      </trkpt>
      <trkpt lat="44.5089" lon="1.9373">
        <ele>158.4</ele>
        <time>2021-03-10T19:40:31.715542Z</time>
      </trkpt>
      <trkpt lat="44.50883" lon="1.93811">
        <ele>159.8</ele>
        <time>2021-03-10T19:40:51.16709Z</time>
      </trkpt>
      <trkpt lat="44.50882" lon="1.93874">
        <ele>159.8</ele>
        <time>2021-03-10T19:41:06.189926Z</time>
      </trkpt>
      <trkpt lat="44.50889" lon="1.93933">
        <ele>158.6</ele>
        <time>2021-03-10T19:41:20.448766Z</time>
      </trkpt>
      <trkpt lat="44.50915" lon="1.9399">
        <ele>157.7</ele>
        <time>2021-03-10T19:41:36.57935Z</time>
      </trkpt>
      <trkpt lat="44.50966" lon="1.94129">
        <ele>157.5</ele>
        <time>2021-03-10T19:42:13.845003Z</time>
      </trkpt>
      <trkpt lat="44.50973" lon="1.94162">
        <ele>158</ele>
        <time>2021-03-10T19:42:22.052672Z</time>
      </trkpt>
      <trkpt lat="44.50971" lon="1.94254">
        <ele>160.1</ele>
        <time>2021-03-10T19:42:43.995179Z</time>
      </trkpt>
      <trkpt lat="44.50996" lon="1.94306">
        <ele>162</ele>
        <time>2021-03-10T19:42:58.945724Z</time>
      </trkpt>
      <trkpt lat="44.51037" lon="1.94357">
        <ele>165.3</ele>
        <time>2021-03-10T19:43:17.267112Z</time>
      </trkpt>
      <trkpt lat="44.51044" lon="1.94374">
        <ele>166.1</ele>
        <time>2021-03-10T19:43:21.946798Z</time>
      </trkpt>
      <trkpt lat="44.51044" lon="1.94387">
        <ele>166.7</ele>
        <time>2021-03-10T19:43:25.045834Z</time>
      </trkpt>
      <trkpt lat="44.51036" lon="1.94406">
        <ele>169.1</ele>
        <time>2021-03-10T19:43:30.305831Z</time>
      </trkpt>
      <trkpt lat="44.51026" lon="1.94412">
        <ele>170.7</ele>
        <time>2021-03-10T19:43:33.941874Z</time>
      </trkpt>
      <trkpt lat="44.5101" lon="1.9441">
        <ele>172</ele>
        <time>2021-03-10T19:43:39.311686Z</time>
      </trkpt>
      <trkpt lat="44.50985" lon="1.94392">
        <ele>173.1</ele>
        <time>2021-03-10T19:43:48.70624Z</time>
      </trkpt>
      <trkpt lat="44.50972" lon="1.94393">
        <ele>175.6</ele>
        <time>2021-03-10T19:43:53.058537Z</time>
      </trkpt>
      <trkpt lat="44.50963" lon="1.94398">
        <ele>175.6</ele>
        <time>2021-03-10T19:43:56.294768Z</time>
      </trkpt>
      <trkpt lat="44.50949" lon="1.94411">
        <ele>176.5</ele>
        <time>2021-03-10T19:44:01.908Z</time>
      </trkpt>
      <trkpt lat="44.50946" lon="1.94418">
        <ele>177.2</ele>
        <time>2021-03-10T19:44:03.855076Z</time>
      </trkpt>
      <trkpt lat="44.50951" lon="1.94447">
        <ele>179.9</ele>
        <time>2021-03-10T19:44:10.967695Z</time>
      </trkpt>
      <trkpt lat="44.50956" lon="1.94454">
        <ele>179.9</ele>
        <time>2021-03-10T19:44:13.329713Z</time>
      </trkpt>
      <trkpt lat="44.50979" lon="1.94454">
        <ele>178.7</ele>
        <time>2021-03-10T19:44:21.018543Z</time>
      </trkpt>
      <trkpt lat="44.5101" lon="1.94462">
        <ele>176.4</ele>
        <time>2021-03-10T19:44:31.555675Z</time>
      </trkpt>
      <trkpt lat="44.51055" lon="1.94484">
        <ele>177.3</ele>
        <time>2021-03-10T19:44:47.486892Z</time>
      </trkpt>
      <trkpt lat="44.51127" lon="1.94513">
        <ele>174.8</ele>
        <time>2021-03-10T19:45:12.529141Z</time>
      </trkpt>
      <trkpt lat="44.51188" lon="1.94554">
        <ele>173.2</ele>
        <time>2021-03-10T19:45:35.142324Z</time>
      </trkpt>
      <trkpt lat="44.51224" lon="1.94585">
        <ele>172.9</ele>
        <time>2021-03-10T19:45:49.264687Z</time>
      </trkpt>
      <trkpt lat="44.51322" lon="1.94691">
        <ele>170</ele>
        <time>2021-03-10T19:46:30.638135Z</time>
      </trkpt>
      <trkpt lat="44.51396" lon="1.94797">
        <ele>168.1</ele>
        <time>2021-03-10T19:47:06.999591Z</time>
      </trkpt>
      <trkpt lat="44.51413" lon="1.94825">
        <ele>167.8</ele>
        <time>2021-03-10T19:47:14.765778Z</time>
      </trkpt>
      <trkpt lat="44.51444" lon="1.9489">
        <ele>167.2</ele>
        <time>2021-03-10T19:47:33.406352Z</time>
      </trkpt>
      <trkpt lat="44.51503" lon="1.95048">
        <ele>164.9</ele>
        <time>2021-03-10T19:48:15.921268Z</time>
      </trkpt>
      <trkpt lat="44.51551" lon="1.95109">
        <ele>164.1</ele>
        <time>2021-03-10T19:48:37.575546Z</time>
      </trkpt>
      <trkpt lat="44.51624" lon="1.95192">
        <ele>162.5</ele>
        <time>2021-03-10T19:49:08.991435Z</time>
      </trkpt>
      <trkpt lat="44.51647" lon="1.95234">
        <ele>162.1</ele>
        <time>2021-03-10T19:49:21.614641Z</time>
      </trkpt>
      <trkpt lat="44.5166" lon="1.9527">
        <ele>162.6</ele>
        <time>2021-03-10T19:49:31.233563Z</time>
      </trkpt>
      <trkpt lat="44.51695" lon="1.95396">
        <ele>162.2</ele>
        <time>2021-03-10T19:50:03.466199Z</time>
      </trkpt>
      <trkpt lat="44.51752" lon="1.95545">
        <ele>162.6</ele>
        <time>2021-03-10T19:50:43.771093Z</time>
      </trkpt>
      <trkpt lat="44.51812" lon="1.95735">
        <ele>162.3</ele>
        <time>2021-03-10T19:51:33.30261Z</time>
      </trkpt>
      <trkpt lat="44.5183" lon="1.95783">
        <ele>161.4</ele>
        <time>2021-03-10T19:51:46.229746Z</time>
      </trkpt>
      <trkpt lat="44.51847" lon="1.95853">
        <ele>162.5</ele>
        <time>2021-03-10T19:52:03.856187Z</time>
      </trkpt>
      <trkpt lat="44.51977" lon="1.95771">
        <ele>159.6</ele>
        <time>2021-03-10T19:52:51.507195Z</time>
      </trkpt>
      <trkpt lat="44.5201" lon="1.95737">
        <ele>158.2</ele>
        <time>2021-03-10T19:53:05.19562Z</time>
      </trkpt>
      <trkpt lat="44.52062" lon="1.95639">
        <ele>158.2</ele>
        <time>2021-03-10T19:53:34.312512Z</time>
      </trkpt>
      <trkpt lat="44.52139" lon="1.95507">
        <ele>159</ele>
        <time>2021-03-10T19:54:14.962642Z</time>
      </trkpt>
      <trkpt lat="44.5217" lon="1.95424">
        <ele>158</ele>
        <time>2021-03-10T19:54:37.295341Z</time>
      </trkpt>
      <trkpt lat="44.52286" lon="1.95208">
        <ele>157.3</ele>
        <time>2021-03-10T19:55:41.747988Z</time>
      </trkpt>
      <trkpt lat="44.52301" lon="1.95185">
        <ele>157</ele>
        <time>2021-03-10T19:55:49.17727Z</time>
      </trkpt>
      <trkpt lat="44.52345" lon="1.95136">
        <ele>158</ele>
        <time>2021-03-10T19:56:07.958681Z</time>
      </trkpt>
      <trkpt lat="44.52371" lon="1.95102">
        <ele>160.3</ele>
        <time>2021-03-10T19:56:19.841867Z</time>
      </trkpt>
      <trkpt lat="44.52389" lon="1.95069">
        <ele>162</ele>
        <time>2021-03-10T19:56:29.744742Z</time>
      </trkpt>
      <trkpt lat="44.52377" lon="1.95013">
        <ele>160.4</ele>
        <time>2021-03-10T19:56:43.681421Z</time>
      </trkpt>
      <trkpt lat="44.52267" lon="1.94578">
        <ele>162.1</ele>
        <time>2021-03-10T19:58:33.687131Z</time>
      </trkpt>
      <trkpt lat="44.52248" lon="1.94516">
        <ele>162.1</ele>
        <time>2021-03-10T19:58:49.771543Z</time>
      </trkpt>
      <trkpt lat="44.52216" lon="1.94437">
        <ele>162.7</ele>
        <time>2021-03-10T19:59:11.427231Z</time>
      </trkpt>
      <trkpt lat="44.52185" lon="1.94382">
        <ele>162.4</ele>
        <time>2021-03-10T19:59:28.13766Z</time>
      </trkpt>
      <trkpt lat="44.52159" lon="1.94341">
        <ele>162.9</ele>
        <time>2021-03-10T19:59:41.215871Z</time>
      </trkpt>
      <trkpt lat="44.52106" lon="1.94269">
        <ele>162.1</ele>
        <time>2021-03-10T20:00:05.881849Z</time>
      </trkpt>
      <trkpt lat="44.52159" lon="1.94341">
        <ele>162.9</ele>
        <time>2021-03-10T20:00:30.547827Z</time>
      </trkpt>
      <trkpt lat="44.52185" lon="1.94382">
        <ele>162.4</ele>
        <time>2021-03-10T20:00:43.626038Z</time>
      </trkpt>
      <trkpt lat="44.52216" lon="1.94437">
        <ele>162.7</ele>
        <time>2021-03-10T20:01:00.336467Z</time>
      </trkpt>
      <trkpt lat="44.52248" lon="1.94516">
        <ele>162.1</ele>
        <time>2021-03-10T20:01:21.992155Z</time>
      </trkpt>
      <trkpt lat="44.52267" lon="1.94578">
        <ele>162.1</ele>
        <time>2021-03-10T20:01:38.076566Z</time>
      </trkpt>
      <trkpt lat="44.52377" lon="1.95013">
        <ele>160.4</ele>
        <time>2021-03-10T20:03:28.082277Z</time>
      </trkpt>
      <trkpt lat="44.52389" lon="1.95069">
        <ele>162</ele>
        <time>2021-03-10T20:03:42.018955Z</time>
      </trkpt>
      <trkpt lat="44.52436" lon="1.9524">
        <ele>162.6</ele>
        <time>2021-03-10T20:04:25.698042Z</time>
      </trkpt>
      <trkpt lat="44.52459" lon="1.95298">
        <ele>164.7</ele>
        <time>2021-03-10T20:04:41.515854Z</time>
      </trkpt>
      <trkpt lat="44.52543" lon="1.9546">
        <ele>165.8</ele>
        <time>2021-03-10T20:05:29.2572Z</time>
      </trkpt>
      <trkpt lat="44.52561" lon="1.95501">
        <ele>164.3</ele>
        <time>2021-03-10T20:05:40.732826Z</time>
      </trkpt>
      <trkpt lat="44.52663" lon="1.95779">
        <ele>165.1</ele>
        <time>2021-03-10T20:06:55.247255Z</time>
      </trkpt>
      <trkpt lat="44.527" lon="1.9593">
        <ele>164.3</ele>
        <time>2021-03-10T20:07:33.300569Z</time>
      </trkpt>
      <trkpt lat="44.52721" lon="1.96">
        <ele>163</ele>
        <time>2021-03-10T20:07:51.400109Z</time>
      </trkpt>
      <trkpt lat="44.52745" lon="1.96041">
        <ele>162.8</ele>
        <time>2021-03-10T20:08:04.043111Z</time>
      </trkpt>
      <trkpt lat="44.52775" lon="1.96084">
        <ele>163.5</ele>
        <time>2021-03-10T20:08:18.38168Z</time>
      </trkpt>
      <trkpt lat="44.52898" lon="1.96246">
        <ele>164.5</ele>
        <time>2021-03-10T20:09:14.784124Z</time>
      </trkpt>
      <trkpt lat="44.52908" lon="1.96265">
        <ele>164.3</ele>
        <time>2021-03-10T20:09:20.412572Z</time>
      </trkpt>
      <trkpt lat="44.52933" lon="1.96341">
        <ele>163.7</ele>
        <time>2021-03-10T20:09:40.359693Z</time>
      </trkpt>
      <trkpt lat="44.52956" lon="1.96395">
        <ele>163.6</ele>
        <time>2021-03-10T20:09:55.350612Z</time>
      </trkpt>
      <trkpt lat="44.52995" lon="1.96441">
        <ele>164</ele>
        <time>2021-03-10T20:10:12.384327Z</time>
      </trkpt>
      <trkpt lat="44.53051" lon="1.96499">
        <ele>164.5</ele>
        <time>2021-03-10T20:10:35.654514Z</time>
      </trkpt>
      <trkpt lat="44.5308" lon="1.96522">
        <ele>164.6</ele>
        <time>2021-03-10T20:10:46.791151Z</time>
      </trkpt>
      <trkpt lat="44.5334" lon="1.96684">
        <ele>166.4</ele>
        <time>2021-03-10T20:12:21.895123Z</time>
      </trkpt>
      <trkpt lat="44.53482" lon="1.96766">
        <ele>165</ele>
        <time>2021-03-10T20:13:13.229117Z</time>
      </trkpt>
      <trkpt lat="44.53592" lon="1.96902">
        <ele>165.9</ele>
        <time>2021-03-10T20:14:02.243756Z</time>
      </trkpt>
      <trkpt lat="44.53633" lon="1.96931">
        <ele>166.8</ele>
        <time>2021-03-10T20:14:17.593262Z</time>
      </trkpt>
      <trkpt lat="44.53658" lon="1.96938">
        <ele>165.7</ele>
        <time>2021-03-10T20:14:26.115378Z</time>
      </trkpt>
      <trkpt lat="44.53738" lon="1.96946">
        <ele>165.5</ele>
        <time>2021-03-10T20:14:52.926639Z</time>
      </trkpt>
      <trkpt lat="44.5376" lon="1.96956">
        <ele>166.5</ele>
        <time>2021-03-10T20:15:00.657414Z</time>
      </trkpt>
      <trkpt lat="44.53779" lon="1.96974">
        <ele>166.1</ele>
        <time>2021-03-10T20:15:08.321519Z</time>
      </trkpt>
      <trkpt lat="44.53796" lon="1.97002">
        <ele>165.4</ele>
        <time>2021-03-10T20:15:17.085616Z</time>
      </trkpt>
      <trkpt lat="44.54025" lon="1.97614">
        <ele>165.4</ele>
        <time>2021-03-10T20:18:01.782317Z</time>
      </trkpt>
      <trkpt lat="44.54056" lon="1.97674">
        <ele>164.9</ele>
        <time>2021-03-10T20:18:19.439417Z</time>
      </trkpt>
      <trkpt lat="44.54152" lon="1.97831">
        <ele>165.2</ele>
        <time>2021-03-10T20:19:08.726835Z</time>
      </trkpt>
      <trkpt lat="44.54196" lon="1.97879">
        <ele>166.2</ele>
        <time>2021-03-10T20:19:27.358776Z</time>
      </trkpt>
      <trkpt lat="44.54358" lon="1.98019">
        <ele>168.1</ele>
        <time>2021-03-10T20:20:30.962664Z</time>
      </trkpt>
      <trkpt lat="44.54441" lon="1.98061">
        <ele>169.5</ele>
        <time>2021-03-10T20:21:00.458274Z</time>
      </trkpt>
      <trkpt lat="44.54459" lon="1.98067">
        <ele>169.1</ele>
        <time>2021-03-10T20:21:06.643057Z</time>
      </trkpt>
      <trkpt lat="44.54488" lon="1.98063">
        <ele>169.6</ele>
        <time>2021-03-10T20:21:16.384293Z</time>
      </trkpt>
      <trkpt lat="44.54507" lon="1.98045">
        <ele>172</ele>
        <time>2021-03-10T20:21:24.048079Z</time>
      </trkpt>
      <trkpt lat="44.54549" lon="1.97951">
        <ele>175.3</ele>
        <time>2021-03-10T20:21:50.480715Z</time>
      </trkpt>
      <trkpt lat="44.54563" lon="1.97934">
        <ele>175.3</ele>
        <time>2021-03-10T20:21:56.669975Z</time>
      </trkpt>
      <trkpt lat="44.54576" lon="1.97927">
        <ele>175.4</ele>
        <time>2021-03-10T20:22:01.324877Z</time>
      </trkpt>
      <trkpt lat="44.54597" lon="1.97932">
        <ele>175.2</ele>
        <time>2021-03-10T20:22:08.445393Z</time>
      </trkpt>
      <trkpt lat="44.54685" lon="1.98011">
        <ele>185.5</ele>
        <time>2021-03-10T20:22:43.368823Z</time>
      </trkpt>
      <trkpt lat="44.54691" lon="1.9802">
        <ele>184.9</ele>
        <time>2021-03-10T20:22:46.304945Z</time>
      </trkpt>
      <trkpt lat="44.54698" lon="1.98049">
        <ele>184.5</ele>
        <time>2021-03-10T20:22:53.599511Z</time>
      </trkpt>
      <trkpt lat="44.54696" lon="1.98071">
        <ele>186</ele>
        <time>2021-03-10T20:22:58.883304Z</time>
      </trkpt>
      <trkpt lat="44.54668" lon="1.98129">
        <ele>187.8</ele>
        <time>2021-03-10T20:23:15.573246Z</time>
      </trkpt>
      <trkpt lat="44.54665" lon="1.9815">
        <ele>187.1</ele>
        <time>2021-03-10T20:23:20.675949Z</time>
      </trkpt>
      <trkpt lat="44.54666" lon="1.9816">
        <ele>187.6</ele>
        <time>2021-03-10T20:23:23.081875Z</time>
      </trkpt>
      <trkpt lat="44.54673" lon="1.98179">
        <ele>187.6</ele>
        <time>2021-03-10T20:23:28.177549Z</time>
      </trkpt>
      <trkpt lat="44.54705" lon="1.98211">
        <ele>190.8</ele>
        <time>2021-03-10T20:23:41.313621Z</time>
      </trkpt>
      <trkpt lat="44.54715" lon="1.98232">
        <ele>190.3</ele>
        <time>2021-03-10T20:23:47.330772Z</time>
      </trkpt>
      <trkpt lat="44.54728" lon="1.98249">
        <ele>192.6</ele>
        <time>2021-03-10T20:23:53.271286Z</time>
      </trkpt>
      <trkpt lat="44.54786" lon="1.98291">
        <ele>194.5</ele>
        <time>2021-03-10T20:24:15.089969Z</time>
      </trkpt>
      <trkpt lat="44.54841" lon="1.9832">
        <ele>193.6</ele>
        <time>2021-03-10T20:24:34.731303Z</time>
      </trkpt>
      <trkpt lat="44.54889" lon="1.98329">
        <ele>201.6</ele>
        <time>2021-03-10T20:24:50.919984Z</time>
      </trkpt>
      <trkpt lat="44.54898" lon="1.98334">
        <ele>201.5</ele>
        <time>2021-03-10T20:24:54.155838Z</time>
      </trkpt>
      <trkpt lat="44.54922" lon="1.98361">
        <ele>200.8</ele>
        <time>2021-03-10T20:25:04.438971Z</time>
      </trkpt>
      <trkpt lat="44.54949" lon="1.98412">
        <ele>202.8</ele>
        <time>2021-03-10T20:25:19.574576Z</time>
      </trkpt>
      <trkpt lat="44.54965" lon="1.98432">
        <ele>200.1</ele>
        <time>2021-03-10T20:25:26.737693Z</time>
      </trkpt>
      <trkpt lat="44.55067" lon="1.98502">
        <ele>206.5</ele>
        <time>2021-03-10T20:26:04.694974Z</time>
      </trkpt>
      <trkpt lat="44.55148" lon="1.98541">
        <ele>210.9</ele>
        <time>2021-03-10T20:26:33.322244Z</time>
      </trkpt>
      <trkpt lat="44.55198" lon="1.98581">
        <ele>212.6</ele>
        <time>2021-03-10T20:26:52.562268Z</time>
      </trkpt>
      <trkpt lat="44.55226" lon="1.98597">
        <ele>212.9</ele>
        <time>2021-03-10T20:27:02.668697Z</time>
      </trkpt>
      <trkpt lat="44.55281" lon="1.98622">
        <ele>216.8</ele>
        <time>2021-03-10T20:27:21.995277Z</time>
      </trkpt>
      <trkpt lat="44.55303" lon="1.98626">
        <ele>217.1</ele>
        <time>2021-03-10T20:27:29.411224Z</time>
      </trkpt>
      <trkpt lat="44.55383" lon="1.98625">
        <ele>220.6</ele>
        <time>2021-03-10T20:27:56.155713Z</time>
      </trkpt>
      <trkpt lat="44.55459" lon="1.98598">
        <ele>224.3</ele>
        <time>2021-03-10T20:28:22.36344Z</time>
      </trkpt>
      <trkpt lat="44.55478" lon="1.98597">
        <ele>224.6</ele>
        <time>2021-03-10T20:28:28.719574Z</time>
      </trkpt>
      <trkpt lat="44.55524" lon="1.98603">
        <ele>227.3</ele>
        <time>2021-03-10T20:28:44.16336Z</time>
      </trkpt>
      <trkpt lat="44.55599" lon="1.98598">
        <ele>229</ele>
        <time>2021-03-10T20:29:09.263606Z</time>
      </trkpt>
      <trkpt lat="44.55649" lon="1.98588">
        <ele>230</ele>
        <time>2021-03-10T20:29:26.147118Z</time>
      </trkpt>
      <trkpt lat="44.55677" lon="1.98573">
        <ele>232.7</ele>
        <time>2021-03-10T20:29:36.166119Z</time>
      </trkpt>
      <trkpt lat="44.55691" lon="1.98552">
        <ele>233.9</ele>
        <time>2021-03-10T20:29:43.016384Z</time>
      </trkpt>
      <trkpt lat="44.55698" lon="1.98527">
        <ele>233.2</ele>
        <time>2021-03-10T20:29:49.41467Z</time>
      </trkpt>
      <trkpt lat="44.5572" lon="1.98363">
        <ele>238.9</ele>
        <time>2021-03-10T20:30:29.165868Z</time>
      </trkpt>
      <trkpt lat="44.5573" lon="1.98336">
        <ele>242.3</ele>
        <time>2021-03-10T20:30:36.414279Z</time>
      </trkpt>
      <trkpt lat="44.55746" lon="1.9832">
        <ele>244.1</ele>
        <time>2021-03-10T20:30:42.981943Z</time>
      </trkpt>
      <trkpt lat="44.55783" lon="1.98305">
        <ele>246.3</ele>
        <time>2021-03-10T20:30:55.856481Z</time>
      </trkpt>
      <trkpt lat="44.55798" lon="1.9831">
        <ele>247.7</ele>
        <time>2021-03-10T20:31:01.010332Z</time>
      </trkpt>
      <trkpt lat="44.55837" lon="1.98343">
        <ele>243.6</ele>
        <time>2021-03-10T20:31:16.234025Z</time>
      </trkpt>
      <trkpt lat="44.55851" lon="1.98344">
        <ele>242.4</ele>
        <time>2021-03-10T20:31:20.920233Z</time>
      </trkpt>
      <trkpt lat="44.55864" lon="1.98335">
        <ele>243.7</ele>
        <time>2021-03-10T20:31:25.765993Z</time>
      </trkpt>
      <trkpt lat="44.55878" lon="1.9831">
        <ele>242.2</ele>
        <time>2021-03-10T20:31:33.339808Z</time>
      </trkpt>
      <trkpt lat="44.55911" lon="1.98207">
        <ele>246.7</ele>
        <time>2021-03-10T20:32:00.239805Z</time>
      </trkpt>
      <trkpt lat="44.55942" lon="1.98094">
        <ele>252.5</ele>
        <time>2021-03-10T20:32:29.081591Z</time>
      </trkpt>
      <trkpt lat="44.55952" lon="1.98073">
        <ele>253.6</ele>
        <time>2021-03-10T20:32:35.097863Z</time>
      </trkpt>
      <trkpt lat="44.55959" lon="1.98067">
        <ele>253.8</ele>
        <time>2021-03-10T20:32:37.839882Z</time>
      </trkpt>
      <trkpt lat="44.55967" lon="1.98063">
        <ele>254.2</ele>
        <time>2021-03-10T20:32:40.678962Z</time>
      </trkpt>
      <trkpt lat="44.55984" lon="1.98064">
        <ele>254.3</ele>
        <time>2021-03-10T20:32:46.366941Z</time>
      </trkpt>
      <trkpt lat="44.56074" lon="1.98104">
        <ele>259.5</ele>
        <time>2021-03-10T20:33:17.92579Z</time>
      </trkpt>
      <trkpt lat="44.56095" lon="1.98102">
        <ele>261</ele>
        <time>2021-03-10T20:33:24.962124Z</time>
      </trkpt>
      <trkpt lat="44.56114" lon="1.98088">
        <ele>263.8</ele>
        <time>2021-03-10T20:33:32.135753Z</time>
      </trkpt>
      <trkpt lat="44.56157" lon="1.98032">
        <ele>266.4</ele>
        <time>2021-03-10T20:33:51.745418Z</time>
      </trkpt>
      <trkpt lat="44.56196" lon="1.98001">
        <ele>266.6</ele>
        <time>2021-03-10T20:34:06.72851Z</time>
      </trkpt>
      <trkpt lat="44.56221" lon="1.97995">
        <ele>266.5</ele>
        <time>2021-03-10T20:34:15.207167Z</time>
      </trkpt>
      <trkpt lat="44.56234" lon="1.97997">
        <ele>267</ele>
        <time>2021-03-10T20:34:19.578979Z</time>
      </trkpt>
      <trkpt lat="44.56283" lon="1.98017">
        <ele>269.9</ele>
        <time>2021-03-10T20:34:36.637902Z</time>
      </trkpt>
      <trkpt lat="44.56359" lon="1.98042">
        <ele>274.1</ele>
        <time>2021-03-10T20:35:02.732604Z</time>
      </trkpt>
      <trkpt lat="44.56377" lon="1.98057">
        <ele>274.2</ele>
        <time>2021-03-10T20:35:09.730572Z</time>
      </trkpt>
      <trkpt lat="44.5639" lon="1.98083">
        <ele>274.3</ele>
        <time>2021-03-10T20:35:17.295831Z</time>
      </trkpt>
      <trkpt lat="44.56408" lon="1.98132">
        <ele>275.6</ele>
        <time>2021-03-10T20:35:30.426196Z</time>
      </trkpt>
      <trkpt lat="44.56431" lon="1.98213">
        <ele>278</ele>
        <time>2021-03-10T20:35:51.193835Z</time>
      </trkpt>
      <trkpt lat="44.56432" lon="1.98231">
        <ele>278.3</ele>
        <time>2021-03-10T20:35:55.493881Z</time>
      </trkpt>
      <trkpt lat="44.56415" lon="1.98338">
        <ele>282.7</ele>
        <time>2021-03-10T20:36:21.604202Z</time>
      </trkpt>
      <trkpt lat="44.56415" lon="1.98397">
        <ele>283.6</ele>
        <time>2021-03-10T20:36:35.656366Z</time>
      </trkpt>
      <trkpt lat="44.56445" lon="1.98502">
        <ele>287.1</ele>
        <time>2021-03-10T20:37:02.600312Z</time>
      </trkpt>
      <trkpt lat="44.56453" lon="1.98552">
        <ele>288.4</ele>
        <time>2021-03-10T20:37:14.805435Z</time>
      </trkpt>
      <trkpt lat="44.56454" lon="1.98578">
        <ele>289.8</ele>
        <time>2021-03-10T20:37:21.006792Z</time>
      </trkpt>
      <trkpt lat="44.56452" lon="1.9862">
        <ele>289.6</ele>
        <time>2021-03-10T20:37:31.032295Z</time>
      </trkpt>
      <trkpt lat="44.56445" lon="1.98679">
        <ele>292.1</ele>
        <time>2021-03-10T20:37:45.277903Z</time>
      </trkpt>
      <trkpt lat="44.56439" lon="1.98707">
        <ele>294.3</ele>
        <time>2021-03-10T20:37:52.241799Z</time>
      </trkpt>
      <trkpt lat="44.56423" lon="1.98734">
        <ele>296</ele>
        <time>2021-03-10T20:38:00.606124Z</time>
      </trkpt>
      <trkpt lat="44.56386" lon="1.98763">
        <ele>296.4</ele>
        <time>2021-03-10T20:38:14.772803Z</time>
      </trkpt>
      <trkpt lat="44.56364" lon="1.98785">
        <ele>298.3</ele>
        <time>2021-03-10T20:38:23.802917Z</time>
      </trkpt>
      <trkpt lat="44.56358" lon="1.98803">
        <ele>299.1</ele>
        <time>2021-03-10T20:38:28.536085Z</time>
      </trkpt>
      <trkpt lat="44.56361" lon="1.98818">
        <ele>300</ele>
        <time>2021-03-10T20:38:32.246749Z</time>
      </trkpt>
      <trkpt lat="44.56371" lon="1.98828">
        <ele>300.1</ele>
        <time>2021-03-10T20:38:36.351303Z</time>
      </trkpt>
      <trkpt lat="44.56388" lon="1.98832">
        <ele>299.4</ele>
        <time>2021-03-10T20:38:42.113554Z</time>
      </trkpt>
      <trkpt lat="44.56571" lon="1.98819">
        <ele>307.2</ele>
        <time>2021-03-10T20:39:43.36743Z</time>
      </trkpt>
      <trkpt lat="44.56627" lon="1.98827">
        <ele>308.4</ele>
        <time>2021-03-10T20:40:02.184524Z</time>
      </trkpt>
      <trkpt lat="44.56684" lon="1.9885">
        <ele>309.1</ele>
        <time>2021-03-10T20:40:22.010952Z</time>
      </trkpt>
      <trkpt lat="44.56703" lon="1.98854">
        <ele>311.3</ele>
        <time>2021-03-10T20:40:28.433509Z</time>
      </trkpt>
      <trkpt lat="44.56719" lon="1.98853">
        <ele>314.3</ele>
        <time>2021-03-10T20:40:33.787521Z</time>
      </trkpt>
      <trkpt lat="44.56738" lon="1.98847">
        <ele>316.6</ele>
        <time>2021-03-10T20:40:40.297881Z</time>
      </trkpt>
      <trkpt lat="44.56823" lon="1.98786">
        <ele>318.7</ele>
        <time>2021-03-10T20:41:12.211136Z</time>
      </trkpt>
      <trkpt lat="44.5675" lon="1.98711">
        <ele>323</ele>
        <time>2021-03-10T20:41:42.452946Z</time>
      </trkpt>
      <trkpt lat="44.56724" lon="1.98678">
        <ele>324.9</ele>
        <time>2021-03-10T20:41:54.170979Z</time>
      </trkpt>
      <trkpt lat="44.56696" lon="1.98636">
        <ele>325.8</ele>
        <time>2021-03-10T20:42:07.8702Z</time>
      </trkpt>
      <trkpt lat="44.56674" lon="1.98598">
        <ele>327.1</ele>
        <time>2021-03-10T20:42:19.531754Z</time>
      </trkpt>
      <trkpt lat="44.56653" lon="1.98552">
        <ele>328</ele>
        <time>2021-03-10T20:42:32.543462Z</time>
      </trkpt>
      <trkpt lat="44.56641" lon="1.98516">
        <ele>330.1</ele>
        <time>2021-03-10T20:42:42.009366Z</time>
      </trkpt>
      <trkpt lat="44.56613" lon="1.98456">
        <ele>332.6</ele>
        <time>2021-03-10T20:42:59.091837Z</time>
      </trkpt>
      <trkpt lat="44.56593" lon="1.98394">
        <ele>335</ele>
        <time>2021-03-10T20:43:15.301135Z</time>
      </trkpt>
      <trkpt lat="44.56562" lon="1.9826">
        <ele>341.2</ele>
        <time>2021-03-10T20:43:48.855659Z</time>
      </trkpt>
      <trkpt lat="44.56558" lon="1.98227">
        <ele>342.1</ele>
        <time>2021-03-10T20:43:56.828014Z</time>
      </trkpt>
      <trkpt lat="44.56555" lon="1.98147">
        <ele>342.3</ele>
        <time>2021-03-10T20:44:15.907669Z</time>
      </trkpt>
      <trkpt lat="44.56554" lon="1.97929">
        <ele>346.5</ele>
        <time>2021-03-10T20:45:07.828982Z</time>
      </trkpt>
      <trkpt lat="44.56557" lon="1.97902">
        <ele>347.5</ele>
        <time>2021-03-10T20:45:14.337215Z</time>
      </trkpt>
      <trkpt lat="44.56563" lon="1.97877">
        <ele>347.7</ele>
        <time>2021-03-10T20:45:20.620133Z</time>
      </trkpt>
      <trkpt lat="44.56617" lon="1.97738">
        <ele>344.4</ele>
        <time>2021-03-10T20:45:58.326935Z</time>
      </trkpt>
      <trkpt lat="44.56632" lon="1.97706">
        <ele>344.9</ele>
        <time>2021-03-10T20:46:07.449803Z</time>
      </trkpt>
      <trkpt lat="44.56662" lon="1.97655">
        <ele>345.8</ele>
        <time>2021-03-10T20:46:23.201275Z</time>
      </trkpt>
      <trkpt lat="44.56722" lon="1.97585">
        <ele>347.8</ele>
        <time>2021-03-10T20:46:49.282597Z</time>
      </trkpt>
      <trkpt lat="44.56757" lon="1.97526">
        <ele>346.3</ele>
        <time>2021-03-10T20:47:07.567469Z</time>
      </trkpt>
      <trkpt lat="44.5677" lon="1.97499">
        <ele>347</ele>
        <time>2021-03-10T20:47:15.328531Z</time>
      </trkpt>
      <trkpt lat="44.5683" lon="1.97411">
        <ele>340.7</ele>
        <time>2021-03-10T20:47:44.337724Z</time>
      </trkpt>
      <trkpt lat="44.56848" lon="1.97374">
        <ele>337.1</ele>
        <time>2021-03-10T20:47:55.007988Z</time>
      </trkpt>
      <trkpt lat="44.56885" lon="1.97232">
        <ele>328.4</ele>
        <time>2021-03-10T20:48:31.016754Z</time>
      </trkpt>
      <trkpt lat="44.56956" lon="1.9699">
        <ele>331.1</ele>
        <time>2021-03-10T20:49:33.345383Z</time>
      </trkpt>
      <trkpt lat="44.56967" lon="1.96934">
        <ele>333.4</ele>
        <time>2021-03-10T20:49:47.179456Z</time>
      </trkpt>
      <trkpt lat="44.5698" lon="1.96819">
        <ele>335.5</ele>
        <time>2021-03-10T20:50:14.909271Z</time>
      </trkpt>
      <trkpt lat="44.56993" lon="1.96784">
        <ele>334.3</ele>
        <time>2021-03-10T20:50:24.309373Z</time>
      </trkpt>
      <trkpt lat="44.57016" lon="1.96758">
        <ele>333.6</ele>
        <time>2021-03-10T20:50:34.181312Z</time>
      </trkpt>
      <trkpt lat="44.5707" lon="1.96721">
        <ele>332.4</ele>
        <time>2021-03-10T20:50:54.268829Z</time>
      </trkpt>
      <trkpt lat="44.57093" lon="1.96693">
        <ele>331.3</ele>
        <time>2021-03-10T20:51:04.446219Z</time>
      </trkpt>
      <trkpt lat="44.57208" lon="1.96496">
        <ele>330.3</ele>
        <time>2021-03-10T20:52:05.099606Z</time>
      </trkpt>
      <trkpt lat="44.57219" lon="1.9647">
        <ele>329.8</ele>
        <time>2021-03-10T20:52:12.300889Z</time>
      </trkpt>
      <trkpt lat="44.57236" lon="1.96406">
        <ele>326.9</ele>
        <time>2021-03-10T20:52:28.566825Z</time>
      </trkpt>
      <trkpt lat="44.57248" lon="1.96343">
        <ele>325.3</ele>
        <time>2021-03-10T20:52:44.096584Z</time>
      </trkpt>
      <trkpt lat="44.57255" lon="1.9633">
        <ele>324.9</ele>
        <time>2021-03-10T20:52:47.977116Z</time>
      </trkpt>
      <trkpt lat="44.57344" lon="1.96219">
        <ele>326.4</ele>
        <time>2021-03-10T20:53:27.775254Z</time>
      </trkpt>
      <trkpt lat="44.5736" lon="1.96194">
        <ele>327</ele>
        <time>2021-03-10T20:53:35.778406Z</time>
      </trkpt>
      <trkpt lat="44.57369" lon="1.96166">
        <ele>328</ele>
        <time>2021-03-10T20:53:43.093491Z</time>
      </trkpt>
      <trkpt lat="44.57377" lon="1.96104">
        <ele>329.4</ele>
        <time>2021-03-10T20:53:58.097988Z</time>
      </trkpt>
      <trkpt lat="44.57382" lon="1.96089">
        <ele>329.2</ele>
        <time>2021-03-10T20:54:02.041612Z</time>
      </trkpt>
      <trkpt lat="44.57491" lon="1.95869">
        <ele>322.7</ele>
        <time>2021-03-10T20:55:05.856112Z</time>
      </trkpt>
      <trkpt lat="44.5754" lon="1.95756">
        <ele>319.5</ele>
        <time>2021-03-10T20:55:37.358098Z</time>
      </trkpt>
      <trkpt lat="44.57614" lon="1.95562">
        <ele>313.3</ele>
        <time>2021-03-10T20:56:29.760713Z</time>
      </trkpt>
      <trkpt lat="44.57628" lon="1.95531">
        <ele>312.7</ele>
        <time>2021-03-10T20:56:38.501076Z</time>
      </trkpt>
      <trkpt lat="44.57647" lon="1.95502">
        <ele>312.4</ele>
        <time>2021-03-10T20:56:47.883483Z</time>
      </trkpt>
      <trkpt lat="44.5771" lon="1.95443">
        <ele>310.3</ele>
        <time>2021-03-10T20:57:13.199864Z</time>
      </trkpt>
      <trkpt lat="44.57723" lon="1.95427">
        <ele>309.5</ele>
        <time>2021-03-10T20:57:18.979265Z</time>
      </trkpt>
      <trkpt lat="44.5775" lon="1.95373">
        <ele>306</ele>
        <time>2021-03-10T20:57:34.689284Z</time>
      </trkpt>
      <trkpt lat="44.57758" lon="1.95361">
        <ele>304.9</ele>
        <time>2021-03-10T20:57:38.602842Z</time>
      </trkpt>
      <trkpt lat="44.57769" lon="1.95353">
        <ele>303.6</ele>
        <time>2021-03-10T20:57:42.744145Z</time>
      </trkpt>
      <trkpt lat="44.57913" lon="1.95308">
        <ele>291.6</ele>
        <time>2021-03-10T20:58:32.060428Z</time>
      </trkpt>
      <trkpt lat="44.57991" lon="1.95305">
        <ele>284.5</ele>
        <time>2021-03-10T20:58:58.145029Z</time>
      </trkpt>
      <trkpt lat="44.58029" lon="1.95287">
        <ele>287.2</ele>
        <time>2021-03-10T20:59:11.551662Z</time>
      </trkpt>
      <trkpt lat="44.58059" lon="1.95263">
        <ele>283.5</ele>
        <time>2021-03-10T20:59:23.094244Z</time>
      </trkpt>
      <trkpt lat="44.58065" lon="1.95233">
        <ele>281.3</ele>
        <time>2021-03-10T20:59:30.513596Z</time>
      </trkpt>
      <trkpt lat="44.58066" lon="1.95211">
        <ele>280.4</ele>
        <time>2021-03-10T20:59:35.762509Z</time>
      </trkpt>
      <trkpt lat="44.58053" lon="1.95055">
        <ele>275.4</ele>
        <time>2021-03-10T21:00:13.160196Z</time>
      </trkpt>
      <trkpt lat="44.58059" lon="1.95018">
        <ele>273.3</ele>
        <time>2021-03-10T21:00:22.195542Z</time>
      </trkpt>
      <trkpt lat="44.58065" lon="1.95009">
        <ele>271.7</ele>
        <time>2021-03-10T21:00:25.130693Z</time>
      </trkpt>
      <trkpt lat="44.58063" lon="1.94985">
        <ele>273.7</ele>
        <time>2021-03-10T21:00:30.884243Z</time>
      </trkpt>
      <trkpt lat="44.58118" lon="1.9495">
        <ele>267.8</ele>
        <time>2021-03-10T21:00:51.070847Z</time>
      </trkpt>
      <trkpt lat="44.58126" lon="1.9494">
        <ele>267.6</ele>
        <time>2021-03-10T21:00:54.651695Z</time>
      </trkpt>
      <trkpt lat="44.58145" lon="1.94902">
        <ele>267.3</ele>
        <time>2021-03-10T21:01:05.706401Z</time>
      </trkpt>
      <trkpt lat="44.58152" lon="1.94883">
        <ele>266.7</ele>
        <time>2021-03-10T21:01:10.799677Z</time>
      </trkpt>
      <trkpt lat="44.58161" lon="1.94843">
        <ele>265</ele>
        <time>2021-03-10T21:01:20.787571Z</time>
      </trkpt>
      <trkpt lat="44.58169" lon="1.94788">
        <ele>260.7</ele>
        <time>2021-03-10T21:01:34.153402Z</time>
      </trkpt>
      <trkpt lat="44.5819" lon="1.94693">
        <ele>256.5</ele>
        <time>2021-03-10T21:01:57.837234Z</time>
      </trkpt>
      <trkpt lat="44.58203" lon="1.94652">
        <ele>254.5</ele>
        <time>2021-03-10T21:02:08.522946Z</time>
      </trkpt>
      <trkpt lat="44.58214" lon="1.94635">
        <ele>253.5</ele>
        <time>2021-03-10T21:02:13.991515Z</time>
      </trkpt>
      <trkpt lat="44.58271" lon="1.94576">
        <ele>248.2</ele>
        <time>2021-03-10T21:02:37.664683Z</time>
      </trkpt>
      <trkpt lat="44.58361" lon="1.94514">
        <ele>242</ele>
        <time>2021-03-10T21:03:11.177364Z</time>
      </trkpt>
      <trkpt lat="44.58379" lon="1.94496">
        <ele>240.6</ele>
        <time>2021-03-10T21:03:18.564807Z</time>
      </trkpt>
      <trkpt lat="44.58441" lon="1.9442">
        <ele>236.2</ele>
        <time>2021-03-10T21:03:46.07838Z</time>
      </trkpt>
      <trkpt lat="44.58505" lon="1.94378">
        <ele>230.2</ele>
        <time>2021-03-10T21:04:09.694651Z</time>
      </trkpt>
      <trkpt lat="44.58521" lon="1.94355">
        <ele>228.7</ele>
        <time>2021-03-10T21:04:17.349291Z</time>
      </trkpt>
      <trkpt lat="44.58544" lon="1.94292">
        <ele>227.5</ele>
        <time>2021-03-10T21:04:34.204482Z</time>
      </trkpt>
      <trkpt lat="44.58561" lon="1.94261">
        <ele>225.6</ele>
        <time>2021-03-10T21:04:43.519447Z</time>
      </trkpt>
      <trkpt lat="44.5858" lon="1.94241">
        <ele>223.9</ele>
        <time>2021-03-10T21:04:51.457652Z</time>
      </trkpt>
      <trkpt lat="44.58611" lon="1.94229">
        <ele>222</ele>
        <time>2021-03-10T21:05:02.20736Z</time>
      </trkpt>
      <trkpt lat="44.58654" lon="1.94235">
        <ele>219.1</ele>
        <time>2021-03-10T21:05:16.652761Z</time>
      </trkpt>
      <trkpt lat="44.58677" lon="1.94232">
        <ele>218</ele>
        <time>2021-03-10T21:05:24.374575Z</time>
      </trkpt>
      <trkpt lat="44.58715" lon="1.94209">
        <ele>215.6</ele>
        <time>2021-03-10T21:05:38.207647Z</time>
      </trkpt>
      <trkpt lat="44.58743" lon="1.94183">
        <ele>212.9</ele>
        <time>2021-03-10T21:05:49.429465Z</time>
      </trkpt>
      <trkpt lat="44.58781" lon="1.94134">
        <ele>210.5</ele>
        <time>2021-03-10T21:06:06.676447Z</time>
      </trkpt>
      <trkpt lat="44.5886" lon="1.94005">
        <ele>203.2</ele>
        <time>2021-03-10T21:06:47.181224Z</time>
      </trkpt>
      <trkpt lat="44.58882" lon="1.93975">
        <ele>201.9</ele>
        <time>2021-03-10T21:06:57.43298Z</time>
      </trkpt>
      <trkpt lat="44.58896" lon="1.93961">
        <ele>200.5</ele>
        <time>2021-03-10T21:07:03.178596Z</time>
      </trkpt>
      <trkpt lat="44.58932" lon="1.93937">
        <ele>196.7</ele>
        <time>2021-03-10T21:07:16.500626Z</time>
      </trkpt>
      <trkpt lat="44.58949" lon="1.93921">
        <ele>196.5</ele>
        <time>2021-03-10T21:07:23.342086Z</time>
      </trkpt>
      <trkpt lat="44.58984" lon="1.93878">
        <ele>193.5</ele>
        <time>2021-03-10T21:07:38.88849Z</time>
      </trkpt>
      <trkpt lat="44.59022" lon="1.93814">
        <ele>191.1</ele>
        <time>2021-03-10T21:07:58.725639Z</time>
      </trkpt>
      <trkpt lat="44.59046" lon="1.93782">
        <ele>188.9</ele>
        <time>2021-03-10T21:08:09.789258Z</time>
      </trkpt>
      <trkpt lat="44.5906" lon="1.93771">
        <ele>187.4</ele>
        <time>2021-03-10T21:08:15.152239Z</time>
      </trkpt>
      <trkpt lat="44.5909" lon="1.93757">
        <ele>185.7</ele>
        <time>2021-03-10T21:08:25.720326Z</time>
      </trkpt>
      <trkpt lat="44.59106" lon="1.9374">
        <ele>184.8</ele>
        <time>2021-03-10T21:08:32.427651Z</time>
      </trkpt>
      <trkpt lat="44.59141" lon="1.93659">
        <ele>181.3</ele>
        <time>2021-03-10T21:08:54.982636Z</time>
      </trkpt>
      <trkpt lat="44.59146" lon="1.93653">
        <ele>181.1</ele>
        <time>2021-03-10T21:08:57.181223Z</time>
      </trkpt>
      <trkpt lat="44.59158" lon="1.93644">
        <ele>180</ele>
        <time>2021-03-10T21:09:01.72902Z</time>
      </trkpt>
      <trkpt lat="44.59177" lon="1.93639">
        <ele>178.6</ele>
        <time>2021-03-10T21:09:08.191154Z</time>
      </trkpt>
      <trkpt lat="44.59198" lon="1.93641">
        <ele>177.8</ele>
        <time>2021-03-10T21:09:15.227431Z</time>
      </trkpt>
      <trkpt lat="44.59223" lon="1.9365">
        <ele>177</ele>
        <time>2021-03-10T21:09:23.855042Z</time>
      </trkpt>
      <trkpt lat="44.59568" lon="1.9392">
        <ele>180.6</ele>
        <time>2021-03-10T21:11:35.886556Z</time>
      </trkpt>
      <trkpt lat="44.59596" lon="1.93786">
        <ele>183.3</ele>
        <time>2021-03-10T21:12:09.129217Z</time>
      </trkpt>
      <trkpt lat="44.59624" lon="1.93698">
        <ele>181.7</ele>
        <time>2021-03-10T21:12:32.072979Z</time>
      </trkpt>
      <trkpt lat="44.59644" lon="1.93656">
        <ele>182.2</ele>
        <time>2021-03-10T21:12:44.10024Z</time>
      </trkpt>
      <trkpt lat="44.59744" lon="1.93496">
        <ele>181.4</ele>
        <time>2021-03-10T21:13:34.776301Z</time>
      </trkpt>
      <trkpt lat="44.59797" lon="1.93422">
        <ele>181.9</ele>
        <time>2021-03-10T21:13:59.759947Z</time>
      </trkpt>
      <trkpt lat="44.5992" lon="1.93266">
        <ele>181.2</ele>
        <time>2021-03-10T21:14:55.163353Z</time>
      </trkpt>
      <trkpt lat="44.5993" lon="1.93243">
        <ele>181.3</ele>
        <time>2021-03-10T21:15:01.577915Z</time>
      </trkpt>
      <trkpt lat="44.60115" lon="1.92751">
        <ele>180.2</ele>
        <time>2021-03-10T21:17:14.012674Z</time>
      </trkpt>
      <trkpt lat="44.60131" lon="1.92692">
        <ele>179.8</ele>
        <time>2021-03-10T21:17:29.039983Z</time>
      </trkpt>
      <trkpt lat="44.60179" lon="1.92452">
        <ele>179.9</ele>
        <time>2021-03-10T21:18:28.375347Z</time>
      </trkpt>
      <trkpt lat="44.60187" lon="1.92373">
        <ele>179.8</ele>
        <time>2021-03-10T21:18:47.367964Z</time>
      </trkpt>
      <trkpt lat="44.60187" lon="1.92321">
        <ele>179.7</ele>
        <time>2021-03-10T21:18:59.744905Z</time>
      </trkpt>
      <trkpt lat="44.60161" lon="1.91992">
        <ele>181</ele>
        <time>2021-03-10T21:20:18.533714Z</time>
      </trkpt>
      <trkpt lat="44.6015" lon="1.91949">
        <ele>181.3</ele>
        <time>2021-03-10T21:20:29.409047Z</time>
      </trkpt>
      <trkpt lat="44.60136" lon="1.9192">
        <ele>179.8</ele>
        <time>2021-03-10T21:20:37.748696Z</time>
      </trkpt>
      <trkpt lat="44.60076" lon="1.91822">
        <ele>178.4</ele>
        <time>2021-03-10T21:21:08.512463Z</time>
      </trkpt>
      <trkpt lat="44.6004" lon="1.91794">
        <ele>177.7</ele>
        <time>2021-03-10T21:21:22.269183Z</time>
      </trkpt>
      <trkpt lat="44.59993" lon="1.91774">
        <ele>179</ele>
        <time>2021-03-10T21:21:38.686259Z</time>
      </trkpt>
      <trkpt lat="44.59948" lon="1.91749">
        <ele>179.3</ele>
        <time>2021-03-10T21:21:54.863614Z</time>
      </trkpt>
      <trkpt lat="44.59908" lon="1.91716">
        <ele>179.3</ele>
        <time>2021-03-10T21:22:10.371747Z</time>
      </trkpt>
      <trkpt lat="44.59836" lon="1.91594">
        <ele>181.2</ele>
        <time>2021-03-10T21:22:48.089446Z</time>
      </trkpt>
      <trkpt lat="44.59823" lon="1.91567">
        <ele>182</ele>
        <time>2021-03-10T21:22:55.847622Z</time>
      </trkpt>
      <trkpt lat="44.59815" lon="1.91541">
        <ele>181.2</ele>
        <time>2021-03-10T21:23:02.589532Z</time>
      </trkpt>
      <trkpt lat="44.59812" lon="1.9152">
        <ele>180.9</ele>
        <time>2021-03-10T21:23:07.687922Z</time>
      </trkpt>
      <trkpt lat="44.59814" lon="1.91462">
        <ele>181.2</ele>
        <time>2021-03-10T21:23:21.510037Z</time>
      </trkpt>
      <trkpt lat="44.5986" lon="1.91052">
        <ele>178.6</ele>
        <time>2021-03-10T21:25:00.307155Z</time>
      </trkpt>
      <trkpt lat="44.59866" lon="1.91029">
        <ele>177.8</ele>
        <time>2021-03-10T21:25:06.137705Z</time>
      </trkpt>
      <trkpt lat="44.59885" lon="1.90982">
        <ele>178.2</ele>
        <time>2021-03-10T21:25:19.002432Z</time>
      </trkpt>
      <trkpt lat="44.5996" lon="1.90827">
        <ele>177.9</ele>
        <time>2021-03-10T21:26:03.609596Z</time>
      </trkpt>
      <trkpt lat="44.59982" lon="1.90794">
        <ele>177.7</ele>
        <time>2021-03-10T21:26:14.369982Z</time>
      </trkpt>
      <trkpt lat="44.60014" lon="1.90762">
        <ele>177.7</ele>
        <time>2021-03-10T21:26:27.501992Z</time>
      </trkpt>
      <trkpt lat="44.60058" lon="1.90732">
        <ele>177.8</ele>
        <time>2021-03-10T21:26:43.852592Z</time>
      </trkpt>
      <trkpt lat="44.60261" lon="1.90609">
        <ele>177.6</ele>
        <time>2021-03-10T21:27:57.759806Z</time>
      </trkpt>
      <trkpt lat="44.60294" lon="1.90586">
        <ele>177.5</ele>
        <time>2021-03-10T21:28:10.075023Z</time>
      </trkpt>
      <trkpt lat="44.6035" lon="1.90558">
        <ele>177.5</ele>
        <time>2021-03-10T21:28:29.946266Z</time>
      </trkpt>
      <trkpt lat="44.60393" lon="1.90551">
        <ele>176.8</ele>
        <time>2021-03-10T21:28:44.41705Z</time>
      </trkpt>
      <trkpt lat="44.6042" lon="1.90552">
        <ele>176.7</ele>
        <time>2021-03-10T21:28:53.446037Z</time>
      </trkpt>
      <trkpt lat="44.60447" lon="1.90558">
        <ele>177.2</ele>
        <time>2021-03-10T21:29:02.584251Z</time>
      </trkpt>
      <trkpt lat="44.60497" lon="1.90579">
        <ele>177</ele>
        <time>2021-03-10T21:29:20.030179Z</time>
      </trkpt>
      <trkpt lat="44.6069" lon="1.90673">
        <ele>176.8</ele>
        <time>2021-03-10T21:30:28.31742Z</time>
      </trkpt>
      <trkpt lat="44.60846" lon="1.90722">
        <ele>177</ele>
        <time>2021-03-10T21:31:21.75508Z</time>
      </trkpt>
      <trkpt lat="44.60882" lon="1.90721">
        <ele>176.8</ele>
        <time>2021-03-10T21:31:33.791955Z</time>
      </trkpt>
      <trkpt lat="44.60917" lon="1.90708">
        <ele>177.5</ele>
        <time>2021-03-10T21:31:45.894363Z</time>
      </trkpt>
      <trkpt lat="44.60968" lon="1.9067">
        <ele>177.8</ele>
        <time>2021-03-10T21:32:05.193359Z</time>
      </trkpt>
      <trkpt lat="44.60986" lon="1.90642">
        <ele>178.2</ele>
        <time>2021-03-10T21:32:14.171681Z</time>
      </trkpt>
      <trkpt lat="44.60998" lon="1.90599">
        <ele>183.9</ele>
        <time>2021-03-10T21:32:25.163204Z</time>
      </trkpt>
      <trkpt lat="44.61004" lon="1.90565">
        <ele>182.6</ele>
        <time>2021-03-10T21:32:33.499532Z</time>
      </trkpt>
      <trkpt lat="44.61008" lon="1.90518">
        <ele>187.4</ele>
        <time>2021-03-10T21:32:44.764386Z</time>
      </trkpt>
      <trkpt lat="44.61004" lon="1.90453">
        <ele>181.7</ele>
        <time>2021-03-10T21:33:00.291024Z</time>
      </trkpt>
      <trkpt lat="44.6099" lon="1.90402">
        <ele>180.6</ele>
        <time>2021-03-10T21:33:13.299288Z</time>
      </trkpt>
      <trkpt lat="44.60907" lon="1.90233">
        <ele>179.4</ele>
        <time>2021-03-10T21:34:02.161132Z</time>
      </trkpt>
      <trkpt lat="44.60888" lon="1.90209">
        <ele>175.8</ele>
        <time>2021-03-10T21:34:10.703106Z</time>
      </trkpt>
      <trkpt lat="44.60779" lon="1.90108">
        <ele>174.6</ele>
        <time>2021-03-10T21:34:54.355181Z</time>
      </trkpt>
      <trkpt lat="44.60763" lon="1.90088">
        <ele>174.4</ele>
        <time>2021-03-10T21:35:01.515113Z</time>
      </trkpt>
      <trkpt lat="44.60749" lon="1.90061">
        <ele>174.5</ele>
        <time>2021-03-10T21:35:09.464599Z</time>
      </trkpt>
      <trkpt lat="44.60659" lon="1.89692">
        <ele>175</ele>
        <time>2021-03-10T21:36:42.295912Z</time>
      </trkpt>
      <trkpt lat="44.6065" lon="1.89559">
        <ele>174.8</ele>
        <time>2021-03-10T21:37:14.092355Z</time>
      </trkpt>
      <trkpt lat="44.60651" lon="1.89497">
        <ele>174.9</ele>
        <time>2021-03-10T21:37:28.852044Z</time>
      </trkpt>
      <trkpt lat="44.60655" lon="1.89447">
        <ele>174.3</ele>
        <time>2021-03-10T21:37:40.826837Z</time>
      </trkpt>
      <trkpt lat="44.60661" lon="1.89412">
        <ele>174.5</ele>
        <time>2021-03-10T21:37:49.394853Z</time>
      </trkpt>
      <trkpt lat="44.60672" lon="1.89367">
        <ele>174.2</ele>
        <time>2021-03-10T21:38:00.718489Z</time>
      </trkpt>
      <trkpt lat="44.60694" lon="1.89318">
        <ele>174.4</ele>
        <time>2021-03-10T21:38:14.5057Z</time>
      </trkpt>
      <trkpt lat="44.60736" lon="1.89264">
        <ele>174.5</ele>
        <time>2021-03-10T21:38:33.539853Z</time>
      </trkpt>
      <trkpt lat="44.60758" lon="1.89243">
        <ele>174.8</ele>
        <time>2021-03-10T21:38:42.431794Z</time>
      </trkpt>
      <trkpt lat="44.60898" lon="1.89124">
        <ele>174.6</ele>
        <time>2021-03-10T21:39:37.134707Z</time>
      </trkpt>
      <trkpt lat="44.60928" lon="1.89082">
        <ele>173.8</ele>
        <time>2021-03-10T21:39:51.293995Z</time>
      </trkpt>
      <trkpt lat="44.60956" lon="1.89021">
        <ele>174.6</ele>
        <time>2021-03-10T21:40:08.567147Z</time>
      </trkpt>
      <trkpt lat="44.6097" lon="1.88969">
        <ele>173.9</ele>
        <time>2021-03-10T21:40:21.797787Z</time>
      </trkpt>
      <trkpt lat="44.60975" lon="1.889">
        <ele>174.3</ele>
        <time>2021-03-10T21:40:38.303638Z</time>
      </trkpt>
      <trkpt lat="44.60966" lon="1.88833">
        <ele>173.6</ele>
        <time>2021-03-10T21:40:54.530038Z</time>
      </trkpt>
      <trkpt lat="44.60942" lon="1.8872">
        <ele>173.8</ele>
        <time>2021-03-10T21:41:22.593758Z</time>
      </trkpt>
      <trkpt lat="44.60917" lon="1.8865">
        <ele>173.3</ele>
        <time>2021-03-10T21:41:41.231644Z</time>
      </trkpt>
      <trkpt lat="44.6088" lon="1.88583">
        <ele>173.8</ele>
        <time>2021-03-10T21:42:01.411791Z</time>
      </trkpt>
      <trkpt lat="44.60839" lon="1.88532">
        <ele>174.3</ele>
        <time>2021-03-10T21:42:19.719525Z</time>
      </trkpt>
      <trkpt lat="44.60821" lon="1.88513">
        <ele>174.3</ele>
        <time>2021-03-10T21:42:27.246462Z</time>
      </trkpt>
      <trkpt lat="44.60796" lon="1.88493">
        <ele>174.5</ele>
        <time>2021-03-10T21:42:36.86424Z</time>
      </trkpt>
      <trkpt lat="44.60616" lon="1.88382">
        <ele>174.4</ele>
        <time>2021-03-10T21:43:42.580617Z</time>
      </trkpt>
      <trkpt lat="44.6055" lon="1.88358">
        <ele>173.2</ele>
        <time>2021-03-10T21:44:05.37138Z</time>
      </trkpt>
      <trkpt lat="44.60483" lon="1.88342">
        <ele>173.9</ele>
        <time>2021-03-10T21:44:28.090402Z</time>
      </trkpt>
      <trkpt lat="44.60443" lon="1.88325">
        <ele>172.2</ele>
        <time>2021-03-10T21:44:42.060853Z</time>
      </trkpt>
      <trkpt lat="44.60195" lon="1.88152">
        <ele>172.7</ele>
        <time>2021-03-10T21:46:14.627821Z</time>
      </trkpt>
      <trkpt lat="44.60124" lon="1.8808">
        <ele>172.3</ele>
        <time>2021-03-10T21:46:43.902883Z</time>
      </trkpt>
      <trkpt lat="44.60058" lon="1.88006">
        <ele>172.7</ele>
        <time>2021-03-10T21:47:12.134598Z</time>
      </trkpt>
      <trkpt lat="44.60041" lon="1.87983">
        <ele>172.7</ele>
        <time>2021-03-10T21:47:20.025563Z</time>
      </trkpt>
      <trkpt lat="44.60022" lon="1.87941">
        <ele>172.6</ele>
        <time>2021-03-10T21:47:31.869645Z</time>
      </trkpt>
      <trkpt lat="44.60002" lon="1.87859">
        <ele>172.3</ele>
        <time>2021-03-10T21:47:52.501004Z</time>
      </trkpt>
      <trkpt lat="44.59992" lon="1.87833">
        <ele>173.6</ele>
        <time>2021-03-10T21:47:59.534849Z</time>
      </trkpt>
      <trkpt lat="44.59978" lon="1.8781">
        <ele>172.8</ele>
        <time>2021-03-10T21:48:06.737263Z</time>
      </trkpt>
      <trkpt lat="44.59957" lon="1.87786">
        <ele>172</ele>
        <time>2021-03-10T21:48:15.788057Z</time>
      </trkpt>
      <trkpt lat="44.59598" lon="1.87433">
        <ele>174.2</ele>
        <time>2021-03-10T21:50:42.290784Z</time>
      </trkpt>
      <trkpt lat="44.5958" lon="1.87418">
        <ele>172.1</ele>
        <time>2021-03-10T21:50:49.287705Z</time>
      </trkpt>
      <trkpt lat="44.59561" lon="1.87408">
        <ele>173.4</ele>
        <time>2021-03-10T21:50:56.070691Z</time>
      </trkpt>
      <trkpt lat="44.59151" lon="1.87256">
        <ele>173.8</ele>
        <time>2021-03-10T21:53:17.826549Z</time>
      </trkpt>
      <trkpt lat="44.59129" lon="1.87241">
        <ele>171.1</ele>
        <time>2021-03-10T21:53:26.002098Z</time>
      </trkpt>
      <trkpt lat="44.59101" lon="1.87213">
        <ele>170.9</ele>
        <time>2021-03-10T21:53:37.493153Z</time>
      </trkpt>
      <trkpt lat="44.59081" lon="1.87178">
        <ele>171.3</ele>
        <time>2021-03-10T21:53:48.176082Z</time>
      </trkpt>
      <trkpt lat="44.59075" lon="1.8716">
        <ele>171</ele>
        <time>2021-03-10T21:53:52.907356Z</time>
      </trkpt>
      <trkpt lat="44.5907" lon="1.87132">
        <ele>171.2</ele>
        <time>2021-03-10T21:53:59.779525Z</time>
      </trkpt>
      <trkpt lat="44.5907" lon="1.871">
        <ele>171.4</ele>
        <time>2021-03-10T21:54:07.397576Z</time>
      </trkpt>
      <trkpt lat="44.59077" lon="1.87063">
        <ele>170.8</ele>
        <time>2021-03-10T21:54:16.511422Z</time>
      </trkpt>
      <trkpt lat="44.59097" lon="1.87005">
        <ele>171.1</ele>
        <time>2021-03-10T21:54:31.852593Z</time>
      </trkpt>
      <trkpt lat="44.59132" lon="1.86933">
        <ele>170.6</ele>
        <time>2021-03-10T21:54:52.605675Z</time>
      </trkpt>
      <trkpt lat="44.59223" lon="1.86794">
        <ele>171.3</ele>
        <time>2021-03-10T21:55:37.554262Z</time>
      </trkpt>
      <trkpt lat="44.59301" lon="1.86687">
        <ele>171.2</ele>
        <time>2021-03-10T21:56:14.005824Z</time>
      </trkpt>
      <trkpt lat="44.59351" lon="1.86609">
        <ele>172.8</ele>
        <time>2021-03-10T21:56:38.9889Z</time>
      </trkpt>
      <trkpt lat="44.5936" lon="1.86591">
        <ele>171.5</ele>
        <time>2021-03-10T21:56:44.224604Z</time>
      </trkpt>
      <trkpt lat="44.59408" lon="1.8645">
        <ele>171.1</ele>
        <time>2021-03-10T21:57:21.427994Z</time>
      </trkpt>
      <trkpt lat="44.59422" lon="1.86393">
        <ele>172.6</ele>
        <time>2021-03-10T21:57:35.78127Z</time>
      </trkpt>
      <trkpt lat="44.59425" lon="1.86348">
        <ele>171.6</ele>
        <time>2021-03-10T21:57:46.540293Z</time>
      </trkpt>
      <trkpt lat="44.59422" lon="1.86301">
        <ele>173.3</ele>
        <time>2021-03-10T21:57:57.77343Z</time>
      </trkpt>
      <trkpt lat="44.5935" lon="1.8583">
        <ele>168.3</ele>
        <time>2021-03-10T21:59:52.44947Z</time>
      </trkpt>
      <trkpt lat="44.59347" lon="1.85777">
        <ele>168</ele>
        <time>2021-03-10T22:00:05.106027Z</time>
      </trkpt>
      <trkpt lat="44.59355" lon="1.85719">
        <ele>169.3</ele>
        <time>2021-03-10T22:00:19.169664Z</time>
      </trkpt>
      <trkpt lat="44.59458" lon="1.85353">
        <ele>171</ele>
        <time>2021-03-10T22:01:52.852807Z</time>
      </trkpt>
      <trkpt lat="44.59475" lon="1.85281">
        <ele>170.3</ele>
        <time>2021-03-10T22:02:10.909789Z</time>
      </trkpt>
      <trkpt lat="44.59496" lon="1.85069">
        <ele>169.7</ele>
        <time>2021-03-10T22:03:01.861533Z</time>
      </trkpt>
      <trkpt lat="44.59497" lon="1.85038">
        <ele>169.5</ele>
        <time>2021-03-10T22:03:09.248535Z</time>
      </trkpt>
      <trkpt lat="44.59484" lon="1.84473">
        <ele>169.5</ele>
        <time>2021-03-10T22:05:23.814734Z</time>
      </trkpt>
      <trkpt lat="44.59487" lon="1.84403">
        <ele>169.4</ele>
        <time>2021-03-10T22:05:40.508142Z</time>
      </trkpt>
      <trkpt lat="44.59495" lon="1.84365">
        <ele>169.4</ele>
        <time>2021-03-10T22:05:49.940943Z</time>
      </trkpt>
      <trkpt lat="44.59516" lon="1.84318">
        <ele>169.2</ele>
        <time>2021-03-10T22:06:03.149122Z</time>
      </trkpt>
      <trkpt lat="44.5953" lon="1.84272">
        <ele>168.2</ele>
        <time>2021-03-10T22:06:15.057371Z</time>
      </trkpt>
      <trkpt lat="44.59537" lon="1.84221">
        <ele>165.3</ele>
        <time>2021-03-10T22:06:27.421076Z</time>
      </trkpt>
      <trkpt lat="44.59538" lon="1.84195">
        <ele>164.4</ele>
        <time>2021-03-10T22:06:33.619214Z</time>
      </trkpt>
      <trkpt lat="44.59536" lon="1.84159">
        <ele>165.8</ele>
        <time>2021-03-10T22:06:42.214853Z</time>
      </trkpt>
      <trkpt lat="44.59528" lon="1.84118">
        <ele>167.8</ele>
        <time>2021-03-10T22:06:52.334451Z</time>
      </trkpt>
      <trkpt lat="44.59512" lon="1.84074">
        <ele>167.6</ele>
        <time>2021-03-10T22:07:04.095089Z</time>
      </trkpt>
      <trkpt lat="44.59447" lon="1.83923">
        <ele>168.8</ele>
        <time>2021-03-10T22:07:46.09741Z</time>
      </trkpt>
      <trkpt lat="44.59436" lon="1.83905">
        <ele>168.7</ele>
        <time>2021-03-10T22:07:51.743776Z</time>
      </trkpt>
      <trkpt lat="44.59422" lon="1.83889">
        <ele>168.3</ele>
        <time>2021-03-10T22:07:57.777826Z</time>
      </trkpt>
      <trkpt lat="44.59378" lon="1.83859">
        <ele>169.1</ele>
        <time>2021-03-10T22:08:14.128726Z</time>
      </trkpt>
      <trkpt lat="44.59326" lon="1.83842">
        <ele>170.2</ele>
        <time>2021-03-10T22:08:31.976802Z</time>
      </trkpt>
      <trkpt lat="44.59323" lon="1.83861">
        <ele>163.7</ele>
        <time>2021-03-10T22:08:36.609778Z</time>
      </trkpt>
      <trkpt lat="44.59305" lon="1.83922">
        <ele>165.4</ele>
        <time>2021-03-10T22:08:52.328402Z</time>
      </trkpt>
      <trkpt lat="44.593" lon="1.83992">
        <ele>168.5</ele>
        <time>2021-03-10T22:09:09.075813Z</time>
      </trkpt>
      <trkpt lat="44.59295" lon="1.84012">
        <ele>169.3</ele>
        <time>2021-03-10T22:09:14.121688Z</time>
      </trkpt>
      <trkpt lat="44.59227" lon="1.8405">
        <ele>169.9</ele>
        <time>2021-03-10T22:09:38.587399Z</time>
      </trkpt>
      <trkpt lat="44.59227" lon="1.84072">
        <ele>172.5</ele>
        <time>2021-03-10T22:09:43.824582Z</time>
      </trkpt>
      <trkpt lat="44.592" lon="1.84088">
        <ele>172.5</ele>
        <time>2021-03-10T22:09:53.621269Z</time>
      </trkpt>
      <trkpt lat="44.59227" lon="1.84072">
        <ele>172.5</ele>
        <time>2021-03-10T22:10:03.417956Z</time>
      </trkpt>
      <trkpt lat="44.59227" lon="1.8405">
        <ele>169.9</ele>
        <time>2021-03-10T22:10:08.655138Z</time>
      </trkpt>
      <trkpt lat="44.59295" lon="1.84012">
        <ele>169.3</ele>
        <time>2021-03-10T22:10:33.120849Z</time>
      </trkpt>
      <trkpt lat="44.593" lon="1.83992">
        <ele>168.5</ele>
        <time>2021-03-10T22:10:38.166724Z</time>
      </trkpt>
      <trkpt lat="44.59305" lon="1.83922">
        <ele>165.4</ele>
        <time>2021-03-10T22:10:54.914135Z</time>
      </trkpt>
      <trkpt lat="44.59323" lon="1.83861">
        <ele>163.7</ele>
        <time>2021-03-10T22:11:10.632759Z</time>
      </trkpt>
      <trkpt lat="44.59326" lon="1.83842">
        <ele>170.2</ele>
        <time>2021-03-10T22:11:15.265735Z</time>
      </trkpt>
      <trkpt lat="44.59309" lon="1.83838">
        <ele>167.9</ele>
        <time>2021-03-10T22:11:21.027915Z</time>
      </trkpt>
      <trkpt lat="44.5928" lon="1.83844">
        <ele>172</ele>
        <time>2021-03-10T22:11:30.827096Z</time>
      </trkpt>
      <trkpt lat="44.5915" lon="1.83894">
        <ele>171.4</ele>
        <time>2021-03-10T22:12:15.885744Z</time>
      </trkpt>
      <trkpt lat="44.59068" lon="1.83937">
        <ele>165.2</ele>
        <time>2021-03-10T22:12:45.146751Z</time>
      </trkpt>
      <trkpt lat="44.5895" lon="1.84039">
        <ele>169.1</ele>
        <time>2021-03-10T22:13:31.468227Z</time>
      </trkpt>
      <trkpt lat="44.58846" lon="1.84151">
        <ele>169.5</ele>
        <time>2021-03-10T22:14:15.282239Z</time>
      </trkpt>
      <trkpt lat="44.58786" lon="1.84246">
        <ele>169.8</ele>
        <time>2021-03-10T22:14:45.511925Z</time>
      </trkpt>
      <trkpt lat="44.58685" lon="1.84438">
        <ele>167.2</ele>
        <time>2021-03-10T22:15:42.340208Z</time>
      </trkpt>
      <trkpt lat="44.58662" lon="1.84474">
        <ele>166.8</ele>
        <time>2021-03-10T22:15:53.854385Z</time>
      </trkpt>
      <trkpt lat="44.58632" lon="1.84506">
        <ele>166.5</ele>
        <time>2021-03-10T22:16:06.448778Z</time>
      </trkpt>
      <trkpt lat="44.58622" lon="1.84511">
        <ele>166.2</ele>
        <time>2021-03-10T22:16:09.99729Z</time>
      </trkpt>
      <trkpt lat="44.58596" lon="1.84513">
        <ele>166.7</ele>
        <time>2021-03-10T22:16:18.701932Z</time>
      </trkpt>
      <trkpt lat="44.58581" lon="1.84506">
        <ele>167.4</ele>
        <time>2021-03-10T22:16:23.98611Z</time>
      </trkpt>
      <trkpt lat="44.58574" lon="1.84499">
        <ele>167.4</ele>
        <time>2021-03-10T22:16:26.859273Z</time>
      </trkpt>
      <trkpt lat="44.58561" lon="1.84478">
        <ele>167.2</ele>
        <time>2021-03-10T22:16:33.483745Z</time>
      </trkpt>
      <trkpt lat="44.58554" lon="1.84451">
        <ele>166.9</ele>
        <time>2021-03-10T22:16:40.324668Z</time>
      </trkpt>
      <trkpt lat="44.58554" lon="1.84407">
        <ele>166.9</ele>
        <time>2021-03-10T22:16:50.800434Z</time>
      </trkpt>
      <trkpt lat="44.58618" lon="1.84133">
        <ele>167</ele>
        <time>2021-03-10T22:17:59.453982Z</time>
      </trkpt>
      <trkpt lat="44.58672" lon="1.83929">
        <ele>167.8</ele>
        <time>2021-03-10T22:18:51.268689Z</time>
      </trkpt>
      <trkpt lat="44.58679" lon="1.83894">
        <ele>169.1</ele>
        <time>2021-03-10T22:18:59.923826Z</time>
      </trkpt>
      <trkpt lat="44.58691" lon="1.83805">
        <ele>166.5</ele>
        <time>2021-03-10T22:19:21.489218Z</time>
      </trkpt>
      <trkpt lat="44.58701" lon="1.83569">
        <ele>168.4</ele>
        <time>2021-03-10T22:20:17.77512Z</time>
      </trkpt>
      <trkpt lat="44.58692" lon="1.83476">
        <ele>166.5</ele>
        <time>2021-03-10T22:20:40.119908Z</time>
      </trkpt>
      <trkpt lat="44.58672" lon="1.83394">
        <ele>166.8</ele>
        <time>2021-03-10T22:21:00.75551Z</time>
      </trkpt>
      <trkpt lat="44.58653" lon="1.83341">
        <ele>168.3</ele>
        <time>2021-03-10T22:21:14.882141Z</time>
      </trkpt>
      <trkpt lat="44.58638" lon="1.83315">
        <ele>166.8</ele>
        <time>2021-03-10T22:21:22.848414Z</time>
      </trkpt>
      <trkpt lat="44.58623" lon="1.83296">
        <ele>167.8</ele>
        <time>2021-03-10T22:21:29.601671Z</time>
      </trkpt>
      <trkpt lat="44.58601" lon="1.83274">
        <ele>167.7</ele>
        <time>2021-03-10T22:21:38.630568Z</time>
      </trkpt>
      <trkpt lat="44.58537" lon="1.83236">
        <ele>167.2</ele>
        <time>2021-03-10T22:22:01.85957Z</time>
      </trkpt>
      <trkpt lat="44.58522" lon="1.83231">
        <ele>167.3</ele>
        <time>2021-03-10T22:22:07.01342Z</time>
      </trkpt>
      <trkpt lat="44.58468" lon="1.8323">
        <ele>168.2</ele>
        <time>2021-03-10T22:22:25.066792Z</time>
      </trkpt>
      <trkpt lat="44.58444" lon="1.83234">
        <ele>169.1</ele>
        <time>2021-03-10T22:22:33.146073Z</time>
      </trkpt>
      <trkpt lat="44.58405" lon="1.83247">
        <ele>167.1</ele>
        <time>2021-03-10T22:22:46.545869Z</time>
      </trkpt>
      <trkpt lat="44.58327" lon="1.83284">
        <ele>166.6</ele>
        <time>2021-03-10T22:23:14.068633Z</time>
      </trkpt>
      <trkpt lat="44.5789" lon="1.83517">
        <ele>165.6</ele>
        <time>2021-03-10T22:25:50.334114Z</time>
      </trkpt>
      <trkpt lat="44.57866" lon="1.83525">
        <ele>164.4</ele>
        <time>2021-03-10T22:25:58.580251Z</time>
      </trkpt>
      <trkpt lat="44.57827" lon="1.83532">
        <ele>165.2</ele>
        <time>2021-03-10T22:26:11.723762Z</time>
      </trkpt>
      <trkpt lat="44.57799" lon="1.83532">
        <ele>165.2</ele>
        <time>2021-03-10T22:26:21.084003Z</time>
      </trkpt>
      <trkpt lat="44.57748" lon="1.83526">
        <ele>165.9</ele>
        <time>2021-03-10T22:26:38.192729Z</time>
      </trkpt>
      <trkpt lat="44.57725" lon="1.83518">
        <ele>164.9</ele>
        <time>2021-03-10T22:26:46.113933Z</time>
      </trkpt>
      <trkpt lat="44.5771" lon="1.83508">
        <ele>165</ele>
        <time>2021-03-10T22:26:51.665Z</time>
      </trkpt>
      <trkpt lat="44.57697" lon="1.83495">
        <ele>165.3</ele>
        <time>2021-03-10T22:26:57.000647Z</time>
      </trkpt>
      <trkpt lat="44.57683" lon="1.83475">
        <ele>165.1</ele>
        <time>2021-03-10T22:27:03.677785Z</time>
      </trkpt>
      <trkpt lat="44.57671" lon="1.83451">
        <ele>165.1</ele>
        <time>2021-03-10T22:27:10.66008Z</time>
      </trkpt>
      <trkpt lat="44.57661" lon="1.83416">
        <ele>165.4</ele>
        <time>2021-03-10T22:27:19.639763Z</time>
      </trkpt>
      <trkpt lat="44.57648" lon="1.83328">
        <ele>165.7</ele>
        <time>2021-03-10T22:27:41.040325Z</time>
      </trkpt>
      <trkpt lat="44.57652" lon="1.83326">
        <ele>165.9</ele>
        <time>2021-03-10T22:27:42.459937Z</time>
      </trkpt>
      <trkpt lat="44.57654" lon="1.83319">
        <ele>166.1</ele>
        <time>2021-03-10T22:27:44.255755Z</time>
      </trkpt>
      <trkpt lat="44.5765" lon="1.83312">
        <ele>165.8</ele>
        <time>2021-03-10T22:27:46.392715Z</time>
      </trkpt>
      <trkpt lat="44.57647" lon="1.83312">
        <ele>165.6</ele>
        <time>2021-03-10T22:27:47.395314Z</time>
      </trkpt>
      <trkpt lat="44.57583" lon="1.82627">
        <ele>164.4</ele>
        <time>2021-03-10T22:30:31.906587Z</time>
      </trkpt>
      <trkpt lat="44.57567" lon="1.82551">
        <ele>163.7</ele>
        <time>2021-03-10T22:30:50.777888Z</time>
      </trkpt>
      <trkpt lat="44.57538" lon="1.82461">
        <ele>164.6</ele>
        <time>2021-03-10T22:31:14.299857Z</time>
      </trkpt>
      <trkpt lat="44.57513" lon="1.82403">
        <ele>165.2</ele>
        <time>2021-03-10T22:31:30.442935Z</time>
      </trkpt>
      <trkpt lat="44.57437" lon="1.82256">
        <ele>164.3</ele>
        <time>2021-03-10T22:32:13.69593Z</time>
      </trkpt>
      <trkpt lat="44.57402" lon="1.82214">
        <ele>163.9</ele>
        <time>2021-03-10T22:32:29.088362Z</time>
      </trkpt>
      <trkpt lat="44.57371" lon="1.82196">
        <ele>162.9</ele>
        <time>2021-03-10T22:32:40.302992Z</time>
      </trkpt>
      <trkpt lat="44.57337" lon="1.8219">
        <ele>163.3</ele>
        <time>2021-03-10T22:32:51.758405Z</time>
      </trkpt>
      <trkpt lat="44.57316" lon="1.82193">
        <ele>162.9</ele>
        <time>2021-03-10T22:32:58.814913Z</time>
      </trkpt>
      <trkpt lat="44.5725" lon="1.82214">
        <ele>162.6</ele>
        <time>2021-03-10T22:33:21.437892Z</time>
      </trkpt>
      <trkpt lat="44.57224" lon="1.82225">
        <ele>163.8</ele>
        <time>2021-03-10T22:33:30.515646Z</time>
      </trkpt>
      <trkpt lat="44.57195" lon="1.82244">
        <ele>164.3</ele>
        <time>2021-03-10T22:33:41.214005Z</time>
      </trkpt>
      <trkpt lat="44.57103" lon="1.82327">
        <ele>163.7</ele>
        <time>2021-03-10T22:34:17.772876Z</time>
      </trkpt>
      <trkpt lat="44.57057" lon="1.8238">
        <ele>163.3</ele>
        <time>2021-03-10T22:34:37.66694Z</time>
      </trkpt>
      <trkpt lat="44.56828" lon="1.82682">
        <ele>161.5</ele>
        <time>2021-03-10T22:36:22.70531Z</time>
      </trkpt>
      <trkpt lat="44.56811" lon="1.82693">
        <ele>161.5</ele>
        <time>2021-03-10T22:36:28.963026Z</time>
      </trkpt>
      <trkpt lat="44.56788" lon="1.82696">
        <ele>162.4</ele>
        <time>2021-03-10T22:36:36.684945Z</time>
      </trkpt>
      <trkpt lat="44.56773" lon="1.82692">
        <ele>163.1</ele>
        <time>2021-03-10T22:36:41.789005Z</time>
      </trkpt>
      <trkpt lat="44.56759" lon="1.82682">
        <ele>163.3</ele>
        <time>2021-03-10T22:36:47.040167Z</time>
      </trkpt>
      <trkpt lat="44.56747" lon="1.82663">
        <ele>162.9</ele>
        <time>2021-03-10T22:36:53.087231Z</time>
      </trkpt>
      <trkpt lat="44.5674" lon="1.82637">
        <ele>163.3</ele>
        <time>2021-03-10T22:36:59.706782Z</time>
      </trkpt>
      <trkpt lat="44.56739" lon="1.82614">
        <ele>162.9</ele>
        <time>2021-03-10T22:37:05.194682Z</time>
      </trkpt>
      <trkpt lat="44.5676" lon="1.82154">
        <ele>163</ele>
        <time>2021-03-10T22:38:54.972186Z</time>
      </trkpt>
      <trkpt lat="44.56758" lon="1.82056">
        <ele>161.6</ele>
        <time>2021-03-10T22:39:18.32123Z</time>
      </trkpt>
      <trkpt lat="44.56747" lon="1.81936">
        <ele>163</ele>
        <time>2021-03-10T22:39:47.135805Z</time>
      </trkpt>
      <trkpt lat="44.56708" lon="1.81627">
        <ele>167.4</ele>
        <time>2021-03-10T22:41:01.872924Z</time>
      </trkpt>
      <trkpt lat="44.56691" lon="1.8156">
        <ele>164.9</ele>
        <time>2021-03-10T22:41:18.811446Z</time>
      </trkpt>
      <trkpt lat="44.56573" lon="1.81292">
        <ele>159.3</ele>
        <time>2021-03-10T22:42:33.844813Z</time>
      </trkpt>
      <trkpt lat="44.56521" lon="1.8112">
        <ele>164.9</ele>
        <time>2021-03-10T22:43:18.345138Z</time>
      </trkpt>
      <trkpt lat="44.56335" lon="1.80454">
        <ele>162.2</ele>
        <time>2021-03-10T22:46:08.718717Z</time>
      </trkpt>
      <trkpt lat="44.56331" lon="1.80409">
        <ele>162.6</ele>
        <time>2021-03-10T22:46:19.51968Z</time>
      </trkpt>
      <trkpt lat="44.56335" lon="1.80383">
        <ele>162</ele>
        <time>2021-03-10T22:46:25.85489Z</time>
      </trkpt>
      <trkpt lat="44.56343" lon="1.80357">
        <ele>161.9</ele>
        <time>2021-03-10T22:46:32.600242Z</time>
      </trkpt>
      <trkpt lat="44.56356" lon="1.80329">
        <ele>161.7</ele>
        <time>2021-03-10T22:46:40.560173Z</time>
      </trkpt>
      <trkpt lat="44.56384" lon="1.80292">
        <ele>160.9</ele>
        <time>2021-03-10T22:46:53.416Z</time>
      </trkpt>
      <trkpt lat="44.56412" lon="1.80269">
        <ele>160.7</ele>
        <time>2021-03-10T22:47:04.261293Z</time>
      </trkpt>
      <trkpt lat="44.56445" lon="1.80252">
        <ele>161.1</ele>
        <time>2021-03-10T22:47:16.012508Z</time>
      </trkpt>
      <trkpt lat="44.565" lon="1.80236">
        <ele>160.5</ele>
        <time>2021-03-10T22:47:34.789386Z</time>
      </trkpt>
      <trkpt lat="44.56533" lon="1.80235">
        <ele>160.9</ele>
        <time>2021-03-10T22:47:45.823625Z</time>
      </trkpt>
      <trkpt lat="44.56577" lon="1.80244">
        <ele>161.6</ele>
        <time>2021-03-10T22:48:00.687861Z</time>
      </trkpt>
      <trkpt lat="44.56646" lon="1.80271">
        <ele>161.3</ele>
        <time>2021-03-10T22:48:24.633619Z</time>
      </trkpt>
      <trkpt lat="44.56699" lon="1.80296">
        <ele>162.1</ele>
        <time>2021-03-10T22:48:43.324794Z</time>
      </trkpt>
      <trkpt lat="44.56826" lon="1.80344">
        <ele>162.6</ele>
        <time>2021-03-10T22:49:27.29209Z</time>
      </trkpt>
      <trkpt lat="44.56905" lon="1.80364">
        <ele>163.4</ele>
        <time>2021-03-10T22:49:54.127312Z</time>
      </trkpt>
      <trkpt lat="44.56927" lon="1.80362">
        <ele>163.5</ele>
        <time>2021-03-10T22:50:01.497202Z</time>
      </trkpt>
      <trkpt lat="44.56948" lon="1.80355">
        <ele>164.1</ele>
        <time>2021-03-10T22:50:08.71261Z</time>
      </trkpt>
      <trkpt lat="44.57016" lon="1.80315">
        <ele>163</ele>
        <time>2021-03-10T22:50:33.359773Z</time>
      </trkpt>
      <trkpt lat="44.57049" lon="1.80292">
        <ele>162.9</ele>
        <time>2021-03-10T22:50:45.676346Z</time>
      </trkpt>
      <trkpt lat="44.57068" lon="1.80275">
        <ele>161.9</ele>
        <time>2021-03-10T22:50:53.208476Z</time>
      </trkpt>
      <trkpt lat="44.57125" lon="1.80213">
        <ele>164.3</ele>
        <time>2021-03-10T22:51:17.314181Z</time>
      </trkpt>
      <trkpt lat="44.57154" lon="1.80175">
        <ele>165.2</ele>
        <time>2021-03-10T22:51:30.575969Z</time>
      </trkpt>
      <trkpt lat="44.57168" lon="1.80151">
        <ele>163.6</ele>
        <time>2021-03-10T22:51:37.963027Z</time>
      </trkpt>
      <trkpt lat="44.57221" lon="1.80035">
        <ele>161.8</ele>
        <time>2021-03-10T22:52:10.780849Z</time>
      </trkpt>
      <trkpt lat="44.57231" lon="1.80007">
        <ele>165.2</ele>
        <time>2021-03-10T22:52:18.23984Z</time>
      </trkpt>
      <trkpt lat="44.57238" lon="1.79979">
        <ele>165.8</ele>
        <time>2021-03-10T22:52:25.306441Z</time>
      </trkpt>
      <trkpt lat="44.57242" lon="1.79944">
        <ele>164.5</ele>
        <time>2021-03-10T22:52:33.747932Z</time>
      </trkpt>
      <trkpt lat="44.5724" lon="1.79894">
        <ele>163.2</ele>
        <time>2021-03-10T22:52:45.673611Z</time>
      </trkpt>
      <trkpt lat="44.57212" lon="1.79749">
        <ele>162.3</ele>
        <time>2021-03-10T22:53:21.449887Z</time>
      </trkpt>
      <trkpt lat="44.57197" lon="1.79699">
        <ele>162.2</ele>
        <time>2021-03-10T22:53:34.36968Z</time>
      </trkpt>
      <trkpt lat="44.57168" lon="1.79619">
        <ele>160.5</ele>
        <time>2021-03-10T22:53:55.745677Z</time>
      </trkpt>
      <trkpt lat="44.57144" lon="1.79569">
        <ele>161.1</ele>
        <time>2021-03-10T22:54:10.103491Z</time>
      </trkpt>
      <trkpt lat="44.57085" lon="1.79487">
        <ele>162.6</ele>
        <time>2021-03-10T22:54:37.8585Z</time>
      </trkpt>
      <trkpt lat="44.56987" lon="1.79387">
        <ele>160.5</ele>
        <time>2021-03-10T22:55:18.360361Z</time>
      </trkpt>
      <trkpt lat="44.56955" lon="1.79339">
        <ele>163</ele>
        <time>2021-03-10T22:55:34.016231Z</time>
      </trkpt>
      <trkpt lat="44.56942" lon="1.79314">
        <ele>160.4</ele>
        <time>2021-03-10T22:55:41.387337Z</time>
      </trkpt>
      <trkpt lat="44.56918" lon="1.79251">
        <ele>159.8</ele>
        <time>2021-03-10T22:55:58.401289Z</time>
      </trkpt>
      <trkpt lat="44.56909" lon="1.79209">
        <ele>160.2</ele>
        <time>2021-03-10T22:56:08.846372Z</time>
      </trkpt>
      <trkpt lat="44.56913" lon="1.79152">
        <ele>159.3</ele>
        <time>2021-03-10T22:56:22.486778Z</time>
      </trkpt>
      <trkpt lat="44.56981" lon="1.78918">
        <ele>162.2</ele>
        <time>2021-03-10T22:57:22.671944Z</time>
      </trkpt>
      <trkpt lat="44.56982" lon="1.78882">
        <ele>160.9</ele>
        <time>2021-03-10T22:57:31.25179Z</time>
      </trkpt>
      <trkpt lat="44.5698" lon="1.78864">
        <ele>160.5</ele>
        <time>2021-03-10T22:57:35.590403Z</time>
      </trkpt>
      <trkpt lat="44.56969" lon="1.78828">
        <ele>162</ele>
        <time>2021-03-10T22:57:44.919087Z</time>
      </trkpt>
      <trkpt lat="44.5693" lon="1.78756">
        <ele>161.9</ele>
        <time>2021-03-10T22:58:06.459421Z</time>
      </trkpt>
      <trkpt lat="44.56904" lon="1.78714">
        <ele>159.6</ele>
        <time>2021-03-10T22:58:19.710517Z</time>
      </trkpt>
      <trkpt lat="44.56879" lon="1.78684">
        <ele>160.6</ele>
        <time>2021-03-10T22:58:30.705485Z</time>
      </trkpt>
      <trkpt lat="44.56837" lon="1.7865">
        <ele>161.5</ele>
        <time>2021-03-10T22:58:46.913376Z</time>
      </trkpt>
      <trkpt lat="44.5676" lon="1.78596">
        <ele>165.7</ele>
        <time>2021-03-10T22:59:15.687779Z</time>
      </trkpt>
      <trkpt lat="44.56746" lon="1.78591">
        <ele>162</ele>
        <time>2021-03-10T22:59:20.516953Z</time>
      </trkpt>
      <trkpt lat="44.56723" lon="1.78587">
        <ele>159.1</ele>
        <time>2021-03-10T22:59:28.264464Z</time>
      </trkpt>
      <trkpt lat="44.56595" lon="1.78586">
        <ele>164.8</ele>
        <time>2021-03-10T23:00:11.054615Z</time>
      </trkpt>
      <trkpt lat="44.56439" lon="1.78591">
        <ele>162.1</ele>
        <time>2021-03-10T23:01:03.217884Z</time>
      </trkpt>
      <trkpt lat="44.56406" lon="1.7859">
        <ele>160.2</ele>
        <time>2021-03-10T23:01:14.25216Z</time>
      </trkpt>
      <trkpt lat="44.56375" lon="1.7858">
        <ele>159.4</ele>
        <time>2021-03-10T23:01:24.885448Z</time>
      </trkpt>
      <trkpt lat="44.5605" lon="1.78245">
        <ele>158.7</ele>
        <time>2021-03-10T23:03:39.68261Z</time>
      </trkpt>
      <trkpt lat="44.56021" lon="1.78212">
        <ele>160.4</ele>
        <time>2021-03-10T23:03:52.163203Z</time>
      </trkpt>
      <trkpt lat="44.56015" lon="1.782">
        <ele>160.1</ele>
        <time>2021-03-10T23:03:55.654905Z</time>
      </trkpt>
      <trkpt lat="44.55999" lon="1.78145">
        <ele>159.3</ele>
        <time>2021-03-10T23:04:09.8051Z</time>
      </trkpt>
      <trkpt lat="44.56003" lon="1.78105">
        <ele>159.7</ele>
        <time>2021-03-10T23:04:19.426011Z</time>
      </trkpt>
      <trkpt lat="44.56036" lon="1.78002">
        <ele>159.6</ele>
        <time>2021-03-10T23:04:46.325509Z</time>
      </trkpt>
      <trkpt lat="44.56134" lon="1.7767">
        <ele>159.4</ele>
        <time>2021-03-10T23:06:11.920641Z</time>
      </trkpt>
      <trkpt lat="44.56144" lon="1.77646">
        <ele>159.3</ele>
        <time>2021-03-10T23:06:18.542776Z</time>
      </trkpt>
      <trkpt lat="44.56177" lon="1.77587">
        <ele>159.4</ele>
        <time>2021-03-10T23:06:36.408347Z</time>
      </trkpt>
      <trkpt lat="44.56201" lon="1.77531">
        <ele>158.9</ele>
        <time>2021-03-10T23:06:51.973551Z</time>
      </trkpt>
      <trkpt lat="44.56219" lon="1.77468">
        <ele>159.2</ele>
        <time>2021-03-10T23:07:08.140479Z</time>
      </trkpt>
      <trkpt lat="44.56225" lon="1.77417">
        <ele>159.7</ele>
        <time>2021-03-10T23:07:20.452157Z</time>
      </trkpt>
      <trkpt lat="44.56226" lon="1.77379">
        <ele>160.8</ele>
        <time>2021-03-10T23:07:29.509158Z</time>
      </trkpt>
      <trkpt lat="44.56221" lon="1.77276">
        <ele>158.7</ele>
        <time>2021-03-10T23:07:54.098548Z</time>
      </trkpt>
      <trkpt lat="44.56198" lon="1.77021">
        <ele>156.8</ele>
        <time>2021-03-10T23:08:55.319275Z</time>
      </trkpt>
      <trkpt lat="44.5618" lon="1.76977">
        <ele>158.4</ele>
        <time>2021-03-10T23:09:07.403868Z</time>
      </trkpt>
      <trkpt lat="44.56162" lon="1.76949">
        <ele>159.3</ele>
        <time>2021-03-10T23:09:16.386362Z</time>
      </trkpt>
      <trkpt lat="44.56147" lon="1.76933">
        <ele>160.2</ele>
        <time>2021-03-10T23:09:22.684561Z</time>
      </trkpt>
      <trkpt lat="44.56107" lon="1.76905">
        <ele>159.8</ele>
        <time>2021-03-10T23:09:37.627095Z</time>
      </trkpt>
      <trkpt lat="44.56086" lon="1.76897">
        <ele>159.9</ele>
        <time>2021-03-10T23:09:44.901196Z</time>
      </trkpt>
      <trkpt lat="44.56009" lon="1.76891">
        <ele>157.4</ele>
        <time>2021-03-10T23:10:10.681383Z</time>
      </trkpt>
      <trkpt lat="44.55883" lon="1.76908">
        <ele>158.3</ele>
        <time>2021-03-10T23:10:52.996449Z</time>
      </trkpt>
      <trkpt lat="44.5584" lon="1.76927">
        <ele>156.8</ele>
        <time>2021-03-10T23:11:08.066656Z</time>
      </trkpt>
      <trkpt lat="44.55721" lon="1.77006">
        <ele>157.3</ele>
        <time>2021-03-10T23:11:52.073675Z</time>
      </trkpt>
      <trkpt lat="44.5564" lon="1.77049">
        <ele>157</ele>
        <time>2021-03-10T23:12:21.023896Z</time>
      </trkpt>
      <trkpt lat="44.55605" lon="1.77063">
        <ele>156.7</ele>
        <time>2021-03-10T23:12:33.190146Z</time>
      </trkpt>
      <trkpt lat="44.55391" lon="1.77119">
        <ele>154.7</ele>
        <time>2021-03-10T23:13:45.961889Z</time>
      </trkpt>
      <trkpt lat="44.5534" lon="1.77116">
        <ele>154.9</ele>
        <time>2021-03-10T23:14:03.025777Z</time>
      </trkpt>
      <trkpt lat="44.55308" lon="1.77105">
        <ele>155</ele>
        <time>2021-03-10T23:14:14.039363Z</time>
      </trkpt>
      <trkpt lat="44.55295" lon="1.77107">
        <ele>154.7</ele>
        <time>2021-03-10T23:14:18.411268Z</time>
      </trkpt>
      <trkpt lat="44.55275" lon="1.77162">
        <ele>152.9</ele>
        <time>2021-03-10T23:14:33.120565Z</time>
      </trkpt>
      <trkpt lat="44.55262" lon="1.77188">
        <ele>152</ele>
        <time>2021-03-10T23:14:40.686793Z</time>
      </trkpt>
      <trkpt lat="44.55275" lon="1.77162">
        <ele>152.9</ele>
        <time>2021-03-10T23:14:48.253021Z</time>
      </trkpt>
      <trkpt lat="44.55295" lon="1.77107">
        <ele>154.7</ele>
        <time>2021-03-10T23:15:02.962319Z</time>
      </trkpt>
      <trkpt lat="44.55308" lon="1.77105">
        <ele>155</ele>
        <time>2021-03-10T23:15:07.334224Z</time>
      </trkpt>
      <trkpt lat="44.5534" lon="1.77116">
        <ele>154.9</ele>
        <time>2021-03-10T23:15:18.34781Z</time>
      </trkpt>
      <trkpt lat="44.55366" lon="1.77119">
        <ele>155</ele>
        <time>2021-03-10T23:15:27.068673Z</time>
      </trkpt>
      <trkpt lat="44.55391" lon="1.77119">
        <ele>154.7</ele>
        <time>2021-03-10T23:15:35.425983Z</time>
      </trkpt>
      <trkpt lat="44.55417" lon="1.77114">
        <ele>154.6</ele>
        <time>2021-03-10T23:15:44.198905Z</time>
      </trkpt>
      <trkpt lat="44.55433" lon="1.77107">
        <ele>154.1</ele>
        <time>2021-03-10T23:15:49.801533Z</time>
      </trkpt>
      <trkpt lat="44.55365" lon="1.77083">
        <ele>157</ele>
        <time>2021-03-10T23:16:13.241352Z</time>
      </trkpt>
      <trkpt lat="44.55297" lon="1.7705">
        <ele>157.2</ele>
        <time>2021-03-10T23:16:37.294147Z</time>
      </trkpt>
      <trkpt lat="44.55283" lon="1.77034">
        <ele>157.3</ele>
        <time>2021-03-10T23:16:43.329952Z</time>
      </trkpt>
      <trkpt lat="44.55234" lon="1.76955">
        <ele>158.2</ele>
        <time>2021-03-10T23:17:08.279552Z</time>
      </trkpt>
      <trkpt lat="44.55224" lon="1.76931">
        <ele>159</ele>
        <time>2021-03-10T23:17:14.902364Z</time>
      </trkpt>
      <trkpt lat="44.55076" lon="1.76435">
        <ele>160.7</ele>
        <time>2021-03-10T23:19:23.00136Z</time>
      </trkpt>
      <trkpt lat="44.55069" lon="1.76418">
        <ele>160.4</ele>
        <time>2021-03-10T23:19:27.678608Z</time>
      </trkpt>
      <trkpt lat="44.55035" lon="1.763">
        <ele>160.4</ele>
        <time>2021-03-10T23:19:58.000325Z</time>
      </trkpt>
      <trkpt lat="44.55016" lon="1.76246">
        <ele>161.1</ele>
        <time>2021-03-10T23:20:12.347242Z</time>
      </trkpt>
      <trkpt lat="44.55001" lon="1.7621">
        <ele>162.8</ele>
        <time>2021-03-10T23:20:22.281859Z</time>
      </trkpt>
      <trkpt lat="44.54988" lon="1.76191">
        <ele>163.6</ele>
        <time>2021-03-10T23:20:28.556734Z</time>
      </trkpt>
      <trkpt lat="44.54966" lon="1.76163">
        <ele>163.7</ele>
        <time>2021-03-10T23:20:38.485651Z</time>
      </trkpt>
      <trkpt lat="44.54932" lon="1.7613">
        <ele>163.6</ele>
        <time>2021-03-10T23:20:52.305585Z</time>
      </trkpt>
      <trkpt lat="44.54853" lon="1.7608">
        <ele>165</ele>
        <time>2021-03-10T23:21:21.276788Z</time>
      </trkpt>
      <trkpt lat="44.54677" lon="1.75994">
        <ele>167.3</ele>
        <time>2021-03-10T23:22:23.577698Z</time>
      </trkpt>
      <trkpt lat="44.5465" lon="1.75986">
        <ele>168.7</ele>
        <time>2021-03-10T23:22:32.80268Z</time>
      </trkpt>
      <trkpt lat="44.54609" lon="1.75982">
        <ele>165.6</ele>
        <time>2021-03-10T23:22:46.541802Z</time>
      </trkpt>
      <trkpt lat="44.54572" lon="1.75984">
        <ele>169.9</ele>
        <time>2021-03-10T23:22:58.919861Z</time>
      </trkpt>
      <trkpt lat="44.54475" lon="1.76026">
        <ele>166.4</ele>
        <time>2021-03-10T23:23:32.855116Z</time>
      </trkpt>
      <trkpt lat="44.54452" lon="1.7604">
        <ele>168.1</ele>
        <time>2021-03-10T23:23:41.236176Z</time>
      </trkpt>
      <trkpt lat="44.54386" lon="1.76095">
        <ele>167.4</ele>
        <time>2021-03-10T23:24:06.897487Z</time>
      </trkpt>
      <trkpt lat="44.54375" lon="1.761">
        <ele>167.5</ele>
        <time>2021-03-10T23:24:10.762664Z</time>
      </trkpt>
      <trkpt lat="44.54352" lon="1.76101">
        <ele>169.9</ele>
        <time>2021-03-10T23:24:18.455095Z</time>
      </trkpt>
      <trkpt lat="44.5433" lon="1.76091">
        <ele>169</ele>
        <time>2021-03-10T23:24:26.185871Z</time>
      </trkpt>
      <trkpt lat="44.54286" lon="1.76056">
        <ele>165.6</ele>
        <time>2021-03-10T23:24:43.094188Z</time>
      </trkpt>
      <trkpt lat="44.54156" lon="1.75905">
        <ele>165.3</ele>
        <time>2021-03-10T23:25:39.512148Z</time>
      </trkpt>
      <trkpt lat="44.54141" lon="1.7587">
        <ele>164.5</ele>
        <time>2021-03-10T23:25:49.242842Z</time>
      </trkpt>
      <trkpt lat="44.54138" lon="1.75816">
        <ele>164.6</ele>
        <time>2021-03-10T23:26:02.148188Z</time>
      </trkpt>
      <trkpt lat="44.5413" lon="1.75751">
        <ele>164.8</ele>
        <time>2021-03-10T23:26:17.864609Z</time>
      </trkpt>
      <trkpt lat="44.54114" lon="1.75686">
        <ele>164.8</ele>
        <time>2021-03-10T23:26:34.24945Z</time>
      </trkpt>
      <trkpt lat="44.54095" lon="1.75625">
        <ele>164.2</ele>
        <time>2021-03-10T23:26:50.110924Z</time>
      </trkpt>
      <trkpt lat="44.54026" lon="1.75476">
        <ele>161.5</ele>
        <time>2021-03-10T23:27:32.448142Z</time>
      </trkpt>
      <trkpt lat="44.53986" lon="1.75407">
        <ele>162.4</ele>
        <time>2021-03-10T23:27:53.640086Z</time>
      </trkpt>
      <trkpt lat="44.53954" lon="1.75371">
        <ele>161</ele>
        <time>2021-03-10T23:28:07.351819Z</time>
      </trkpt>
      <trkpt lat="44.53915" lon="1.75338">
        <ele>160.1</ele>
        <time>2021-03-10T23:28:22.576849Z</time>
      </trkpt>
      <trkpt lat="44.53871" lon="1.75315">
        <ele>159.8</ele>
        <time>2021-03-10T23:28:38.273485Z</time>
      </trkpt>
      <trkpt lat="44.53817" lon="1.75309">
        <ele>162</ele>
        <time>2021-03-10T23:28:56.381776Z</time>
      </trkpt>
      <trkpt lat="44.53793" lon="1.75314">
        <ele>160.9</ele>
        <time>2021-03-10T23:29:04.492755Z</time>
      </trkpt>
      <trkpt lat="44.53759" lon="1.7533">
        <ele>160.9</ele>
        <time>2021-03-10T23:29:16.481043Z</time>
      </trkpt>
      <trkpt lat="44.53696" lon="1.75369">
        <ele>157.1</ele>
        <time>2021-03-10T23:29:39.500657Z</time>
      </trkpt>
      <trkpt lat="44.53671" lon="1.75396">
        <ele>158.7</ele>
        <time>2021-03-10T23:29:50.047564Z</time>
      </trkpt>
      <trkpt lat="44.53644" lon="1.75443">
        <ele>158</ele>
        <time>2021-03-10T23:30:04.43134Z</time>
      </trkpt>
      <trkpt lat="44.53621" lon="1.75499">
        <ele>160.4</ele>
        <time>2021-03-10T23:30:19.83192Z</time>
      </trkpt>
      <trkpt lat="44.53582" lon="1.75571">
        <ele>156.2</ele>
        <time>2021-03-10T23:30:41.380118Z</time>
      </trkpt>
      <trkpt lat="44.53557" lon="1.7561">
        <ele>153.9</ele>
        <time>2021-03-10T23:30:53.878485Z</time>
      </trkpt>
      <trkpt lat="44.53538" lon="1.75634">
        <ele>153.2</ele>
        <time>2021-03-10T23:31:02.425369Z</time>
      </trkpt>
      <trkpt lat="44.53519" lon="1.75648">
        <ele>153.5</ele>
        <time>2021-03-10T23:31:09.599793Z</time>
      </trkpt>
      <trkpt lat="44.53503" lon="1.75646">
        <ele>154.4</ele>
        <time>2021-03-10T23:31:14.969681Z</time>
      </trkpt>
      <trkpt lat="44.53494" lon="1.7564">
        <ele>154.3</ele>
        <time>2021-03-10T23:31:18.3008Z</time>
      </trkpt>
      <trkpt lat="44.53487" lon="1.75633">
        <ele>154</ele>
        <time>2021-03-10T23:31:21.174388Z</time>
      </trkpt>
      <trkpt lat="44.53399" lon="1.75451">
        <ele>154</ele>
        <time>2021-03-10T23:32:13.579661Z</time>
      </trkpt>
      <trkpt lat="44.53384" lon="1.75398">
        <ele>154.4</ele>
        <time>2021-03-10T23:32:27.168371Z</time>
      </trkpt>
      <trkpt lat="44.5337" lon="1.75335">
        <ele>153.3</ele>
        <time>2021-03-10T23:32:42.893627Z</time>
      </trkpt>
      <trkpt lat="44.53368" lon="1.75308">
        <ele>156.3</ele>
        <time>2021-03-10T23:32:49.362313Z</time>
      </trkpt>
      <trkpt lat="44.53374" lon="1.75264">
        <ele>154.8</ele>
        <time>2021-03-10T23:33:00.0375Z</time>
      </trkpt>
      <trkpt lat="44.53407" lon="1.75156">
        <ele>154</ele>
        <time>2021-03-10T23:33:28.038161Z</time>
      </trkpt>
      <trkpt lat="44.53499" lon="1.74891">
        <ele>152.1</ele>
        <time>2021-03-10T23:34:38.277022Z</time>
      </trkpt>
      <trkpt lat="44.53505" lon="1.74862">
        <ele>150.8</ele>
        <time>2021-03-10T23:34:45.472704Z</time>
      </trkpt>
      <trkpt lat="44.53503" lon="1.74835">
        <ele>151.1</ele>
        <time>2021-03-10T23:34:51.941263Z</time>
      </trkpt>
      <trkpt lat="44.53491" lon="1.74812">
        <ele>148</ele>
        <time>2021-03-10T23:34:58.73319Z</time>
      </trkpt>
      <trkpt lat="44.53179" lon="1.74451">
        <ele>151.2</ele>
        <time>2021-03-10T23:37:13.932138Z</time>
      </trkpt>
      <trkpt lat="44.53119" lon="1.74355">
        <ele>151</ele>
        <time>2021-03-10T23:37:44.357096Z</time>
      </trkpt>
      <trkpt lat="44.53075" lon="1.74275">
        <ele>149.1</ele>
        <time>2021-03-10T23:38:08.436361Z</time>
      </trkpt>
      <trkpt lat="44.52856" lon="1.73735">
        <ele>147.8</ele>
        <time>2021-03-10T23:40:36.492452Z</time>
      </trkpt>
      <trkpt lat="44.52828" lon="1.73645">
        <ele>147.8</ele>
        <time>2021-03-10T23:40:59.894535Z</time>
      </trkpt>
      <trkpt lat="44.527" lon="1.73066">
        <ele>146.5</ele>
        <time>2021-03-10T23:43:24.364784Z</time>
      </trkpt>
      <trkpt lat="44.52684" lon="1.73027">
        <ele>146.6</ele>
        <time>2021-03-10T23:43:35.088544Z</time>
      </trkpt>
      <trkpt lat="44.5254" lon="1.72839">
        <ele>147.5</ele>
        <time>2021-03-10T23:44:40.851939Z</time>
      </trkpt>
      <trkpt lat="44.52507" lon="1.72813">
        <ele>147.3</ele>
        <time>2021-03-10T23:44:53.50486Z</time>
      </trkpt>
      <trkpt lat="44.52493" lon="1.72807">
        <ele>146</ele>
        <time>2021-03-10T23:44:58.398461Z</time>
      </trkpt>
      <trkpt lat="44.52416" lon="1.7279">
        <ele>148.1</ele>
        <time>2021-03-10T23:45:24.455942Z</time>
      </trkpt>
      <trkpt lat="44.52346" lon="1.72782">
        <ele>146.4</ele>
        <time>2021-03-10T23:45:47.933993Z</time>
      </trkpt>
      <trkpt lat="44.52236" lon="1.728">
        <ele>147.4</ele>
        <time>2021-03-10T23:46:24.955621Z</time>
      </trkpt>
      <trkpt lat="44.52135" lon="1.72792">
        <ele>146.5</ele>
        <time>2021-03-10T23:46:58.772979Z</time>
      </trkpt>
      <trkpt lat="44.52093" lon="1.72805">
        <ele>145.3</ele>
        <time>2021-03-10T23:47:13.15109Z</time>
      </trkpt>
      <trkpt lat="44.51988" lon="1.72849">
        <ele>147.5</ele>
        <time>2021-03-10T23:47:49.785085Z</time>
      </trkpt>
      <trkpt lat="44.5188" lon="1.72878">
        <ele>143.9</ele>
        <time>2021-03-10T23:48:26.544454Z</time>
      </trkpt>
      <trkpt lat="44.51839" lon="1.72884">
        <ele>144.1</ele>
        <time>2021-03-10T23:48:40.324839Z</time>
      </trkpt>
      <trkpt lat="44.51799" lon="1.72874">
        <ele>144.4</ele>
        <time>2021-03-10T23:48:53.907343Z</time>
      </trkpt>
      <trkpt lat="44.51732" lon="1.72848">
        <ele>144.6</ele>
        <time>2021-03-10T23:49:17.146547Z</time>
      </trkpt>
      <trkpt lat="44.51695" lon="1.72827">
        <ele>144.2</ele>
        <time>2021-03-10T23:49:30.489901Z</time>
      </trkpt>
      <trkpt lat="44.51657" lon="1.72792">
        <ele>144.1</ele>
        <time>2021-03-10T23:49:45.687674Z</time>
      </trkpt>
      <trkpt lat="44.51628" lon="1.72748">
        <ele>144.3</ele>
        <time>2021-03-10T23:49:59.969974Z</time>
      </trkpt>
      <trkpt lat="44.51617" lon="1.72721">
        <ele>144.5</ele>
        <time>2021-03-10T23:50:07.382296Z</time>
      </trkpt>
      <trkpt lat="44.516" lon="1.72666">
        <ele>144.2</ele>
        <time>2021-03-10T23:50:21.671296Z</time>
      </trkpt>
      <trkpt lat="44.5159" lon="1.72612">
        <ele>144.7</ele>
        <time>2021-03-10T23:50:34.970255Z</time>
      </trkpt>
      <trkpt lat="44.51583" lon="1.72549">
        <ele>144</ele>
        <time>2021-03-10T23:50:50.168751Z</time>
      </trkpt>
      <trkpt lat="44.5158" lon="1.72457">
        <ele>144.6</ele>
        <time>2021-03-10T23:51:12.121687Z</time>
      </trkpt>
      <trkpt lat="44.51585" lon="1.72421">
        <ele>144.8</ele>
        <time>2021-03-10T23:51:20.86424Z</time>
      </trkpt>
      <trkpt lat="44.5166" lon="1.72071">
        <ele>149.4</ele>
        <time>2021-03-10T23:52:47.978951Z</time>
      </trkpt>
      <trkpt lat="44.51668" lon="1.7205">
        <ele>146.5</ele>
        <time>2021-03-10T23:52:53.654241Z</time>
      </trkpt>
      <trkpt lat="44.51694" lon="1.72007">
        <ele>145.2</ele>
        <time>2021-03-10T23:53:07.093039Z</time>
      </trkpt>
      <trkpt lat="44.5171" lon="1.71992">
        <ele>143.9</ele>
        <time>2021-03-10T23:53:13.526748Z</time>
      </trkpt>
      <trkpt lat="44.5173" lon="1.71982">
        <ele>143.9</ele>
        <time>2021-03-10T23:53:20.624806Z</time>
      </trkpt>
      <trkpt lat="44.51766" lon="1.71977">
        <ele>144.3</ele>
        <time>2021-03-10T23:53:32.718192Z</time>
      </trkpt>
      <trkpt lat="44.5187" lon="1.71985">
        <ele>145.6</ele>
        <time>2021-03-10T23:54:07.536898Z</time>
      </trkpt>
      <trkpt lat="44.51932" lon="1.71972">
        <ele>146.7</ele>
        <time>2021-03-10T23:54:28.493405Z</time>
      </trkpt>
      <trkpt lat="44.5194" lon="1.71966">
        <ele>146.4</ele>
        <time>2021-03-10T23:54:31.526284Z</time>
      </trkpt>
      <trkpt lat="44.51959" lon="1.71944">
        <ele>146.7</ele>
        <time>2021-03-10T23:54:39.762834Z</time>
      </trkpt>
      <trkpt lat="44.51967" lon="1.71928">
        <ele>145.6</ele>
        <time>2021-03-10T23:54:44.420797Z</time>
      </trkpt>
      <trkpt lat="44.51981" lon="1.71884">
        <ele>148</ele>
        <time>2021-03-10T23:54:55.905257Z</time>
      </trkpt>
      <trkpt lat="44.51993" lon="1.71832">
        <ele>148.8</ele>
        <time>2021-03-10T23:55:08.932669Z</time>
      </trkpt>
      <trkpt lat="44.51997" lon="1.71769">
        <ele>145</ele>
        <time>2021-03-10T23:55:24.008334Z</time>
      </trkpt>
      <trkpt lat="44.51995" lon="1.71722">
        <ele>146.9</ele>
        <time>2021-03-10T23:55:35.230842Z</time>
      </trkpt>
      <trkpt lat="44.51988" lon="1.7169">
        <ele>152.7</ele>
        <time>2021-03-10T23:55:43.20907Z</time>
      </trkpt>
      <trkpt lat="44.51977" lon="1.71657">
        <ele>150.2</ele>
        <time>2021-03-10T23:55:51.891833Z</time>
      </trkpt>
      <trkpt lat="44.51961" lon="1.71628">
        <ele>150.3</ele>
        <time>2021-03-10T23:56:00.631823Z</time>
      </trkpt>
      <trkpt lat="44.51898" lon="1.71531">
        <ele>145.7</ele>
        <time>2021-03-10T23:56:31.906404Z</time>
      </trkpt>
      <trkpt lat="44.51874" lon="1.71507">
        <ele>141.5</ele>
        <time>2021-03-10T23:56:41.760049Z</time>
      </trkpt>
      <trkpt lat="44.51856" lon="1.71494">
        <ele>142.9</ele>
        <time>2021-03-10T23:56:48.528247Z</time>
      </trkpt>
      <trkpt lat="44.51702" lon="1.71411">
        <ele>143.3</ele>
        <time>2021-03-10T23:57:43.679941Z</time>
      </trkpt>
      <trkpt lat="44.51634" lon="1.71369">
        <ele>144.1</ele>
        <time>2021-03-10T23:58:08.518793Z</time>
      </trkpt>
      <trkpt lat="44.51608" lon="1.7135">
        <ele>145.1</ele>
        <time>2021-03-10T23:58:18.319636Z</time>
      </trkpt>
      <trkpt lat="44.51549" lon="1.71298">
        <ele>143.5</ele>
        <time>2021-03-10T23:58:41.614455Z</time>
      </trkpt>
      <trkpt lat="44.51519" lon="1.71261">
        <ele>145.3</ele>
        <time>2021-03-10T23:58:54.969829Z</time>
      </trkpt>
      <trkpt lat="44.51513" lon="1.71249">
        <ele>145.9</ele>
        <time>2021-03-10T23:58:58.463513Z</time>
      </trkpt>
      <trkpt lat="44.51487" lon="1.71185">
        <ele>145.1</ele>
        <time>2021-03-10T23:59:16.021563Z</time>
      </trkpt>
      <trkpt lat="44.51461" lon="1.71104">
        <ele>144.3</ele>
        <time>2021-03-10T23:59:37.195953Z</time>
      </trkpt>
      <trkpt lat="44.51456" lon="1.7108">
        <ele>143.4</ele>
        <time>2021-03-10T23:59:43.156179Z</time>
      </trkpt>
      <trkpt lat="44.51458" lon="1.71015">
        <ele>143.5</ele>
        <time>2021-03-10T23:59:58.664969Z</time>
      </trkpt>
      <trkpt lat="44.51495" lon="1.7083">
        <ele>142.8</ele>
        <time>2021-03-11T00:00:44.465924Z</time>
      </trkpt>
      <trkpt lat="44.51516" lon="1.70758">
        <ele>143.7</ele>
        <time>2021-03-11T00:01:03.008989Z</time>
      </trkpt>
      <trkpt lat="44.51603" lon="1.70554">
        <ele>143.4</ele>
        <time>2021-03-11T00:01:59.670197Z</time>
      </trkpt>
      <trkpt lat="44.51642" lon="1.70484">
        <ele>142.3</ele>
        <time>2021-03-11T00:02:20.845414Z</time>
      </trkpt>
      <trkpt lat="44.51721" lon="1.70356">
        <ele>143.7</ele>
        <time>2021-03-11T00:03:01.19825Z</time>
      </trkpt>
      <trkpt lat="44.51761" lon="1.70285">
        <ele>145.6</ele>
        <time>2021-03-11T00:03:22.767154Z</time>
      </trkpt>
      <trkpt lat="44.51783" lon="1.70258">
        <ele>145.1</ele>
        <time>2021-03-11T00:03:32.539948Z</time>
      </trkpt>
      <trkpt lat="44.51928" lon="1.7011">
        <ele>142</ele>
        <time>2021-03-11T00:04:32.490336Z</time>
      </trkpt>
      <trkpt lat="44.5194" lon="1.70093">
        <ele>141.9</ele>
        <time>2021-03-11T00:04:38.19219Z</time>
      </trkpt>
      <trkpt lat="44.51951" lon="1.70073">
        <ele>142.9</ele>
        <time>2021-03-11T00:04:44.212792Z</time>
      </trkpt>
      <trkpt lat="44.51964" lon="1.70035">
        <ele>144.6</ele>
        <time>2021-03-11T00:04:54.258872Z</time>
      </trkpt>
      <trkpt lat="44.51967" lon="1.69996">
        <ele>142.6</ele>
        <time>2021-03-11T00:05:03.608664Z</time>
      </trkpt>
      <trkpt lat="44.51963" lon="1.69861">
        <ele>148.7</ele>
        <time>2021-03-11T00:05:35.814247Z</time>
      </trkpt>
      <trkpt lat="44.51958" lon="1.69795">
        <ele>146.8</ele>
        <time>2021-03-11T00:05:51.634222Z</time>
      </trkpt>
      <trkpt lat="44.51947" lon="1.69737">
        <ele>142.2</ele>
        <time>2021-03-11T00:06:05.939517Z</time>
      </trkpt>
      <trkpt lat="44.5184" lon="1.69505">
        <ele>144.6</ele>
        <time>2021-03-11T00:07:11.798492Z</time>
      </trkpt>
      <trkpt lat="44.51785" lon="1.69359">
        <ele>143</ele>
        <time>2021-03-11T00:07:51.15748Z</time>
      </trkpt>
      <trkpt lat="44.51676" lon="1.6893">
        <ele>142.4</ele>
        <time>2021-03-11T00:09:39.713562Z</time>
      </trkpt>
      <trkpt lat="44.51648" lon="1.68851">
        <ele>141.7</ele>
        <time>2021-03-11T00:10:00.742515Z</time>
      </trkpt>
      <trkpt lat="44.5162" lon="1.68782">
        <ele>141.8</ele>
        <time>2021-03-11T00:10:19.666793Z</time>
      </trkpt>
      <trkpt lat="44.51604" lon="1.68715">
        <ele>142.4</ele>
        <time>2021-03-11T00:10:36.509341Z</time>
      </trkpt>
      <trkpt lat="44.51594" lon="1.68657">
        <ele>140.4</ele>
        <time>2021-03-11T00:10:50.733203Z</time>
      </trkpt>
      <trkpt lat="44.51593" lon="1.68625">
        <ele>140.7</ele>
        <time>2021-03-11T00:10:58.368344Z</time>
      </trkpt>
      <trkpt lat="44.51603" lon="1.68525">
        <ele>141.5</ele>
        <time>2021-03-11T00:11:22.438507Z</time>
      </trkpt>
      <trkpt lat="44.51609" lon="1.68494">
        <ele>140.4</ele>
        <time>2021-03-11T00:11:30.095328Z</time>
      </trkpt>
      <trkpt lat="44.5164" lon="1.68431">
        <ele>141.3</ele>
        <time>2021-03-11T00:11:48.341132Z</time>
      </trkpt>
      <trkpt lat="44.5168" lon="1.68378">
        <ele>141.8</ele>
        <time>2021-03-11T00:12:06.736931Z</time>
      </trkpt>
      <trkpt lat="44.51716" lon="1.68343">
        <ele>141.4</ele>
        <time>2021-03-11T00:12:21.380401Z</time>
      </trkpt>
      <trkpt lat="44.51775" lon="1.68293">
        <ele>141.9</ele>
        <time>2021-03-11T00:12:44.42495Z</time>
      </trkpt>
      <trkpt lat="44.51847" lon="1.68219">
        <ele>140.8</ele>
        <time>2021-03-11T00:13:14.265254Z</time>
      </trkpt>
      <trkpt lat="44.51882" lon="1.68178">
        <ele>140.6</ele>
        <time>2021-03-11T00:13:29.509961Z</time>
      </trkpt>
      <trkpt lat="44.519" lon="1.6815">
        <ele>141.3</ele>
        <time>2021-03-11T00:13:38.496082Z</time>
      </trkpt>
      <trkpt lat="44.51905" lon="1.68148">
        <ele>142.1</ele>
        <time>2021-03-11T00:13:40.23451Z</time>
      </trkpt>
      <trkpt lat="44.51958" lon="1.6805">
        <ele>141.1</ele>
        <time>2021-03-11T00:14:09.552531Z</time>
      </trkpt>
      <trkpt lat="44.51994" lon="1.67968">
        <ele>143.9</ele>
        <time>2021-03-11T00:14:32.505468Z</time>
      </trkpt>
      <trkpt lat="44.52009" lon="1.6794">
        <ele>143</ele>
        <time>2021-03-11T00:14:40.853172Z</time>
      </trkpt>
      <trkpt lat="44.52019" lon="1.67927">
        <ele>143.1</ele>
        <time>2021-03-11T00:14:45.411346Z</time>
      </trkpt>
      <trkpt lat="44.52032" lon="1.67917">
        <ele>141.5</ele>
        <time>2021-03-11T00:14:50.367964Z</time>
      </trkpt>
      <trkpt lat="44.52113" lon="1.67874">
        <ele>143</ele>
        <time>2021-03-11T00:15:19.320421Z</time>
      </trkpt>
      <trkpt lat="44.52187" lon="1.67789">
        <ele>142.5</ele>
        <time>2021-03-11T00:15:51.295375Z</time>
      </trkpt>
      <trkpt lat="44.52206" lon="1.67763">
        <ele>146.6</ele>
        <time>2021-03-11T00:16:00.169204Z</time>
      </trkpt>
      <trkpt lat="44.52215" lon="1.67742">
        <ele>141.7</ele>
        <time>2021-03-11T00:16:06.009038Z</time>
      </trkpt>
      <trkpt lat="44.52223" lon="1.67715">
        <ele>142.5</ele>
        <time>2021-03-11T00:16:12.977903Z</time>
      </trkpt>
      <trkpt lat="44.5223" lon="1.67676">
        <ele>160.8</ele>
        <time>2021-03-11T00:16:22.563273Z</time>
      </trkpt>
      <trkpt lat="44.5223" lon="1.67641">
        <ele>177.8</ele>
        <time>2021-03-11T00:16:30.905315Z</time>
      </trkpt>
      <trkpt lat="44.52215" lon="1.67569">
        <ele>181.7</ele>
        <time>2021-03-11T00:16:48.783626Z</time>
      </trkpt>
      <trkpt lat="44.5217" lon="1.67445">
        <ele>148.8</ele>
        <time>2021-03-11T00:17:21.946565Z</time>
      </trkpt>
      <trkpt lat="44.52166" lon="1.67427">
        <ele>145.6</ele>
        <time>2021-03-11T00:17:26.440305Z</time>
      </trkpt>
      <trkpt lat="44.52156" lon="1.67338">
        <ele>142.2</ele>
        <time>2021-03-11T00:17:47.914888Z</time>
      </trkpt>
      <trkpt lat="44.52161" lon="1.67176">
        <ele>145.7</ele>
        <time>2021-03-11T00:18:26.563118Z</time>
      </trkpt>
      <trkpt lat="44.52155" lon="1.67146">
        <ele>150</ele>
        <time>2021-03-11T00:18:33.989493Z</time>
      </trkpt>
      <trkpt lat="44.52116" lon="1.67002">
        <ele>141.1</ele>
        <time>2021-03-11T00:19:10.704248Z</time>
      </trkpt>
      <trkpt lat="44.52108" lon="1.66988">
        <ele>155.3</ele>
        <time>2021-03-11T00:19:14.980454Z</time>
      </trkpt>
      <trkpt lat="44.52096" lon="1.66977">
        <ele>158.1</ele>
        <time>2021-03-11T00:19:19.772799Z</time>
      </trkpt>
      <trkpt lat="44.52072" lon="1.66965">
        <ele>150.3</ele>
        <time>2021-03-11T00:19:28.290469Z</time>
      </trkpt>
      <trkpt lat="44.52052" lon="1.6696">
        <ele>143.6</ele>
        <time>2021-03-11T00:19:35.081736Z</time>
      </trkpt>
      <trkpt lat="44.51963" lon="1.66952">
        <ele>143.2</ele>
        <time>2021-03-11T00:20:04.894839Z</time>
      </trkpt>
      <trkpt lat="44.51892" lon="1.66954">
        <ele>141.3</ele>
        <time>2021-03-11T00:20:28.634427Z</time>
      </trkpt>
      <trkpt lat="44.51872" lon="1.6696">
        <ele>142.6</ele>
        <time>2021-03-11T00:20:35.471539Z</time>
      </trkpt>
      <trkpt lat="44.51775" lon="1.67018">
        <ele>144.1</ele>
        <time>2021-03-11T00:21:10.722052Z</time>
      </trkpt>
      <trkpt lat="44.51718" lon="1.67029">
        <ele>138.9</ele>
        <time>2021-03-11T00:21:29.956296Z</time>
      </trkpt>
      <trkpt lat="44.51598" lon="1.67036">
        <ele>142.3</ele>
        <time>2021-03-11T00:22:10.106117Z</time>
      </trkpt>
      <trkpt lat="44.51563" lon="1.67045">
        <ele>142.6</ele>
        <time>2021-03-11T00:22:22.001396Z</time>
      </trkpt>
      <trkpt lat="44.51474" lon="1.67076">
        <ele>144.6</ele>
        <time>2021-03-11T00:22:52.657391Z</time>
      </trkpt>
      <trkpt lat="44.51346" lon="1.6713">
        <ele>140.2</ele>
        <time>2021-03-11T00:23:37.341124Z</time>
      </trkpt>
      <trkpt lat="44.51337" lon="1.67131">
        <ele>140.1</ele>
        <time>2021-03-11T00:23:40.359195Z</time>
      </trkpt>
      <trkpt lat="44.51325" lon="1.67127">
        <ele>139.7</ele>
        <time>2021-03-11T00:23:44.482559Z</time>
      </trkpt>
      <trkpt lat="44.51303" lon="1.67096">
        <ele>139.7</ele>
        <time>2021-03-11T00:23:54.908323Z</time>
      </trkpt>
      <trkpt lat="44.51291" lon="1.6706">
        <ele>140.5</ele>
        <time>2021-03-11T00:24:04.381367Z</time>
      </trkpt>
      <trkpt lat="44.51282" lon="1.67021">
        <ele>139.7</ele>
        <time>2021-03-11T00:24:14.152952Z</time>
      </trkpt>
      <trkpt lat="44.51264" lon="1.66916">
        <ele>139.1</ele>
        <time>2021-03-11T00:24:39.896207Z</time>
      </trkpt>
      <trkpt lat="44.51245" lon="1.6685">
        <ele>140.7</ele>
        <time>2021-03-11T00:24:56.863174Z</time>
      </trkpt>
      <trkpt lat="44.51166" lon="1.66659">
        <ele>143</ele>
        <time>2021-03-11T00:25:49.499328Z</time>
      </trkpt>
      <trkpt lat="44.51123" lon="1.66565">
        <ele>144</ele>
        <time>2021-03-11T00:26:16.12198Z</time>
      </trkpt>
      <trkpt lat="44.51051" lon="1.66462">
        <ele>140.1</ele>
        <time>2021-03-11T00:26:50.505518Z</time>
      </trkpt>
      <trkpt lat="44.51022" lon="1.66426">
        <ele>139.9</ele>
        <time>2021-03-11T00:27:03.45296Z</time>
      </trkpt>
      <trkpt lat="44.50994" lon="1.66398">
        <ele>143.1</ele>
        <time>2021-03-11T00:27:14.949436Z</time>
      </trkpt>
      <trkpt lat="44.50977" lon="1.66386">
        <ele>142.1</ele>
        <time>2021-03-11T00:27:21.311847Z</time>
      </trkpt>
      <trkpt lat="44.50957" lon="1.66381">
        <ele>142.9</ele>
        <time>2021-03-11T00:27:28.103114Z</time>
      </trkpt>
      <trkpt lat="44.50882" lon="1.66384">
        <ele>150.3</ele>
        <time>2021-03-11T00:27:53.185277Z</time>
      </trkpt>
      <trkpt lat="44.50781" lon="1.66375">
        <ele>140</ele>
        <time>2021-03-11T00:28:27.01694Z</time>
      </trkpt>
      <trkpt lat="44.50765" lon="1.66368">
        <ele>138.9</ele>
        <time>2021-03-11T00:28:32.619858Z</time>
      </trkpt>
      <trkpt lat="44.50756" lon="1.66352">
        <ele>138.2</ele>
        <time>2021-03-11T00:28:37.478042Z</time>
      </trkpt>
      <trkpt lat="44.50752" lon="1.66328">
        <ele>137.9</ele>
        <time>2021-03-11T00:28:43.353892Z</time>
      </trkpt>
      <trkpt lat="44.50755" lon="1.663">
        <ele>138.5</ele>
        <time>2021-03-11T00:28:50.104134Z</time>
      </trkpt>
      <trkpt lat="44.50761" lon="1.66277">
        <ele>139.1</ele>
        <time>2021-03-11T00:28:55.942711Z</time>
      </trkpt>
      <trkpt lat="44.50794" lon="1.66181">
        <ele>137.6</ele>
        <time>2021-03-11T00:29:21.349331Z</time>
      </trkpt>
      <trkpt lat="44.50862" lon="1.66039">
        <ele>137.7</ele>
        <time>2021-03-11T00:30:02.126251Z</time>
      </trkpt>
      <trkpt lat="44.50866" lon="1.66025">
        <ele>138.5</ele>
        <time>2021-03-11T00:30:05.721742Z</time>
      </trkpt>
      <trkpt lat="44.5087" lon="1.65979">
        <ele>144.4</ele>
        <time>2021-03-11T00:30:16.769372Z</time>
      </trkpt>
      <trkpt lat="44.50866" lon="1.65915">
        <ele>147</ele>
        <time>2021-03-11T00:30:32.085407Z</time>
      </trkpt>
      <trkpt lat="44.50857" lon="1.65876">
        <ele>151.3</ele>
        <time>2021-03-11T00:30:41.857618Z</time>
      </trkpt>
      <trkpt lat="44.50811" lon="1.65801">
        <ele>141.2</ele>
        <time>2021-03-11T00:31:05.440718Z</time>
      </trkpt>
      <trkpt lat="44.50787" lon="1.65769">
        <ele>140.4</ele>
        <time>2021-03-11T00:31:16.51177Z</time>
      </trkpt>
      <trkpt lat="44.50733" lon="1.65716">
        <ele>139.9</ele>
        <time>2021-03-11T00:31:38.5463Z</time>
      </trkpt>
      <trkpt lat="44.50717" lon="1.65703">
        <ele>135.6</ele>
        <time>2021-03-11T00:31:44.728054Z</time>
      </trkpt>
      <trkpt lat="44.50644" lon="1.6566">
        <ele>136</ele>
        <time>2021-03-11T00:32:11.197244Z</time>
      </trkpt>
      <trkpt lat="44.50558" lon="1.65613">
        <ele>137</ele>
        <time>2021-03-11T00:32:42.052928Z</time>
      </trkpt>
      <trkpt lat="44.50543" lon="1.65603">
        <ele>137.6</ele>
        <time>2021-03-11T00:32:47.605315Z</time>
      </trkpt>
      <trkpt lat="44.50523" lon="1.65583">
        <ele>136.9</ele>
        <time>2021-03-11T00:32:55.817301Z</time>
      </trkpt>
      <trkpt lat="44.50501" lon="1.65557">
        <ele>137.1</ele>
        <time>2021-03-11T00:33:05.435672Z</time>
      </trkpt>
      <trkpt lat="44.50435" lon="1.65458">
        <ele>137</ele>
        <time>2021-03-11T00:33:37.745082Z</time>
      </trkpt>
      <trkpt lat="44.50482" lon="1.65449">
        <ele>143.3</ele>
        <time>2021-03-11T00:33:53.602703Z</time>
      </trkpt>
      <trkpt lat="44.50496" lon="1.6545">
        <ele>144.6</ele>
        <time>2021-03-11T00:33:58.288998Z</time>
      </trkpt>
      <trkpt lat="44.50507" lon="1.65453">
        <ele>146.3</ele>
        <time>2021-03-11T00:34:02.035166Z</time>
      </trkpt>
      <trkpt lat="44.50536" lon="1.65478">
        <ele>148.5</ele>
        <time>2021-03-11T00:34:13.415347Z</time>
      </trkpt>
      <trkpt lat="44.50555" lon="1.65507">
        <ele>147.4</ele>
        <time>2021-03-11T00:34:22.803916Z</time>
      </trkpt>
      <trkpt lat="44.50536" lon="1.65478">
        <ele>148.5</ele>
        <time>2021-03-11T00:34:32.192485Z</time>
      </trkpt>
      <trkpt lat="44.50507" lon="1.65453">
        <ele>146.3</ele>
        <time>2021-03-11T00:34:43.572666Z</time>
      </trkpt>
      <trkpt lat="44.50482" lon="1.65449">
        <ele>143.3</ele>
        <time>2021-03-11T00:34:51.984189Z</time>
      </trkpt>
      <trkpt lat="44.50435" lon="1.65458">
        <ele>137</ele>
        <time>2021-03-11T00:35:07.84181Z</time>
      </trkpt>
      <trkpt lat="44.502" lon="1.65104">
        <ele>138.9</ele>
        <time>2021-03-11T00:37:03.14596Z</time>
      </trkpt>
      <trkpt lat="44.50152" lon="1.65052">
        <ele>139</ele>
        <time>2021-03-11T00:37:23.423798Z</time>
      </trkpt>
      <trkpt lat="44.50106" lon="1.65013">
        <ele>139.2</ele>
        <time>2021-03-11T00:37:41.394137Z</time>
      </trkpt>
      <trkpt lat="44.50065" lon="1.64988">
        <ele>139.7</ele>
        <time>2021-03-11T00:37:56.340187Z</time>
      </trkpt>
      <trkpt lat="44.50023" lon="1.64978">
        <ele>136.7</ele>
        <time>2021-03-11T00:38:10.581505Z</time>
      </trkpt>
      <trkpt lat="44.49981" lon="1.6498">
        <ele>135.2</ele>
        <time>2021-03-11T00:38:24.6299Z</time>
      </trkpt>
      <trkpt lat="44.49958" lon="1.64986">
        <ele>137.4</ele>
        <time>2021-03-11T00:38:32.450561Z</time>
      </trkpt>
      <trkpt lat="44.49934" lon="1.65">
        <ele>136.6</ele>
        <time>2021-03-11T00:38:41.140263Z</time>
      </trkpt>
      <trkpt lat="44.49912" lon="1.65019">
        <ele>136.5</ele>
        <time>2021-03-11T00:38:49.778065Z</time>
      </trkpt>
      <trkpt lat="44.49894" lon="1.6504">
        <ele>136.9</ele>
        <time>2021-03-11T00:38:57.606221Z</time>
      </trkpt>
      <trkpt lat="44.49871" lon="1.65073">
        <ele>136.8</ele>
        <time>2021-03-11T00:39:08.607559Z</time>
      </trkpt>
      <trkpt lat="44.49806" lon="1.65185">
        <ele>135.6</ele>
        <time>2021-03-11T00:39:43.036188Z</time>
      </trkpt>
      <trkpt lat="44.49722" lon="1.6538">
        <ele>134.1</ele>
        <time>2021-03-11T00:40:37.35427Z</time>
      </trkpt>
      <trkpt lat="44.49706" lon="1.65412">
        <ele>135.7</ele>
        <time>2021-03-11T00:40:46.672514Z</time>
      </trkpt>
      <trkpt lat="44.49657" lon="1.6555">
        <ele>135.2</ele>
        <time>2021-03-11T00:41:23.429888Z</time>
      </trkpt>
      <trkpt lat="44.49637" lon="1.65574">
        <ele>136.7</ele>
        <time>2021-03-11T00:41:32.230483Z</time>
      </trkpt>
      <trkpt lat="44.49619" lon="1.65582">
        <ele>135</ele>
        <time>2021-03-11T00:41:38.542893Z</time>
      </trkpt>
      <trkpt lat="44.4957" lon="1.65577">
        <ele>135.6</ele>
        <time>2021-03-11T00:41:54.966566Z</time>
      </trkpt>
      <trkpt lat="44.49534" lon="1.65558">
        <ele>135.3</ele>
        <time>2021-03-11T00:42:07.82572Z</time>
      </trkpt>
      <trkpt lat="44.49502" lon="1.6552">
        <ele>135.4</ele>
        <time>2021-03-11T00:42:21.845006Z</time>
      </trkpt>
      <trkpt lat="44.49486" lon="1.65488">
        <ele>135.4</ele>
        <time>2021-03-11T00:42:31.163512Z</time>
      </trkpt>
      <trkpt lat="44.4945" lon="1.65434">
        <ele>135.4</ele>
        <time>2021-03-11T00:42:48.788427Z</time>
      </trkpt>
      <trkpt lat="44.49428" lon="1.65408">
        <ele>136.2</ele>
        <time>2021-03-11T00:42:58.407518Z</time>
      </trkpt>
      <trkpt lat="44.49387" lon="1.65374">
        <ele>137.2</ele>
        <time>2021-03-11T00:43:14.331983Z</time>
      </trkpt>
      <trkpt lat="44.49368" lon="1.65368">
        <ele>138.1</ele>
        <time>2021-03-11T00:43:20.842718Z</time>
      </trkpt>
      <trkpt lat="44.49346" lon="1.65372">
        <ele>138.5</ele>
        <time>2021-03-11T00:43:28.258776Z</time>
      </trkpt>
      <trkpt lat="44.49316" lon="1.65384">
        <ele>137</ele>
        <time>2021-03-11T00:43:38.687781Z</time>
      </trkpt>
      <trkpt lat="44.49287" lon="1.65402">
        <ele>138.9</ele>
        <time>2021-03-11T00:43:49.289998Z</time>
      </trkpt>
      <trkpt lat="44.49214" lon="1.65463">
        <ele>136.6</ele>
        <time>2021-03-11T00:44:17.699871Z</time>
      </trkpt>
      <trkpt lat="44.49186" lon="1.65479">
        <ele>136.2</ele>
        <time>2021-03-11T00:44:27.807791Z</time>
      </trkpt>
      <trkpt lat="44.49155" lon="1.6549">
        <ele>135.1</ele>
        <time>2021-03-11T00:44:38.497732Z</time>
      </trkpt>
      <trkpt lat="44.49129" lon="1.65496">
        <ele>134.7</ele>
        <time>2021-03-11T00:44:47.30633Z</time>
      </trkpt>
      <trkpt lat="44.49107" lon="1.65495">
        <ele>135.3</ele>
        <time>2021-03-11T00:44:54.664605Z</time>
      </trkpt>
      <trkpt lat="44.4906" lon="1.65477">
        <ele>135.7</ele>
        <time>2021-03-11T00:45:10.952162Z</time>
      </trkpt>
      <trkpt lat="44.49013" lon="1.65437">
        <ele>135.6</ele>
        <time>2021-03-11T00:45:29.332876Z</time>
      </trkpt>
      <trkpt lat="44.48916" lon="1.65331">
        <ele>135.5</ele>
        <time>2021-03-11T00:46:10.448276Z</time>
      </trkpt>
      <trkpt lat="44.48712" lon="1.65091">
        <ele>137.2</ele>
        <time>2021-03-11T00:47:39.479765Z</time>
      </trkpt>
      <trkpt lat="44.48686" lon="1.65064">
        <ele>152.3</ele>
        <time>2021-03-11T00:47:50.29678Z</time>
      </trkpt>
      <trkpt lat="44.48648" lon="1.65033">
        <ele>149</ele>
        <time>2021-03-11T00:48:04.994665Z</time>
      </trkpt>
      <trkpt lat="44.48595" lon="1.65007">
        <ele>136.5</ele>
        <time>2021-03-11T00:48:23.765924Z</time>
      </trkpt>
      <trkpt lat="44.48522" lon="1.64987">
        <ele>156.8</ele>
        <time>2021-03-11T00:48:48.63108Z</time>
      </trkpt>
      <trkpt lat="44.48439" lon="1.64975">
        <ele>138.3</ele>
        <time>2021-03-11T00:49:16.524595Z</time>
      </trkpt>
      <trkpt lat="44.48396" lon="1.64975">
        <ele>135.3</ele>
        <time>2021-03-11T00:49:30.899165Z</time>
      </trkpt>
      <trkpt lat="44.48307" lon="1.64984">
        <ele>142.2</ele>
        <time>2021-03-11T00:50:00.728534Z</time>
      </trkpt>
      <trkpt lat="44.48148" lon="1.65016">
        <ele>142.6</ele>
        <time>2021-03-11T00:50:54.426237Z</time>
      </trkpt>
      <trkpt lat="44.47921" lon="1.65104">
        <ele>137.5</ele>
        <time>2021-03-11T00:52:13.159977Z</time>
      </trkpt>
      <trkpt lat="44.47881" lon="1.65112">
        <ele>135</ele>
        <time>2021-03-11T00:52:26.667156Z</time>
      </trkpt>
      <trkpt lat="44.47867" lon="1.65105">
        <ele>134.4</ele>
        <time>2021-03-11T00:52:31.636084Z</time>
      </trkpt>
      <trkpt lat="44.47841" lon="1.65067">
        <ele>134.6</ele>
        <time>2021-03-11T00:52:44.193815Z</time>
      </trkpt>
      <trkpt lat="44.47836" lon="1.65048">
        <ele>135.1</ele>
        <time>2021-03-11T00:52:49.024085Z</time>
      </trkpt>
      <trkpt lat="44.4783" lon="1.65038">
        <ele>135.1</ele>
        <time>2021-03-11T00:52:52.140421Z</time>
      </trkpt>
      <trkpt lat="44.47852" lon="1.65002">
        <ele>135.3</ele>
        <time>2021-03-11T00:53:03.446238Z</time>
      </trkpt>
    </trkseg>
  </trk>
</gpx>